[[{"header":{"parameterUnit":"m.s-1","parameterCategory":1,"la1":31.0,"la2":29.5877,"lo1":-88.7671,"lo2":-86.6584,"dy":0.0162,"dx":0.0185,"nx":115,"ny":88,"refTime":"2023-05-01T12:00:00:Z","depth":0,"parameterNumber":2,"parameterNumberName":"U-component_of_WINDS"},"data":[0.0,0.0,0.0,0.0,0.0,0.0,0.0,0.0,0.0,0.0,0.0,0.0,0.0,0.0,0.0,0.0,0.0,0.0,0.0,0.0,0.0,0.0,0.0,0.0,0.0,0.0,0.0,0.0,0.0,0.0,0.0,0.0,0.0,0.0,0.0,0.0,0.0,0.0,0.0,0.0,0.0,0.0,0.0,0.0,0.0,0.0,0.0,0.0,0.0,0.0,0.0,0.0,0.0,0.0,0.0,0.0,0.0,0.0,0.0,0.0,0.0,0.0,0.0,0.0,0.0,0.0,0.0,0.0,0.0,0.0,0.0,0.0,0.0,0.0,0.0,0.0,0.0,0.0,0.0,0.0,0.0,0.0,0.0,0.0,0.0,0.0,0.0,0.0,0.0,0.0,0.0,0.0,0.0,0.0,0.0,0.0,0.0,0.0,0.0,0.0,0.0,0.0,0.0,0.0,0.0,0.0,0.0,0.0,0.0,0.0,0.0,0.0,0.0,0.0,0.0,0.0,0.0,0.0,0.0,0.0,0.0,0.0,0.0,0.0,0.0,0.0,0.0,0.0,0.0,0.0,0.0,0.0,0.0,0.0,0.0,0.0,0.0,0.0,0.0,0.0,0.0,0.0,0.0,0.0,0.0,0.0,0.0,0.0,0.0,0.0,0.0,0.0,0.0,0.0,0.0,0.0,0.0,0.0,0.0,0.0,0.0,0.0,0.0,0.0,0.0,0.0,0.0,0.0,0.0,0.0,0.0,0.0,0.0,0.0,0.0,0.0,0.0,0.0,0.0,0.0,0.0,0.0,0.0,0.0,0.0,0.0,0.0,0.0,0.0,0.0,0.0,0.0,0.0,0.0,0.0,0.0,0.0,0.0,0.0,0.0,0.0,0.0,0.0,0.0,0.0,0.0,0.0,0.0,0.0,0.0,0.0,0.0,0.0,0.0,0.0,0.0,0.0,0.0,0.0,0.0,0.0,0.0,0.0,0.0,0.0,0.0,0.0,0.0,0.0,0.0,0.0,0.0,0.0,0.0,0.0,0.0,0.0,0.0,0.0,0.0,0.0,0.0,0.0,0.0,0.0,0.0,0.0,0.0,0.0,0.0,0.0,0.0,0.0,0.0,0.0,0.0,0.0,0.0,0.0,0.0,0.0,0.0,0.0,0.0,0.0,0.0,0.0,0.0,0.0,0.0,0.0,0.0,0.0,0.0,0.0,0.0,0.0,0.0,0.0,0.0,0.0,0.0,0.0,0.0,0.0,0.0,0.0,0.0,0.0,0.0,0.0,0.0,0.0,0.0,0.0,0.0,0.0,0.0,0.0,0.0,0.0,0.0,0.0,0.0,0.0,0.0,0.0,0.0,0.0,0.0,0.0,0.0,0.0,0.0,0.0,0.0,0.0,0.0,0.0,0.0,0.0,0.0,0.0,0.0,0.0,0.0,0.0,0.0,0.0,0.0,0.0,0.0,0.0,0.0,0.0,0.0,0.0,0.0,0.0,0.0,0.0,0.0,0.0,0.0,0.0,0.0,0.0,0.0,0.0,0.0,0.0,0.0,0.0,0.0,0.0,0.0,0.0,0.0,0.0,0.0,0.0,0.0,0.0,0.0,0.0,0.0,0.0,0.0,0.0,0.0,0.0,0.0,0.0,0.0,0.0,0.0,0.0,0.0,0.0,0.0,0.0,0.0,0.0,0.0,0.0,0.0,0.0,0.0,0.0,0.0,0.0,0.0,0.0,0.0,0.0,0.0,0.0,0.0,0.0,0.0,0.0,0.0,0.0,0.0,0.0,0.0,0.0,0.0,0.0,0.0,0.0,0.0,0.0,0.0,0.0,0.0,0.0,0.0,0.0,0.0,0.0,0.0,0.0,0.0,0.0,0.0,0.0,0.0,0.0,0.0,0.0,0.0,0.0,0.0,0.0,0.0,0.0,0.0,0.0,0.0,0.0,0.0,0.0,0.0,0.0,0.0,0.0,0.0,0.0,0.0,0.0,0.0,0.0,0.0,0.0,0.0,0.0,0.0,0.0,0.0,0.0,0.0,0.0,0.0,0.0,0.0,0.0,0.0,0.0,0.0,0.0,0.0,0.0,0.0,0.0,0.0,0.0,0.0,0.0,0.0,0.0,0.0,0.0,0.0,0.0,0.0,0.0,0.0,0.0,0.0,0.0,0.0,0.0,0.0,0.0,0.0,0.0,0.0,0.0,0.0,0.0,0.0,0.0,0.0,0.0,0.0,0.0,0.0,0.0,0.0,0.0,0.0,0.0,0.0,0.0,0.0,0.0,0.0,0.0,0.0,0.0,0.0,0.0,0.0,0.0,0.0,0.0,0.0,0.0,0.0,0.0,0.0,0.0,0.0,0.0,0.0,0.0,0.0,0.0,0.0,0.0,0.0,0.0,0.0,0.0,0.0,0.0,0.0,0.0,0.0,0.0,0.0,0.0,0.0,0.0,0.0,0.0,0.0,0.0,0.0,0.0,0.0,0.0,0.0,0.0,0.0,0.0,0.0,0.0,0.0,0.0,0.0,0.0,0.0,0.0,0.0,0.0,0.0,0.0,0.0,0.0,0.0,0.0,0.0,0.0,0.0,0.0,0.0,0.0,0.0,0.0,0.0,0.0,0.0,0.0,0.0,0.0,0.0,0.0,0.0,0.0,0.0,0.0,0.0,0.0,0.0,0.0,0.0,0.0,0.0,0.0,0.0,0.0,0.0,0.0,0.0,0.0,0.0,0.0,0.0,0.0,0.0,0.0,0.0,0.0,0.0,0.0,0.0,0.0,0.0,0.0,0.0,0.0,0.0,0.0,0.0,0.0,0.0,0.0,0.0,0.0,0.0,0.0,0.0,0.0,0.0,0.0,0.0,0.0,0.0,0.0,0.0,0.0,0.0,0.0,0.0,0.0,0.0,0.0,0.0,0.0,0.0,0.0,0.0,0.0,0.0,0.0,0.0,0.0,0.0,0.0,0.0,0.0,0.0,0.0,0.0,0.0,0.0,0.0,0.0,0.0,0.0,0.0,0.0,0.0,0.0,0.0,0.0,0.0,0.0,0.0,0.0,0.0,0.0,0.0,0.0,0.0,0.0,0.0,0.0,0.0,0.0,0.0,0.0,0.0,0.0,0.0,0.0,0.0,0.0,0.0,0.0,0.0,0.0,0.0,0.0,0.0,0.0,0.0,0.0,0.0,0.0,0.0,0.0,0.0,0.0,0.0,0.0,0.0,0.0,0.0,0.0,0.0,0.0,0.0,0.0,0.0,0.0,0.0,0.0,0.0,0.0,0.0,0.0,0.0,0.0,0.0,0.0,0.0,0.0,0.0,0.0,0.0,0.0,0.0,0.0,0.0,0.0,0.0,0.0,0.0,0.0,0.0,0.0,0.0,0.0,0.0,0.0,0.0,0.0,0.0,0.0,0.0,0.0,0.0,0.0,0.0,0.0,0.0,0.0,0.0,0.0,0.0,0.0,0.0,0.0,0.0,0.0,0.0,0.0,0.0,0.0,0.0,0.0,0.0,0.0,0.0,0.0,0.0,0.0,0.0,0.0,0.0,0.0,0.0,0.0,0.0,0.0,0.0,0.0,0.0,0.0,0.0,0.0,0.0,0.0,0.0,0.0,0.0,0.0,0.0,0.0,0.0,0.0,0.0,0.0,0.0,0.0,0.0,0.0,0.0,0.0,0.0,0.0,0.0,0.0,0.0,0.0,0.0,0.0,0.0,0.0,0.0,0.0,0.0,0.0,0.0,0.0,0.0,0.0,0.0,0.0,0.0,0.0,0.0,0.0,0.0,0.0,0.0,0.0,0.0,0.0,0.0,0.0,0.0,0.0,0.0,0.0,0.0,0.0,0.0,0.0,0.0,0.0,0.0,0.0,0.0,0.0,0.0,0.0,0.0,0.0,0.0,0.0,0.0,0.0,0.0,0.0,0.0,0.0,0.0,0.0,0.0,0.0,0.0,0.0,0.0,0.0,0.0,0.0,0.0,0.0,0.0,0.0,0.0,0.0,0.0,0.0,0.0,0.0,0.0,0.0,0.0,0.0,0.0,0.0,0.0,0.0,0.0,0.0,0.0,0.0,0.0,0.0,0.0,0.0,0.0,0.0,0.0,0.0,0.0,0.0,0.0,0.0,0.0,0.0,0.0,0.0,0.0,0.0,0.0,0.0,0.0,0.0,0.0,0.0,0.0,0.0,0.0,0.0,0.0,0.0,0.0,0.0,0.0,0.0,0.0,0.0,0.0,0.0,0.0,0.0,0.0,0.0,0.0,0.0,1.3292,0.0,0.0,0.0,0.0,0.0,0.0,0.0,0.0,0.0,0.0,0.0,0.0,0.0,0.0,0.0,0.0,0.0,0.0,0.0,0.0,0.0,0.0,0.0,0.0,0.0,0.0,0.0,0.0,0.0,0.0,0.0,0.0,0.0,0.0,0.0,0.0,0.0,0.0,0.0,0.0,0.0,0.0,0.0,0.0,0.0,0.0,0.0,0.0,0.0,0.0,0.0,0.0,0.0,0.0,0.0,0.0,0.0,0.0,0.0,0.0,0.0,0.0,0.0,0.0,0.0,0.0,0.0,0.0,0.0,0.0,0.0,0.0,0.0,0.0,0.0,0.0,0.0,0.0,0.0,0.0,0.0,0.0,0.0,0.0,0.0,0.0,0.0,0.0,0.0,0.0,0.0,0.0,0.0,0.0,0.0,0.0,0.0,0.0,0.0,0.0,0.0,0.0,0.0,0.0,0.0,0.0,0.0,0.0,0.0,0.0,1.3594,1.3573,1.3344,1.3219,1.3232,0.0,0.0,0.0,0.0,0.0,0.0,0.0,0.0,0.0,0.0,0.0,0.0,0.0,0.0,0.0,0.0,0.0,0.0,0.0,0.0,0.0,0.0,0.0,0.0,0.0,0.0,0.0,0.0,0.0,0.0,0.0,0.0,0.0,0.0,0.0,0.0,0.0,0.0,0.0,0.0,0.0,0.0,0.0,0.0,0.0,0.0,0.0,0.0,0.0,0.0,0.0,0.0,0.0,0.0,0.0,0.0,0.0,0.0,0.0,0.0,0.0,0.0,0.0,0.0,0.0,0.0,0.0,0.0,0.0,0.0,0.0,0.0,0.0,0.0,0.0,0.0,0.0,0.0,0.0,0.0,0.0,0.0,0.0,0.0,0.0,0.0,0.0,0.0,0.0,0.0,0.0,0.0,0.0,0.0,0.0,0.0,0.0,0.0,0.0,0.0,0.0,0.0,0.0,0.0,0.0,0.0,0.0,0.0,0.0,0.0,0.0,0.0,1.3777,1.3704,1.3958,0.0,0.0,0.0,0.0,0.0,0.0,0.0,0.0,0.0,0.0,0.0,0.0,0.0,0.0,0.0,0.0,0.0,0.0,0.0,0.0,0.0,0.0,0.0,0.0,0.0,0.0,0.0,0.0,0.0,0.0,0.0,0.0,0.0,0.0,0.0,0.0,0.0,0.0,0.0,0.0,0.0,0.0,0.0,0.0,0.0,0.0,0.0,0.0,0.0,0.0,0.0,0.0,0.0,0.0,0.0,0.0,0.0,0.0,0.0,0.0,0.0,0.0,0.0,0.0,0.0,0.0,0.0,0.0,0.0,0.0,0.0,0.0,0.0,0.0,0.0,0.0,0.0,0.0,0.0,0.0,0.0,0.0,0.0,0.0,0.0,0.0,0.0,0.0,0.0,0.0,0.0,0.0,0.0,0.0,0.0,0.0,0.0,0.0,0.0,0.0,0.0,0.0,0.0,0.0,0.0,0.0,0.0,0.0,0.0,0.0,1.3763,1.4771,1.4749,0.0,1.6086,0.0,0.0,0.0,0.0,0.0,0.0,0.0,0.0,0.0,0.0,0.0,0.0,0.0,0.0,0.0,0.0,0.0,0.0,0.0,0.0,0.0,0.0,0.0,0.0,0.0,0.0,0.0,0.0,0.0,0.0,0.0,0.0,0.0,0.0,0.0,0.0,0.0,0.0,0.0,0.0,0.0,0.0,0.0,0.0,0.0,0.0,0.0,0.0,0.0,0.0,0.0,0.0,0.0,0.0,0.0,0.0,0.0,0.0,0.0,0.0,0.0,0.0,0.0,0.0,0.0,0.0,0.0,0.0,0.0,0.0,0.0,0.0,0.0,0.0,0.0,0.0,0.0,0.0,0.0,0.0,0.0,0.0,0.0,0.0,0.0,0.0,0.0,0.0,0.0,0.0,0.0,0.0,0.0,0.0,0.0,0.0,0.0,0.0,0.0,0.0,0.0,0.0,0.0,0.0,0.0,0.0,0.0,0.0,0.0,0.0,1.3588,1.439,1.4434,1.4909,0.0,0.0,0.0,0.0,0.0,0.0,0.0,0.0,0.0,0.0,0.0,0.0,0.0,0.0,0.0,0.0,0.0,0.0,0.0,0.0,0.0,0.0,0.0,0.0,0.0,0.0,0.0,0.0,0.0,0.0,0.0,0.0,0.0,0.0,0.0,0.0,0.0,0.0,0.0,0.0,0.0,0.0,0.0,0.0,0.0,0.0,0.0,0.0,0.0,0.0,0.0,0.0,0.0,0.0,0.0,0.0,0.0,0.0,0.0,0.0,0.0,0.0,0.0,0.0,0.0,0.0,0.0,0.0,0.0,0.0,0.0,0.0,0.0,0.0,0.0,0.0,0.0,0.0,0.0,0.0,0.0,0.0,0.0,0.0,0.0,0.0,0.0,0.0,0.0,0.0,0.0,0.0,0.0,0.0,0.0,0.0,0.0,0.0,0.0,0.0,0.0,0.0,0.0,0.0,0.0,0.0,0.0,0.0,0.0,0.0,1.3604,1.3794,1.4478,1.4387,1.4818,1.5869,0.0,0.0,0.0,0.0,0.0,0.0,0.0,0.0,0.0,0.0,0.0,0.0,0.0,0.0,0.0,0.0,0.0,0.0,0.0,0.0,0.0,0.0,0.0,0.0,0.0,0.0,0.0,0.0,0.0,0.0,0.0,0.0,0.0,0.0,0.0,0.0,0.0,0.0,0.0,0.0,0.0,0.0,0.0,0.0,0.0,0.0,0.0,0.0,0.0,0.0,0.0,0.0,0.0,0.0,0.0,0.0,0.0,0.0,0.0,0.0,0.0,0.0,0.0,0.0,0.0,0.0,0.0,0.0,0.0,0.0,0.0,0.0,0.0,0.0,0.0,0.0,0.0,0.0,0.0,0.0,0.0,0.0,0.0,0.0,0.0,0.0,0.0,0.0,0.0,0.0,0.0,0.0,0.0,0.0,0.0,0.0,0.0,0.0,0.0,0.0,0.0,0.0,0.0,0.0,0.0,0.0,0.0,0.0,1.5452,1.4566,1.4541,1.554,1.5113,1.5364,0.0,0.0,0.0,0.0,0.0,0.0,0.0,0.0,0.0,0.0,0.0,0.0,0.0,0.0,0.0,0.0,0.0,0.0,0.0,0.0,0.0,0.0,0.0,0.0,0.0,0.0,0.0,0.0,0.0,0.0,0.0,0.0,0.0,0.0,0.0,0.0,0.0,0.0,0.0,0.0,0.0,0.0,0.0,0.0,0.0,0.0,0.0,0.0,0.0,0.0,0.0,0.0,0.0,0.0,0.0,0.0,0.0,0.0,0.0,0.0,0.0,0.0,0.0,0.0,0.0,0.0,0.0,0.0,0.0,0.0,0.0,0.0,0.0,0.0,0.0,0.0,0.0,0.0,0.0,0.0,0.0,0.0,0.0,0.0,0.0,0.0,0.0,0.0,0.0,0.0,0.0,0.0,0.0,0.0,0.0,0.0,0.0,0.0,0.0,0.0,0.0,0.0,0.0,0.0,0.0,0.0,0.0,0.0,0.0,1.4055,1.4079,1.445,1.5135,1.4686,1.5047,0.0,0.0,0.0,0.0,0.0,0.0,0.0,0.0,0.0,0.0,0.0,0.0,0.0,0.0,0.0,0.0,0.0,0.0,0.0,0.0,0.0,0.0,0.0,0.0,0.0,0.0,0.0,0.0,0.0,0.0,0.0,0.0,0.0,0.0,0.0,0.0,0.0,0.0,0.0,0.0,0.0,0.0,0.0,0.0,0.0,0.0,0.0,0.0,0.0,0.0,0.0,0.0,0.0,0.0,0.0,0.0,0.0,0.0,0.0,0.0,0.0,0.0,0.0,0.0,0.0,0.0,0.0,0.0,0.0,0.0,0.0,0.0,0.0,0.0,0.0,0.0,0.0,0.0,0.0,0.0,0.0,0.0,0.0,0.0,0.0,0.0,0.0,0.0,0.0,0.0,0.0,0.0,0.0,0.0,0.0,0.0,0.0,0.0,0.0,0.0,0.0,0.0,0.0,0.0,0.0,0.0,0.0,0.0,0.0,1.3751,0.0,1.4727,1.4868,1.4538,1.4859,0.0,0.0,0.0,0.0,0.0,0.0,0.0,0.0,0.0,0.0,0.0,0.0,0.0,0.0,0.0,0.0,0.0,0.0,0.0,0.0,0.0,0.0,0.0,0.0,0.0,0.0,0.0,0.0,0.0,0.0,0.0,0.0,0.0,0.0,0.0,0.0,0.0,0.0,0.0,0.0,0.0,0.0,0.0,0.0,0.0,0.0,0.0,0.0,0.0,0.0,0.0,0.0,0.0,0.0,0.0,0.0,0.0,0.0,0.0,0.0,0.0,0.0,0.0,0.0,0.0,0.0,0.0,0.0,0.0,0.0,0.0,0.0,0.0,0.0,0.0,0.0,0.0,0.0,0.0,0.0,0.0,0.0,0.0,0.0,0.0,0.0,0.0,0.0,0.0,0.0,0.0,0.0,0.0,0.0,0.0,0.0,0.0,0.0,0.0,0.0,0.0,0.0,0.0,0.0,0.0,0.0,0.0,0.0,1.3763,1.4808,1.5364,1.5389,1.4944,1.4906,1.4919,0.0,0.0,0.0,0.0,0.0,0.0,0.0,0.0,0.0,0.0,0.0,0.0,0.0,0.0,0.0,0.0,0.0,0.0,0.0,0.0,0.0,0.0,0.0,0.0,0.0,0.0,0.0,0.0,0.0,0.0,0.0,0.0,0.0,0.0,0.0,0.0,0.0,0.0,0.0,0.0,0.0,0.0,0.0,0.0,0.0,0.0,0.0,0.0,0.0,0.0,0.0,0.0,0.0,0.0,0.0,0.0,0.0,0.0,0.0,0.0,0.0,0.0,0.0,0.0,0.0,0.0,0.0,0.0,0.0,0.0,0.0,0.0,0.0,0.0,0.0,0.0,0.0,0.0,0.0,0.0,0.0,0.0,0.0,0.0,0.0,0.0,0.0,0.0,0.0,0.0,0.0,0.0,0.0,0.0,0.0,0.0,0.0,0.0,0.0,0.0,0.0,0.0,0.0,0.0,0.0,0.0,0.0,0.0,0.0,1.3754,1.467,1.5424,1.5957,1.5286,1.5636,0.0,0.0,0.0,0.0,0.0,0.0,0.0,0.0,0.0,0.0,0.0,0.0,0.0,0.0,0.0,0.0,0.0,0.0,0.0,0.0,0.0,0.0,0.0,0.0,0.0,0.0,0.0,0.0,0.0,0.0,0.0,0.0,0.0,0.0,0.0,0.0,0.0,0.0,0.0,0.0,0.0,0.0,0.0,0.0,0.0,0.0,0.0,0.0,0.0,0.0,0.0,0.0,0.0,0.0,0.0,0.0,0.0,0.0,0.0,0.0,0.0,0.0,0.0,0.0,0.0,0.0,0.0,0.0,0.0,0.0,0.0,0.0,0.0,0.0,0.0,0.0,0.0,0.0,0.0,0.0,0.0,0.0,0.0,0.0,0.0,0.0,0.0,0.0,0.0,0.0,0.0,0.0,0.0,0.0,0.0,0.0,0.0,0.0,0.0,0.0,0.0,0.0,0.0,0.0,0.0,0.0,0.0,0.0,0.0,1.4807,1.5454,1.603,1.6509,1.5844,1.6045,1.7187,0.0,0.0,0.0,0.0,0.0,0.0,0.0,0.0,0.0,0.0,0.0,0.0,0.0,0.0,0.0,0.0,0.0,0.0,0.0,0.0,0.0,0.0,0.0,0.0,0.0,0.0,0.0,0.0,0.0,0.0,0.0,0.0,0.0,0.0,0.0,0.0,0.0,0.0,0.0,0.0,0.0,0.0,0.0,0.0,0.0,0.0,0.0,0.0,0.0,0.0,0.0,0.0,0.0,0.0,0.0,0.0,0.0,0.0,0.0,0.0,0.0,0.0,0.0,0.0,0.0,0.0,0.0,0.0,0.0,0.0,0.0,0.0,0.0,0.0,0.0,0.0,0.0,0.0,0.0,0.0,0.0,0.0,0.0,0.0,0.0,0.0,0.0,0.0,0.0,0.0,0.0,0.0,0.0,0.0,0.0,0.0,0.0,0.0,0.0,0.0,0.0,0.0,0.0,0.0,0.0,0.0,0.0,0.0,1.7475,1.7575,1.7349,1.6726,1.6638,1.6348,0.0,0.0,0.0,0.0,0.0,0.0,0.0,0.0,0.0,0.0,0.0,0.0,0.0,0.0,0.0,0.0,0.0,0.0,0.0,0.0,0.0,0.0,0.0,0.0,0.0,0.0,0.0,0.0,0.0,0.0,0.0,0.0,0.0,0.0,0.0,0.0,0.0,0.0,0.0,0.0,0.0,0.0,0.0,0.0,0.0,0.0,0.0,0.0,0.0,0.0,0.0,0.0,0.0,0.0,0.0,0.0,0.0,0.0,0.0,0.0,0.0,0.0,0.0,0.0,0.0,0.0,0.0,0.0,0.0,0.0,0.0,0.0,0.0,0.0,0.0,0.0,0.0,0.0,0.0,0.0,0.0,0.0,0.0,0.0,0.0,0.0,0.0,0.0,0.0,0.0,0.0,0.0,0.0,0.0,0.0,0.0,0.0,0.0,0.0,0.0,0.0,0.0,0.0,0.0,0.0,0.0,0.0,0.0,0.0,1.8581,1.9786,1.9949,1.897,1.8179,1.7702,0.0,0.0,0.0,0.0,0.0,0.0,0.0,0.0,0.0,0.0,0.0,0.0,0.0,0.0,0.0,0.0,0.0,0.0,0.0,0.0,0.0,0.0,0.0,0.0,0.0,0.0,0.0,0.0,0.0,0.0,0.0,0.0,0.0,0.0,0.0,0.0,0.0,0.0,0.0,0.0,0.0,0.0,0.0,0.0,0.0,0.0,0.0,0.0,0.0,0.0,0.0,0.0,0.0,0.0,0.0,0.0,0.0,0.0,0.0,0.0,0.0,0.0,0.0,0.0,0.0,0.0,0.0,0.0,0.0,0.0,0.0,0.0,0.0,0.0,0.0,0.0,0.0,0.0,0.0,0.0,0.0,0.0,0.0,0.0,0.0,0.0,0.0,0.0,0.0,0.0,0.0,0.0,0.0,0.0,0.0,0.0,0.0,0.0,0.0,0.0,0.0,0.0,0.0,0.0,0.0,0.0,0.0,0.0,1.8719,2.0024,2.1442,2.1856,2.1203,2.0376,1.9271,0.0,0.0,0.0,0.0,0.0,0.0,0.0,0.0,0.0,0.0,0.0,0.0,0.0,0.0,0.0,0.0,0.0,0.0,0.0,0.0,0.0,0.0,0.0,0.0,0.0,0.0,0.0,0.0,0.0,0.0,0.0,0.0,0.0,0.0,0.0,0.0,0.0,0.0,0.0,0.0,0.0,0.0,0.0,0.0,0.0,0.0,0.0,0.0,0.0,0.0,0.0,0.0,0.0,0.0,0.0,0.0,0.0,0.0,0.0,0.0,0.0,0.0,0.0,0.0,0.0,0.0,0.0,0.0,0.0,0.0,0.0,0.0,0.0,0.0,0.0,0.0,0.0,0.0,0.0,0.0,0.0,0.0,0.0,0.0,0.0,0.0,0.0,0.0,0.0,0.0,0.0,0.0,0.0,0.0,0.0,0.0,0.0,0.0,0.0,0.0,0.0,0.0,0.0,0.0,0.0,0.0,0.0,0.0,1.9873,2.1469,2.2621,2.3158,2.3083,2.247,2.0677,0.0,0.0,0.0,0.0,0.0,0.0,0.0,0.0,0.0,0.0,0.0,0.0,0.0,0.0,0.0,0.0,0.0,0.0,0.0,0.0,0.0,0.0,0.0,0.0,0.0,0.0,0.0,0.0,0.0,0.0,0.0,0.0,0.0,0.0,0.0,0.0,0.0,0.0,0.0,0.0,0.0,0.0,0.0,0.0,0.0,0.0,0.0,0.0,0.0,0.0,0.0,0.0,0.0,0.0,0.0,0.0,0.0,0.0,0.0,0.0,0.0,0.0,0.0,0.0,0.0,0.0,0.0,0.0,0.0,0.0,0.0,0.0,0.0,0.0,0.0,0.0,0.0,0.0,0.0,0.0,0.0,0.0,0.0,0.0,0.0,0.0,0.0,0.0,0.0,0.0,0.0,0.0,0.0,0.0,0.0,0.0,0.0,0.0,0.0,0.0,0.0,0.0,0.0,0.0,0.0,0.0,0.0,0.0,2.0238,2.1482,2.3012,2.3574,2.312,2.1771,2.0088,0.0,0.0,0.0,0.0,0.0,0.0,0.0,0.0,0.0,0.0,0.0,0.0,0.0,0.0,0.0,0.0,0.0,0.0,0.0,0.0,0.0,0.0,0.0,0.0,0.0,0.0,0.0,0.0,0.0,0.0,0.0,0.0,0.0,0.0,0.0,0.0,0.0,0.0,0.0,0.0,0.0,0.0,0.0,0.0,0.0,0.0,0.0,0.0,2.0124,0.0,0.0,0.0,0.0,0.0,0.0,0.0,0.0,0.0,0.0,0.0,0.0,0.0,0.0,0.0,0.0,0.0,0.0,0.0,0.0,0.0,0.0,0.0,0.0,0.0,0.0,0.0,0.0,0.0,0.0,0.0,0.0,0.0,0.0,0.0,0.0,0.0,0.0,0.0,0.0,0.0,0.0,0.0,0.0,0.0,0.0,0.0,0.0,0.0,0.0,0.0,0.0,0.0,0.0,0.0,0.0,0.0,0.0,0.0,2.0364,2.1481,2.3125,2.3853,2.3474,2.1683,2.0025,0.0,0.0,0.0,0.0,0.0,0.0,0.0,0.0,0.0,0.0,0.0,0.0,0.0,0.0,0.0,0.0,0.0,0.0,0.0,0.0,0.0,0.0,0.0,0.0,0.0,0.0,0.0,0.0,0.0,0.0,0.0,0.0,0.0,0.0,0.0,0.0,0.0,0.0,0.0,0.0,0.0,0.0,0.0,0.0,0.0,0.0,0.0,0.0,0.0,0.0,0.0,0.0,0.0,0.0,0.0,0.0,0.0,0.0,0.0,0.0,0.0,0.0,0.0,0.0,0.0,0.0,0.0,0.0,0.0,0.0,0.0,0.0,0.0,0.0,0.0,0.0,0.0,0.0,0.0,0.0,0.0,0.0,0.0,0.0,0.0,0.0,0.0,0.0,0.0,0.0,0.0,0.0,0.0,0.0,0.0,0.0,0.0,0.0,0.0,0.0,0.0,0.0,0.0,0.0,0.0,0.0,0.0,1.9032,2.0351,2.1507,2.3037,2.3828,2.3715,2.167,2.0075,1.9058,0.0,0.0,0.0,0.0,0.0,0.0,0.0,0.0,0.0,0.0,0.0,0.0,0.0,0.0,0.0,0.0,0.0,0.0,0.0,0.0,0.0,0.0,0.0,0.0,0.0,0.0,0.0,0.0,0.0,0.0,0.0,0.0,0.0,0.0,0.0,0.0,0.0,0.0,1.8918,1.9641,0.0,0.0,0.0,0.0,0.0,0.0,0.0,0.0,1.9723,0.0,0.0,0.0,0.0,0.0,0.0,0.0,0.0,0.0,0.0,0.0,0.0,0.0,0.0,0.0,0.0,0.0,0.0,0.0,0.0,0.0,0.0,0.0,0.0,0.0,0.0,0.0,0.0,0.0,0.0,0.0,0.0,0.0,0.0,0.0,0.0,0.0,0.0,0.0,0.0,0.0,0.0,0.0,0.0,0.0,0.0,0.0,0.0,0.0,0.0,0.0,0.0,0.0,0.0,0.0,0.0,1.8078,1.9208,2.0351,2.1482,2.2646,2.302,2.2546,2.0865,1.9647,1.8995,0.0,0.0,0.0,0.0,0.0,0.0,0.0,0.0,0.0,0.0,0.0,0.0,0.0,0.0,0.0,0.0,0.0,0.0,0.0,0.0,0.0,0.0,0.0,0.0,0.0,0.0,0.0,0.0,0.0,0.0,0.0,0.0,0.0,0.0,0.0,0.0,0.0,0.0,0.0,1.9695,1.98,0.0,0.0,0.0,0.0,0.0,0.0,0.0,0.0,1.9711,0.0,0.0,0.0,0.0,0.0,0.0,0.0,0.0,0.0,0.0,0.0,0.0,0.0,0.0,0.0,0.0,0.0,0.0,0.0,0.0,0.0,0.0,0.0,0.0,0.0,0.0,0.0,0.0,0.0,0.0,0.0,0.0,0.0,0.0,0.0,0.0,0.0,0.0,0.0,0.0,0.0,0.0,0.0,0.0,0.0,0.0,0.0,0.0,0.0,0.0,0.0,0.0,0.0,0.0,0.0,1.8569,1.9384,2.0489,2.187,2.242,2.2543,2.227,2.0413,1.9258,0.0,0.0,0.0,0.0,0.0,0.0,0.0,0.0,0.0,0.0,0.0,0.0,0.0,0.0,0.0,0.0,0.0,0.0,0.0,0.0,0.0,0.0,0.0,0.0,0.0,0.0,0.0,0.0,0.0,0.0,0.0,0.0,0.0,0.0,0.0,0.0,0.0,0.0,0.0,0.0,1.9723,1.9723,1.9723,0.0,0.0,0.0,0.0,0.0,0.0,1.9998,2.0213,0.0,0.0,0.0,0.0,0.0,0.0,0.0,0.0,0.0,0.0,0.0,0.0,0.0,0.0,0.0,0.0,0.0,0.0,0.0,0.0,0.0,0.0,0.0,0.0,0.0,0.0,0.0,0.0,0.0,0.0,0.0,0.0,0.0,0.0,0.0,0.0,0.0,0.0,0.0,0.0,0.0,0.0,0.0,0.0,0.0,0.0,0.0,0.0,0.0,0.0,0.0,0.0,0.0,0.0,0.0,1.8933,1.9535,2.0601,2.2207,2.2307,2.2187,2.1892,1.9903,1.8747,0.0,0.0,0.0,0.0,0.0,0.0,0.0,0.0,0.0,0.0,0.0,0.0,0.0,0.0,0.0,0.0,0.0,0.0,0.0,0.0,0.0,0.0,0.0,0.0,0.0,0.0,0.0,0.0,0.0,0.0,0.0,0.0,0.0,0.0,0.0,0.0,0.0,0.0,0.0,0.0,0.0,1.9723,1.9723,1.9803,0.0,0.0,0.0,0.0,1.9914,2.0572,0.0,0.0,0.0,0.0,0.0,0.0,0.0,0.0,0.0,0.0,0.0,0.0,0.0,0.0,0.0,0.0,0.0,0.0,0.0,0.0,0.0,0.0,0.0,0.0,0.0,0.0,0.0,0.0,0.0,0.0,0.0,0.0,0.0,0.0,0.0,0.0,0.0,0.0,0.0,0.0,0.0,0.0,0.0,0.0,0.0,0.0,0.0,0.0,0.0,0.0,0.0,0.0,0.0,0.0,0.0,0.0,1.8945,1.9547,2.0601,2.2207,2.2307,2.1768,2.0634,1.9048,1.7928,0.0,0.0,0.0,0.0,0.0,0.0,0.0,0.0,0.0,0.0,0.0,0.0,0.0,0.0,0.0,0.0,0.0,0.0,0.0,0.0,0.0,0.0,0.0,0.0,0.0,0.0,0.0,0.0,0.0,0.0,0.0,0.0,0.0,0.0,0.0,0.0,0.0,0.0,0.0,0.0,0.0,1.9723,1.9723,2.0208,2.0593,0.0,0.0,2.1261,2.0683,2.1645,0.0,0.0,0.0,0.0,0.0,0.0,0.0,0.0,0.0,0.0,0.0,0.0,0.0,0.0,0.0,0.0,0.0,0.0,0.0,0.0,0.0,0.0,0.0,0.0,0.0,0.0,0.0,0.0,0.0,0.0,0.0,0.0,0.0,0.0,0.0,0.0,0.0,0.0,0.0,0.0,0.0,0.0,0.0,0.0,0.0,0.0,0.0,0.0,0.0,0.0,0.0,0.0,0.0,0.0,0.0,1.7132,1.9334,1.8871,1.9686,2.1949,2.1435,2.0638,1.9673,1.8344,1.7424,0.0,0.0,0.0,0.0,0.0,0.0,0.0,0.0,0.0,0.0,0.0,0.0,0.0,0.0,0.0,0.0,0.0,0.0,0.0,0.0,0.0,0.0,0.0,0.0,0.0,0.0,0.0,0.0,0.0,0.0,0.0,0.0,0.0,0.0,0.0,0.0,0.0,0.0,0.0,0.0,0.0,0.0,2.0258,2.0842,0.0,0.0,0.0,2.2034,2.1365,0.0,0.0,0.0,0.0,0.0,0.0,0.0,0.0,0.0,0.0,0.0,0.0,0.0,0.0,0.0,0.0,0.0,0.0,0.0,0.0,0.0,0.0,0.0,0.0,0.0,0.0,0.0,0.0,0.0,0.0,0.0,0.0,0.0,0.0,0.0,0.0,0.0,0.0,0.0,0.0,0.0,0.0,0.0,0.0,0.0,0.0,0.0,0.0,0.0,0.0,0.0,0.0,0.0,0.0,0.0,0.0,0.0,1.9254,1.855,1.9213,2.1291,2.0653,1.979,1.8851,1.7489,0.0,0.0,0.0,0.0,0.0,0.0,0.0,0.0,0.0,0.0,0.0,0.0,0.0,0.0,0.0,0.0,0.0,0.0,0.0,0.0,0.0,0.0,0.0,0.0,0.0,0.0,0.0,1.8698,0.0,0.0,0.0,0.0,0.0,0.0,0.0,0.0,0.0,0.0,0.0,0.0,0.0,0.0,2.1131,2.0982,2.1655,2.2183,0.0,0.0,2.2936,2.2278,2.3266,2.3785,0.0,0.0,0.0,0.0,0.0,0.0,0.0,0.0,0.0,0.0,0.0,0.0,0.0,0.0,0.0,0.0,0.0,0.0,0.0,0.0,0.0,0.0,0.0,0.0,0.0,0.0,0.0,0.0,0.0,0.0,0.0,0.0,0.0,0.0,0.0,0.0,0.0,0.0,0.0,0.0,0.0,0.0,0.0,0.0,0.0,0.0,0.0,0.0,0.0,0.0,0.0,0.0,0.0,0.0,0.0,1.8031,1.91,1.9746,2.0048,2.0284,1.9644,1.8091,1.6301,1.5508,0.0,0.0,0.0,0.0,0.0,0.0,0.0,0.0,0.0,0.0,0.0,0.0,0.0,0.0,0.0,0.0,0.0,0.0,0.0,0.0,0.0,0.0,0.0,0.0,0.0,0.0,0.0,0.0,0.0,0.0,0.0,0.0,0.0,0.0,0.0,0.0,0.0,0.0,0.0,0.0,0.0,2.2343,2.1724,2.2682,2.3475,0.0,0.0,2.4231,2.358,2.4582,2.4848,2.3002,0.0,0.0,0.0,0.0,0.0,0.0,0.0,0.0,0.0,0.0,0.0,0.0,0.0,0.0,0.0,0.0,0.0,0.0,0.0,0.0,0.0,0.0,0.0,0.0,0.0,0.0,0.0,0.0,0.0,0.0,0.0,0.0,0.0,0.0,0.0,0.0,0.0,0.0,0.0,0.0,0.0,0.0,0.0,0.0,0.0,0.0,0.0,0.0,0.0,0.0,0.0,0.0,0.0,1.6362,1.8277,1.7496,1.7875,1.9442,1.9052,1.828,1.7217,1.6191,1.5604,0.0,0.0,0.0,0.0,0.0,0.0,0.0,0.0,0.0,0.0,0.0,0.0,0.0,0.0,0.0,0.0,0.0,0.0,0.0,0.0,0.0,0.0,0.0,0.0,0.0,0.0,0.0,0.0,1.7884,1.8161,1.838,0.0,0.0,0.0,0.0,0.0,0.0,0.0,0.0,0.0,0.0,2.2462,2.1801,2.3137,0.0,0.0,2.3933,2.4365,2.3714,2.4377,2.4601,2.3441,2.367,0.0,0.0,0.0,0.0,0.0,0.0,0.0,0.0,0.0,0.0,0.0,0.0,0.0,0.0,0.0,0.0,0.0,0.0,0.0,0.0,0.0,0.0,0.0,0.0,0.0,0.0,0.0,0.0,0.0,0.0,0.0,0.0,0.0,0.0,0.0,0.0,0.0,0.0,0.0,0.0,0.0,0.0,0.0,0.0,0.0,0.0,0.0,0.0,0.0,0.0,0.0,0.0,1.6248,1.7922,1.6835,1.7078,1.8701,1.8269,1.763,1.6725,1.6083,1.5654,0.0,0.0,0.0,0.0,0.0,0.0,0.0,0.0,0.0,0.0,0.0,0.0,0.0,0.0,0.0,0.0,0.0,0.0,0.0,0.0,0.0,0.0,0.0,0.0,0.0,0.0,0.0,0.0,1.7805,1.813,1.813,0.0,0.0,0.0,0.0,0.0,0.0,0.0,0.0,0.0,0.0,2.2463,2.1803,2.3207,2.4002,2.3146,2.3916,2.4425,2.3958,2.4291,2.4365,2.3714,0.0,0.0,0.0,0.0,0.0,0.0,0.0,0.0,0.0,0.0,0.0,0.0,0.0,0.0,0.0,0.0,0.0,0.0,0.0,0.0,0.0,0.0,0.0,0.0,0.0,0.0,0.0,0.0,0.0,0.0,1.823,0.0,0.0,0.0,0.0,0.0,0.0,0.0,0.0,0.0,0.0,0.0,0.0,0.0,0.0,0.0,0.0,0.0,0.0,0.0,0.0,0.0,0.0,1.682,1.6478,1.756,1.7944,1.7504,1.8184,1.7975,1.6735,1.5884,1.5415,1.542,0.0,0.0,0.0,0.0,0.0,0.0,0.0,0.0,0.0,0.0,0.0,0.0,0.0,0.0,0.0,0.0,0.0,0.0,0.0,0.0,0.0,0.0,0.0,0.0,0.0,0.0,1.7408,1.7884,1.8185,0.0,0.0,0.0,0.0,0.0,0.0,0.0,0.0,0.0,0.0,2.2282,2.2448,2.1803,2.2847,2.3692,2.3611,2.4161,2.4567,2.4488,2.4552,2.438,0.0,0.0,0.0,0.0,0.0,0.0,0.0,0.0,0.0,0.0,0.0,0.0,0.0,0.0,0.0,0.0,0.0,0.0,0.0,0.0,0.0,0.0,0.0,0.0,0.0,0.0,0.0,1.9258,1.9258,0.0,0.0,0.0,0.0,0.0,0.0,0.0,0.0,0.0,0.0,0.0,2.0111,2.0072,0.0,0.0,0.0,0.0,0.0,0.0,0.0,0.0,0.0,0.0,0.0,0.0,1.6603,1.6788,1.6819,1.7157,1.7771,1.7797,1.7449,1.6716,1.6152,1.5718,1.543,0.0,0.0,0.0,0.0,0.0,0.0,0.0,0.0,0.0,0.0,0.0,0.0,0.0,0.0,0.0,0.0,0.0,0.0,0.0,0.0,0.0,0.0,0.0,0.0,0.0,1.8305,0.0,0.0,0.0,0.0,0.0,0.0,0.0,0.0,0.0,0.0,0.0,2.1245,2.1659,2.1931,2.186,2.1194,2.256,2.3207,0.0,0.0,0.0,0.0,0.0,0.0,0.0,0.0,0.0,0.0,0.0,0.0,0.0,0.0,2.5177,2.3834,2.3741,2.3869,2.3869,0.0,0.0,0.0,0.0,0.0,0.0,0.0,0.0,0.0,0.0,0.0,0.0,0.0,0.0,2.0489,0.0,2.0275,0.0,0.0,0.0,0.0,0.0,0.0,0.0,0.0,2.0124,2.0534,2.1255,2.1227,2.1075,0.0,2.1105,2.0582,0.0,0.0,0.0,0.0,0.0,0.0,0.0,0.0,1.677,1.6875,1.6519,1.6846,1.7939,1.7744,1.7324,1.6716,1.6143,1.5718,1.542,1.542,1.542,0.0,0.0,0.0,0.0,0.0,0.0,0.0,0.0,0.0,0.0,0.0,0.0,0.0,0.0,0.0,0.0,0.0,0.0,0.0,0.0,0.0,0.0,0.0,1.8794,0.0,0.0,0.0,0.0,0.0,0.0,0.0,0.0,0.0,2.1037,2.0905,2.0949,2.1307,2.1218,2.1069,2.1043,0.0,0.0,0.0,0.0,0.0,0.0,0.0,2.2997,2.3124,2.3487,2.3911,2.4395,2.523,2.5709,2.5288,0.0,0.0,2.451,2.4298,2.4298,2.4298,2.4477,2.4792,2.5214,2.5136,2.5237,0.0,0.0,0.0,0.0,0.0,0.0,0.0,0.0,2.1331,2.1807,0.0,2.1193,0.0,0.0,0.0,0.0,0.0,1.9834,0.0,0.0,2.1149,2.1731,2.2228,2.2703,2.2292,2.1095,2.1822,2.0856,1.844,1.8584,0.0,0.0,0.0,0.0,0.0,0.0,1.7291,1.6721,1.6707,1.7152,1.7978,1.7998,1.7571,1.671,1.5864,1.5405,1.542,1.542,1.542,1.542,1.543,0.0,0.0,0.0,0.0,0.0,0.0,0.0,0.0,0.0,0.0,0.0,0.0,0.0,0.0,0.0,0.0,0.0,0.0,0.0,0.0,1.9359,0.0,0.0,0.0,0.0,0.0,0.0,0.0,0.0,0.0,0.0,1.995,2.0423,2.0782,2.0748,0.0,0.0,0.0,0.0,2.1826,2.2284,2.295,2.3383,2.3357,2.3396,2.3588,2.4096,0.0,0.0,2.4924,2.5061,2.5157,2.5061,2.5187,2.5216,2.5592,2.5586,2.5577,2.5604,2.612,2.6617,2.6689,2.7063,2.751,2.2445,0.0,0.0,0.0,0.0,2.1782,2.2058,2.242,2.2569,2.2508,2.2282,2.1983,0.0,0.0,0.0,0.0,0.0,0.0,2.05,2.0354,2.0301,2.0666,2.1367,2.1336,2.1213,2.1012,2.1247,2.0362,1.8519,1.8517,1.8232,1.7603,0.0,0.0,0.0,0.0,1.7113,1.675,1.7041,1.7461,1.7998,1.8008,1.7581,1.6701,1.5864,1.542,1.542,1.542,1.542,1.5405,1.5728,0.0,0.0,0.0,0.0,0.0,0.0,0.0,0.0,0.0,0.0,0.0,0.0,0.0,0.0,0.0,0.0,0.0,0.0,0.0,2.0402,2.0301,2.0301,0.0,0.0,0.0,0.0,0.0,0.0,0.0,0.0,0.0,2.1017,2.0839,2.0868,0.0,0.0,2.113,2.1469,2.1823,2.2153,2.2304,2.2818,0.0,2.319,2.3594,2.3934,2.4038,2.4692,2.5242,2.5409,2.6238,2.6762,2.6292,2.6718,2.7055,2.6652,2.6324,2.612,2.6184,2.712,2.7996,2.8051,2.8188,2.847,2.487,2.3429,2.3015,2.2985,2.3298,2.3527,2.3788,2.4114,2.434,2.4142,2.3614,2.3617,2.3185,2.2476,2.2162,0.0,0.0,0.0,2.1507,2.1044,2.1094,2.1494,2.215,2.2255,2.1955,2.1426,2.1743,2.0734,1.8572,1.8899,1.8527,1.7567,0.0,0.0,1.6379,1.7076,1.7282,1.7014,1.7412,1.7737,1.8008,1.7852,1.7493,1.6976,1.6133,1.5689,1.5664,1.5674,1.5674,1.5689,1.6084,1.6534,0.0,0.0,0.0,0.0,0.0,0.0,0.0,0.0,0.0,0.0,0.0,2.049,2.0464,0.0,0.0,0.0,2.049,2.0602,2.0993,2.1005,0.0,0.0,0.0,0.0,0.0,0.0,0.0,2.1481,2.1481,2.1581,2.1782,2.1545,2.1457,2.1769,2.1645,2.1644,2.2083,0.0,2.2458,2.2912,2.3248,2.3534,2.3735,2.4116,2.4433,2.4595,2.5364,2.5929,2.5984,2.6704,2.6976,2.6531,2.6905,2.7203,2.656,2.6634,2.6916,2.7098,2.8038,2.8917,2.9259,2.9564,2.988,2.7198,2.6675,2.5636,2.5118,2.5042,2.5523,2.5766,2.5837,2.6386,2.6277,2.5737,2.5632,2.4959,2.3873,2.3916,0.0,2.2289,2.2805,2.2734,2.2284,2.2771,2.329,2.3845,2.4312,2.3664,2.201,2.281,2.1652,1.8899,1.9579,1.9117,1.754,1.7769,1.7343,1.6318,1.7312,1.7744,1.7513,1.79,1.8079,1.803,1.7617,1.7399,1.7389,1.6594,1.6144,1.6128,1.6144,1.6144,1.6163,1.6543,1.6739,1.6771,0.0,0.0,0.0,0.0,0.0,0.0,0.0,0.0,0.0,0.0,0.0,0.0,0.0,0.0,0.0,2.1481,0.0,2.1556,2.1556,0.0,0.0,0.0,2.1619,2.1619,2.1633,2.162,2.1631,0.0,0.0,2.2307,2.2357,2.237,2.237,2.1945,2.1968,2.2955,2.2671,2.2759,2.3778,2.3979,2.4192,2.4603,2.4736,2.4928,2.5414,2.6047,2.6273,2.6323,2.6302,2.6122,2.5648,2.6051,2.6282,2.569,2.6662,2.7736,2.8005,2.8813,2.961,3.0241,3.0886,3.1316,2.9145,2.8994,2.8725,2.7883,2.6733,2.6846,2.713,2.7519,2.7657,2.7419,2.6852,2.5967,2.4517,2.2708,2.3134,2.2779,2.1881,2.2395,2.2405,2.201,2.2141,2.2261,2.2402,2.2544,2.2361,2.1948,2.213,2.15,2.0175,2.0325,1.9694,1.8398,1.873,1.8323,1.7171,1.7961,1.8394,1.8295,1.8769,1.8801,1.8442,1.7764,1.7399,1.7389,1.6855,1.6557,1.6557,1.6566,1.6557,1.6566,1.6992,1.7236,1.7243,1.7929,0.0,0.0,0.0,0.0,0.0,0.0,0.0,0.0,0.0,2.1481,2.1481,0.0,2.1481,0.0,2.1481,2.167,2.2071,2.2106,0.0,0.0,2.2706,2.2706,2.2706,2.2719,2.2734,2.2734,2.2719,2.2769,2.2895,2.2907,2.2907,2.2907,2.2782,2.2819,2.307,2.3007,2.316,2.3825,2.3991,2.4192,2.4691,2.4816,2.4967,2.5511,2.5398,2.5347,2.5737,2.5473,2.5159,2.5042,2.5448,2.5699,2.5611,2.6266,2.6832,2.7278,2.8735,3.0113,3.0336,3.094,3.1481,2.8771,2.8331,2.8323,2.7796,2.6976,2.7448,2.782,2.807,2.7611,2.6938,2.6132,2.5268,2.4478,2.3818,2.408,2.3673,2.2787,2.3284,2.3124,2.2463,2.242,2.2441,2.2451,2.242,2.2344,2.2168,2.2168,2.1837,2.1202,2.1192,2.0605,1.9521,1.9941,1.96,1.8582,1.8771,1.8908,1.8936,1.916,1.9268,1.9162,1.8361,1.7939,1.793,1.7327,1.7021,1.7005,1.7005,1.7005,1.7041,1.7432,1.7656,1.7683,1.8052,1.8443,0.0,0.0,0.0,0.0,0.0,0.0,0.0,0.0,0.0,0.0,0.0,2.2192,2.2234,2.2219,2.2332,2.2633,2.2897,2.3173,2.3474,2.3512,2.3499,2.3496,2.3258,2.3095,2.3095,2.3095,2.3095,2.3095,2.3095,2.3095,2.3095,2.3095,2.3095,2.3095,2.3095,2.3308,2.3876,2.3991,2.4192,2.4716,2.4816,2.4892,2.5159,2.5005,2.4904,2.5197,2.5005,2.4725,2.4528,2.4879,2.5247,2.5272,2.5485,2.5877,2.6378,2.7418,2.8559,2.9223,2.9916,3.0374,2.7351,2.6504,2.6483,2.6483,2.6554,2.734,2.7763,2.7835,2.6903,2.5871,2.4787,2.4315,2.4541,2.5275,2.5275,2.4766,2.3929,2.4376,2.4049,2.3113,2.3101,2.3101,2.3101,2.3101,2.2906,2.2576,2.2576,2.2373,2.1993,2.1993,2.1573,2.082,2.1054,2.0859,2.0176,1.9746,1.9512,1.9471,1.9413,1.9551,1.9874,1.9064,1.8598,1.8568,1.7871,1.7477,1.7477,1.7477,1.7477,1.7487,1.7796,1.8008,1.8008,1.8008,1.8344,0.0,1.9133,0.0,0.0,0.0,0.0,0.0,0.0,0.0,0.0,2.3047,2.3133,2.3195,2.3221,2.3246,2.3293,2.38,2.4104,2.4089,2.4042,2.3991,2.3966,2.3474,2.3095,2.3095,2.3095,2.3095,2.3095,2.3095,2.3095,2.3095,2.3095,2.3095,2.3095,2.3095,2.3283,2.3813,2.3879,2.3963,2.4377,2.4512,2.4566,2.4653,2.4562,2.4616,2.4678,2.4603,2.4428,2.4051,2.4315,2.4678,2.4704,2.4754,2.4954,2.5341,2.5774,2.6505,2.7745,2.8584,2.8908,2.6678,2.6504,2.6483,2.6483,2.6462,2.5734,2.5953,2.6792,2.6575,2.586,2.4798,2.4682,2.4258,2.3594,2.3572,2.3474,2.3268,2.3369,2.3309,2.3101,2.3101,2.3101,2.3101,2.3101,2.3052,2.2984,2.2984,2.2781,2.2402,2.2402,2.2139,2.1661,2.1357,2.1308,2.1475,0.0,0.0,0.0,1.9971,1.9834,1.9864,1.9054,1.8598,1.8588,1.8137,0.0,1.7891,1.7874,1.7874,1.79,1.7969,0.0,0.0,0.0,0.0,0.0,0.0,0.0,0.0,0.0,0.0,0.0,2.0422,2.1381,2.2079,2.2705,2.3308,2.3763,2.3828,2.4001,2.4424,2.4578,2.4653,2.4641,2.4264,2.3991,2.3979,2.3474,2.3095,2.3095,2.3095,2.3095,2.3095,2.3095,2.3095,2.3095,2.3095,2.3095,2.3095,2.3095,2.316,2.3258,2.3323,2.3308,2.3396,2.3459,2.3697,2.3938,2.3712,2.3662,2.4014,2.3735,2.3446,2.3311,2.3763,2.4139,2.418,2.4478,2.4669,2.4368,2.4712,2.5461,2.6844,2.7771,2.8486,2.5958,2.5469,2.527,2.5176,0.0,2.4313,2.4285,2.4829,2.4808,2.4489,2.3963,2.3941,2.3659,2.3101,2.3101,2.3101,2.3101,2.3101,2.3101,2.3101,2.3101,2.3101,2.3101,2.3101,2.3101,2.3101,2.3101,2.3015,2.281,2.281,2.2586,2.2187,2.1973,2.1875,2.1875,2.167,2.1338,2.0898,2.0459,2.0234,2.0205,1.9609,1.9134,1.8947,1.8527,0.0,0.0,0.0,0.0,0.0,0.0,0.0,0.0,1.8008,0.0,1.8008,1.8008,1.8088,1.8301,1.8704,1.9062,1.9292,2.0117,2.1085,2.2218,2.2862,2.3522,2.4321,2.4406,2.4503,2.4763,2.503,2.5193,2.5168,2.4704,2.439,2.4315,2.3622,2.3108,2.3095,2.3095,2.3095,2.3095,2.3095,2.3095,2.3095,2.3095,2.3095,2.3095,2.3095,2.3095,2.3095,2.3095,2.3108,2.3095,2.3095,2.317,2.3449,2.3296,2.3246,2.3499,2.3308,2.3095,2.312,2.3358,2.3612,2.3929,2.4001,2.3948,2.3991,2.3976,2.4274,2.5299,2.6248,2.7101,2.5242,2.4362,2.4043,2.3919,2.3867,2.3493,2.3286,2.3208,0.0,0.0,0.0,2.3296,2.3276,2.324,2.323,2.3169,2.3101,2.3101,2.3101,2.3101,2.3101,2.3101,2.3101,2.3101,2.3101,2.3101,2.3101,2.3101,2.3101,2.3101,2.2947,2.2625,2.2537,2.2344,2.2042,2.2013,2.1787,2.1337,2.0908,2.0664,2.0595,2.0137,1.9746,1.9404,1.8966,1.8537,1.8144,1.8193,1.8193,1.8118,1.8193,1.8242,1.8215,1.8225,1.8232,1.8215,1.8215,1.8361,1.8695,1.8724,1.8888,1.9286,2.0026,2.1063,2.2454,2.2876,2.3437,2.4337,2.4427,2.4464,2.4562,2.514,2.5502,2.5485,2.5157,2.4942,2.4879,2.4036,2.3474,2.3396,2.3459,2.3396,2.3446,2.3346,2.3273,2.3246,2.3195,2.3095,2.3095,2.3095,2.3095,2.3095,2.3095,2.3095,2.3095,2.3095,2.3095,2.3133,2.312,2.3095,2.3095,2.3095,2.3095,2.3095,2.3095,2.3308,2.3703,2.3487,2.3283,2.3738,2.3461,2.3283,2.3888,2.4682,2.5493,2.4552,2.4381,2.4332,2.4303,2.4303,2.4245,2.401,2.3711,2.3701,2.3724,2.3721,2.4082,2.4033,2.3691,2.3691,2.3474,2.3101,2.3101,2.3101,2.3101,2.3101,2.3101,2.3101,2.3101,2.3101,2.3101,2.3101,2.3101,2.3101,2.3101,2.3074,2.2964,2.2674,2.2469,2.2422,2.2432,2.2217,2.1797,2.1347,2.0947,2.0605,2.0146,1.9893,1.9814,1.9414,1.8994,1.8529,1.8888,1.8936,1.8539,1.8906,1.9111,1.9102,1.9082,1.9111,1.9129,1.912,1.9149,1.9208,1.9189,1.9247,1.9315,1.972,2.0565,2.1876,2.2065,2.2347,2.2917,2.309,2.3173,2.366,2.4519,2.5038,2.5067,2.531,2.5481,2.5336,2.4794,2.4379,2.4398,2.4562,2.4483,2.4362,2.4076,2.3816,2.3763,2.3358,2.3095,2.3095,2.3095,2.3095,2.3095,2.3095,2.3095,2.3095,2.3095,2.3095,2.3095,2.3095,2.3095,2.3095,2.3095,2.3095,2.3095,2.3095,2.3145,2.3258,2.3183,2.3158,2.3296,2.3158,2.3296,2.3828,2.4142,2.4431,2.5113,2.5074,2.4873,2.4789,2.4769,2.4512,2.4284,2.416,2.4408,2.4242,2.3818,2.3994,2.4102,2.4131,2.4131,2.3991,2.3806,2.3571,2.3496,2.3477,2.3208,2.3101,2.3101,2.3101,2.3101,2.3101,2.3101,2.3101,2.3101,2.3101,2.3101,2.3081,2.2918,2.283,2.283,2.283,2.2518,2.1894,2.1435,2.0996,2.0615,2.039,2.0166,1.9922,1.9698,1.9424,1.8996,1.918,1.9199,1.8994,1.918,1.9277,1.9277,1.9277,1.9277,1.9277,1.9277,1.9394,1.9609,1.9862,1.9999,2.0009,2.0175,2.0528,2.1145,2.1664,2.2284,2.3041,2.3153,2.3232,2.3474,2.3938,2.4192,2.4174,2.4102,2.4041,2.3964,2.3546,2.3435,2.3878,2.3993,2.4087,2.4342,2.4155,2.3841,2.3587,2.3233,2.3095,2.3095,2.3095,2.3095,2.3095,2.3095,2.3095,2.3095,2.3095,2.3095,2.3095,2.3095,2.3095,2.3095,2.3095,2.3095,2.3095,2.3095,2.3095,2.3095,2.3095,2.3095,2.3095,2.3095,2.3273,2.3461,2.3512,2.3825,2.5708,2.5669,2.5361,2.5239,2.5209,2.4746,2.456,2.459,2.4838,2.4623,2.4154,2.4202,2.4355,2.4551,2.456,2.4512,2.4375,2.4082,2.3877,2.376,2.3415,2.3188,2.3101,2.3101,2.3101,2.3101,2.3101,2.3101,2.3101,2.3101,2.3101,2.3101,2.3101,2.3101,2.3101,2.3101,2.2752,2.2051,2.1581,2.1113,2.0635,2.0596,2.0429,2.0088,2.0059,1.9882,1.9463,1.9521,1.955,1.9434,1.9521,1.958,1.9599,1.9599,1.9589,1.9599,1.9599,1.9735,2.0039,2.039,2.0596,2.0596,2.0596,2.0605,2.0663,2.127,2.2,2.2702,2.2747,2.2765,2.2787,2.3036,2.3165,2.3132,2.3027,2.3024,2.2856,2.2501,2.2505,2.3229,2.3349,2.3502,2.3741,2.3675,2.3327,2.2917,2.2975,2.3095,2.3095,2.3095,2.3095,2.3095,2.3095,2.3095,2.3095,2.3095,2.3095,2.3095,2.3095,2.3095,2.3095,2.3095,2.3095,2.3095,2.3095,2.3095,2.3095,2.3095,2.3095,2.3095,2.3095,2.3108,2.3145,2.3145,2.3346,2.5708,2.5708,2.565,2.565,2.5581,2.5209,2.5033,2.4984,2.4658,2.4678,2.4984,2.5381,2.5322,2.5063,2.5024,2.4838,2.444,2.4362,2.415,2.3828,2.375,2.3516,2.3142,2.3101,2.3101,2.3101,2.3101,2.3101,2.3101,2.3101,2.3101,2.3101,2.3101,2.3101,2.3101,2.3101,2.2867,2.2461,2.2041,2.1436,2.0644,2.0596,2.0566,2.0556,2.0517,2.0322,1.9864,2.0253,2.0273,1.9932,2.0234,2.0468,2.0468,2.0459,2.0459,2.0439,2.0468,2.0488,2.0517,2.0576,2.0596,2.0596,2.0596,2.0596,2.0596,2.0683,2.077,2.0972,2.0915,2.1011,2.0944,2.165,2.214,2.2188,2.2778,2.3429,2.3238,2.3395,2.338,2.3453,2.334,2.3492,2.3419,2.2839,2.2261,2.2252,2.2696,2.3052,2.3095,2.3095,2.3095,2.3095,2.3095,2.3095,2.3095,2.3095,2.3095,2.3095,2.3095,2.3095,2.3095,2.3095,2.3095,2.3095,2.3095,2.3095,2.3095,2.3095,2.3095,2.3095,2.3095,2.3095,2.3095,2.3095,2.3233,2.5708,2.5708,2.5708,2.5708,2.5679,2.5503,2.5445,2.5439,2.5259,2.5279,2.5469,2.564,2.561,2.5435,2.5469,2.5337,2.5152,2.4635,2.4336,2.4111,2.363,2.3288,2.311,2.3101,2.3101,2.3101,2.3101,2.3101,2.3101,2.3101,2.3101,2.3101,2.3101,2.3101,2.3101,2.3101,2.2886,2.2519,2.21,2.1582,2.1006,2.0713,2.0596,2.0596,2.0596,2.0537,2.0361,2.0517,2.0517,2.0341,2.0507,2.0596,2.0596,2.0596,2.0596,2.0596,2.0596,2.0596,2.0596,2.0596,2.0596,2.0596,2.0596,2.0596,2.0596,2.0596,2.0596,2.0596,2.0596,2.0596,2.0644,2.0953,2.1164,2.1231,2.1546,2.1802,2.1783,2.1813,2.1954,2.2478,2.2609,2.2731,2.2868,2.2396,2.2077,2.2199,2.2586,2.2802,2.3047,2.3095,2.3095,2.3095,2.3095,2.3095,2.3095,2.3095,2.3095,2.3095,2.3095,2.3095,2.3095,2.3095,2.3095,2.3095,2.3095,2.3095,2.3095,2.3095,2.3095,2.3095,2.3095,2.3095,2.3095,2.3095,2.3095,2.5708,2.5708,2.5708,2.5708,2.5698,2.5571,2.5625,2.5689,2.5591,2.5601,2.5708,2.5708,2.5708,2.5708,2.5708,2.5708,2.562,2.5045,2.4615,2.4362,2.3747,2.3335,2.312,2.3101,2.3101,2.3101,2.3101,2.3101,2.3101,2.3101,2.3101,2.3101,2.3101,2.3101,2.3101,2.3101,2.2976,2.2664,2.2266,2.1894,2.1552,2.1172,2.086,2.0635,2.0596,2.0596,2.0596,2.0596,2.0596,2.0605,2.0596,2.0596,2.0596,2.0596,2.0596,2.0596,2.0596,2.0644,2.0752,2.0674,2.0664,2.0742,2.0664,2.0596,2.0596,2.0596,2.0596,2.0596,2.0596,2.0596,2.0596,2.0596,2.0596,2.0596,2.0596,2.0596,2.0644,2.0596,2.0915,2.1498,2.1612,2.1682,2.1839,2.1767,2.1822,2.2235,2.2422,2.2735,2.3151,2.3233,2.3095,2.3095,2.3095,2.3095,2.3095,2.3095,2.3095,2.3095,2.3095,2.3095,2.3095,2.3095,2.3095,2.3095,2.3095,2.3095,2.3095,2.3095,2.3095,2.3095,2.3095,2.3095,2.3095,2.3095,2.3095,2.5708,2.5708,2.5708,2.5698,2.5669,2.5293,2.5352,2.565,2.5303,2.5342,2.5679,2.5708,2.5708,2.5708,2.5708,2.5708,2.5708,2.5601,2.5123,2.4453,2.4316,2.3874,2.313,2.3101,2.3101,2.3101,2.3101,2.3101,2.3101,2.3101,2.3101,2.3101,2.3101,2.3101,2.3101,2.3101,2.3091,2.2984,2.2635,2.242,2.2352,2.2012,2.1397,2.0742,2.0625,2.0625,2.0605,2.0596,2.0596,2.0596,2.0596,2.0596,2.0596,2.0596,2.0596,2.0596,2.0596,2.0772,2.1025,2.0781,2.0742,2.1015,2.0781,2.0596,2.0596,2.0596,2.0596,2.0596,2.0596,2.0596,2.0596,2.0596,2.0596,2.0596,2.0596,2.0596,2.0596,2.0596,2.0596,2.0722,2.0789,2.0727,2.0273,2.0749,2.1378,2.1881,2.2261,2.2731,2.3368,2.3323,2.3145,2.3095,2.3095,2.3095,2.3095,2.3095,2.3095,2.3095,2.3095,2.3095,2.3095,2.3095,2.3095,2.3095,2.3095,2.3095,2.3095,2.3095,2.3095,2.3095,2.3095,2.3095,2.3095,2.3095,2.3095,2.5708,2.5708,2.5708,2.5552,2.5303,2.5151,2.519,2.5283,2.516,2.5312,2.5659,2.5708,2.5708,2.5708,2.5708,2.5708,2.5664,2.5439,2.498,2.4401,2.4141,2.3679,2.3149,2.3101,2.3101,2.3101,2.3101,2.3101,2.3101,2.3101,2.3101,2.3101,2.3101,2.3101,2.3101,2.3101,2.3101,2.3052,2.2703,2.2488,2.2469,2.212,2.1739,2.1446,2.1133,2.0976,2.0996,2.0742,2.0596,2.0596,2.0596,2.0596,2.0596,2.0596,2.0596,2.0596,2.0596,2.0654,2.0781,2.0684,2.0664,2.0781,2.0684,2.0596,2.0596,2.0596,2.0596,2.0596,2.0596,2.0596,2.0596,2.0596,2.0596,2.0596,2.0596,2.0596,2.0596,2.0596,2.0596,2.0596,2.0586,2.0508,2.0448,2.0619,2.0883,2.1119,2.1685,2.2281,2.2629,2.2858,2.3113,2.3108,2.3095,2.3095,2.3095,2.3095,2.3095,2.3095,2.3095,2.3095,2.3095,2.3095,2.3095,2.3095,2.3095,2.3095,2.3095,2.3095,2.3095,2.3095,2.3095,2.3095,2.3095,2.3095,2.3095,2.5289,2.5265,2.5265,2.5146,2.4896,2.4887,2.4887,2.4906,2.5024,2.5244,2.5484,2.564,2.5708,2.5679,2.5571,2.5493,2.5464,2.5195,2.4848,2.4404,2.3984,2.3564,2.3181,2.3101,2.3101,2.3101,2.3101,2.3101,2.3101,2.3101,2.3101,2.3101,2.3101,2.3101,2.3101,2.3101,2.3101,2.3033,2.283,2.2693,2.2654,2.242,2.2285,2.2176,2.1748,2.1347,2.121,2.082,2.0596,2.0596,2.0596,2.0596,2.0615,2.0723,2.0781,2.0791,2.0947,2.1075,2.1153,2.0937,2.0869,2.0977,2.0732,2.0596,2.0596,2.0596,2.0596,2.0596,2.0596,2.0596,2.0596,2.0596,2.0596,2.0596,2.0596,2.0596,2.0596,2.0596,2.0596,2.0596,2.0596,2.0586,2.0596,2.0605,2.0949,2.1402,2.1748,2.1854,2.2922,2.3027,2.3245,2.336,2.3421,2.3336,2.3183,2.3095,2.3095,2.3095,2.3095,2.3095,2.3095,2.3095,2.3095,2.3095,2.3095,2.3095,2.3095,2.3095,2.3095,2.3095,2.3095,2.3095,2.3095,2.3095,2.3095,2.442,2.4469,2.4434,2.4473,2.4401,2.4424,2.4401,2.4473,2.4838,2.5004,2.5121,2.5474,2.561,2.5571,2.5273,2.5121,2.5072,2.4984,2.474,2.4326,2.3975,2.3542,2.3132,2.3101,2.3101,2.3101,2.3101,2.3101,2.3101,2.3101,2.3101,2.3101,2.3101,2.3101,2.3101,2.3101,2.3101,2.3081,2.3042,2.3052,2.3091,2.3025,2.2976,2.2886,2.2246,2.1641,2.123,2.082,2.0625,2.0654,2.0596,2.0596,2.0644,2.0937,2.1191,2.123,2.1592,2.2012,2.2225,2.163,2.1416,2.1582,2.1104,2.0752,2.0791,2.0742,2.0713,2.0674,2.0654,2.0615,2.0605,2.0596,2.0596,2.0596,2.0596,2.0596,2.0596,2.0596,2.0596,2.0596,2.0596,2.0596,2.0596,2.0596,2.1101,2.2051,2.1976,2.2036,2.3853,2.365,2.351,2.38,2.3728,2.3436,2.3246,2.3095,2.3095,2.3095,2.3095,2.3095,2.3095,2.3095,2.3095,2.3095,2.3095,2.3095,2.3095,2.3095,2.3095,2.3095,2.3095,2.3095,2.3095,2.3095,2.3095,2.4424,2.4424,2.4424,2.4238,2.4004,2.3984,2.3984,2.4017,2.4163,2.4369,2.4658,2.5088,2.5117,2.4918,2.4971,2.4926,2.4609,2.4359,2.4111,2.3975,2.3838,2.3532,2.3191,2.3101,2.3101,2.3101,2.3101,2.3101,2.3101,2.3101,2.3101,2.3101,2.3101,2.3101,2.3101,2.3101,2.3101,2.3101,2.3101,2.3101,2.3101,2.3101,2.2974,2.2664,2.2168,2.168,2.123,2.082,2.0742,2.0966,2.0752,2.0596,2.0674,2.0996,2.121,2.1259,2.165,2.1924,2.2042,2.1865,2.1738,2.1816,2.1632,2.1524,2.1495,2.1466,2.1318,2.1084,2.1005,2.0928,2.0674,2.0596,2.0625,2.0596,2.0596,2.0596,2.0596,2.0596,2.0596,2.0596,2.0596,2.0596,2.0596,2.0596,2.0796,2.1188,2.1176,2.1909,2.2754,2.3211,2.3159,2.3788,2.3592,2.3597,2.3484,2.3384,2.3333,2.3296,2.3246,2.312,2.3095,2.3095,2.3095,2.3095,2.3095,2.3095,2.3095,2.3095,2.3095,2.3095,2.3095,2.3095,2.3095,2.3095,2.3095,2.3913,2.3923,2.3923,2.3776,2.3555,2.3523,2.3532,2.3574,2.373,2.3935,2.4248,2.4639,2.4687,2.4482,2.4551,2.4443,2.415,2.374,2.3523,2.3555,2.3523,2.3367,2.311,2.3101,2.3101,2.3101,2.3101,2.3101,2.3101,2.3101,2.3101,2.3101,2.3101,2.3101,2.3101,2.3101,2.3101,2.3101,2.3101,2.3101,2.3101,2.3101,2.2918,2.2529,2.2109,2.1846,2.1649,2.1143,2.0937,2.1123,2.0957,2.082,2.085,2.123,2.1523,2.1747,2.2069,2.2342,2.2334,2.2227,2.2119,2.2109,2.1973,2.1905,2.1905,2.1915,2.1728,2.1543,2.1454,2.1299,2.0947,2.082,2.0772,2.0596,2.0596,2.0596,2.0596,2.0596,2.0596,2.0596,2.0596,2.0596,2.0596,2.0595,2.069,2.0679,2.0835,2.1536,2.2176,2.2811,2.3327,2.39,2.4279,2.4163,2.3844,2.3697,2.3584,2.3509,2.3446,2.3246,2.3095,2.3095,2.3095,2.3095,2.3095,2.3095,2.3095,2.3095,2.3095,2.3095,2.3095,2.3095,2.3095,2.3095,2.3095,2.311,2.3101,2.311,2.3149,2.313,2.313,2.3171,2.3179,2.3545,2.3743,2.3848,2.4199,2.4313,2.4215,2.4014,2.3877,2.3691,2.3376,2.3169,2.3159,2.3149,2.312,2.3101,2.3101,2.3101,2.3101,2.3101,2.3101,2.3101,2.3101,2.3101,2.3101,2.3101,2.3101,2.3101,2.3101,2.3101,2.3101,2.3101,2.3101,2.3101,2.3101,2.2918,2.2508,2.2178,2.207,2.2139,2.1669,2.1308,2.1279,2.1269,2.1249,2.1327,2.168,2.209,2.2371,2.2859,2.2974,2.2964,2.2703,2.2549,2.2519,2.2266,2.1963,2.208,2.215,2.2081,2.1934,2.1886,2.166,2.1279,2.1084,2.0928,2.0674,2.0596,2.0596,2.0596,2.0596,2.0596,2.0596,2.0596,2.0596,2.0596,2.0596,2.0952,2.1296,2.1065,2.1546,2.2452,2.2969,2.3517,2.4001,2.4426,2.4483,2.409,2.4161,2.4089,2.4048,2.3923,2.3659,2.3271,2.3183,2.3108,2.3095,2.3095,2.3095,2.3095,2.3095,2.3095,2.3095,2.3095,2.3095,2.3095,2.3095,2.3095,2.3101,2.3101,2.3101,2.3101,2.3101,2.3101,2.3101,2.311,2.323,2.3318,2.3386,2.376,2.3767,2.3493,2.3711,2.3623,2.3337,2.3181,2.3101,2.3101,2.3101,2.3101,2.3101,2.3101,2.3101,2.3101,2.3101,2.3101,2.3101,2.3101,2.3101,2.3101,2.3101,2.3101,2.3101,2.3101,2.3101,2.3101,2.3101,2.3101,2.3101,2.3101,2.2908,2.2527,2.2371,2.2236,2.2129,2.2127,2.1991,2.1738,2.1719,2.1729,2.1748,2.21,2.2383,2.2547,2.2869,2.3101,2.3071,2.2984,2.2925,2.2925,2.2781,2.2791,2.2791,2.2781,2.2656,2.2402,2.21,2.1738,2.1288,2.0967,2.0742,2.0625,2.0596,2.0596,2.0596,2.0596,2.0596,2.0596,2.0596,2.0596,2.0596,2.0625,2.0731,2.0915,2.0934,2.0934,2.1977,2.2382,2.2582,2.356,2.4093,2.4336,2.4438,2.4557,2.4603,2.4628,2.4487,2.4286,2.3813,2.3386,2.3236,2.3095,2.3095,2.3095,2.3095,2.3095,2.3095,2.3095,2.3095,2.3095,2.3095,2.3095,2.3095,2.3101,2.3101,2.3101,2.3101,2.3101,2.3101,2.3101,2.3101,2.3101,2.3101,2.3159,2.3367,2.3357,2.314,2.3376,2.3367,2.312,2.3101,2.3101,2.3101,2.3101,2.3101,2.3101,2.3101,2.3101,2.3101,2.3101,2.3101,2.3101,2.3101,2.3101,2.3101,2.3101,2.3101,2.3101,2.3101,2.3101,2.3101,2.3101,2.3101,2.3101,2.3101,2.2888,2.2576,2.2488,2.2373,2.2227,2.2549,2.2557,2.2256,2.2148,2.2148,2.2168,2.2373,2.2566,2.2723,2.2974,2.3101,2.3101,2.3101,2.3101,2.3091,2.3101,2.3101,2.3071,2.3091,2.2967,2.2771,2.2508,2.2196,2.1757,2.1221,2.082,2.0635,2.0596,2.0596,2.0596,2.0596,2.0596,2.0596,2.0596,2.0596,2.0596,2.0596,2.0596,2.0625,2.0683,2.0876,2.1287,2.1391,2.1936,2.3129,2.4187,2.4636,2.5045,2.5244,2.5335,2.5335,2.5005,2.4816,2.4277,2.3703,2.3349,2.3183,2.3133,2.3095,2.3095,2.3095,2.3095,2.3095,2.3095,2.3095,2.3095,2.3095,2.3095,2.3101,2.3101,2.3101,2.3101,2.3101,2.3101,2.3101,2.3101,2.3101,2.3101,2.311,2.3101,2.314,2.3101,2.3171,2.311,2.3101,2.3101,2.3101,2.3101,2.3101,2.3101,2.3101,2.3101,2.3101,2.3101,2.3101,2.3101,2.3101,2.3101,2.3101,2.3101,2.3101,2.3101,2.3101,2.3101,2.3101,2.3101,2.3101,2.3101,2.3101,2.3081,2.2916,2.2703,2.2508,2.2451,2.2451,2.2664,2.2742,2.2488,2.2518,2.2557,2.2557,2.2566,2.2723,2.2986,2.3071,2.3101,2.3101,2.3101,2.3101,2.3101,2.3101,2.3101,2.3101,2.3091,2.3071,2.3023,2.3062,2.2635,2.2127,2.1562,2.1045,2.0703,2.0596,2.0596,2.0596,2.0596,2.0596,2.0596,2.0596,2.0596,2.0596,2.0596,2.0596,2.0596,2.0596,2.0722,2.0953,2.1131,2.1992,2.3274,2.4246,2.5133,2.5573,2.5975,2.6055,2.6084,2.5586,2.5205,2.4653,2.4101,2.3587,2.3349,2.3449,2.3336,2.3095,2.3095,2.312,2.3095,2.3095,2.3095,2.3095,2.3095,2.3095,2.3101,2.3101,2.3101,2.3101,2.3101,2.3101,2.3101,2.3101,2.3101,2.3101,2.3101,2.3101,2.3101,2.3101,2.3101,2.3101,2.3101,2.3101,2.3101,2.3101,2.3101,2.3101,2.3101,2.3132,2.3101,2.3101,2.3101,2.3101,2.3101,2.3101,2.3101,2.3101,2.3101,2.3101,2.3101,2.3101,2.3101,2.3101,2.3101,2.3101,2.3101,2.3101,2.3042,2.2896,2.2654,2.2344,2.208,2.21,2.2266,2.2498,2.2781,2.2906,2.2937,2.2947,2.2996,2.3064,2.3101,2.3101,2.3101,2.3101,2.3101,2.3101,2.3101,2.3101,2.3101,2.3101,2.3101,2.3033,2.281,2.2401,2.1737,2.1386,2.1015,2.0742,2.0596,2.0596,2.0596,2.0596,2.0596,2.0596,2.0596,2.0596,2.0596,2.0596,2.0596,2.0596,2.0596,2.0596,2.0722,2.0886,2.1954,2.3202,2.38,2.4696,2.5916,2.6243,2.6323,2.6386,2.603,2.5749,2.5197,2.4795,2.4393,2.4067,2.3841,2.3653,2.3399,2.3195,2.3233,2.317,2.3108,2.3095,2.3095,2.3095,2.3095,2.3101,2.3101,2.3101,2.3101,2.3101,2.3101,2.3101,2.3101,2.3101,2.3101,2.3101,2.3101,2.3101,2.3101,2.3101,2.3101,2.3101,2.3101,2.324,2.3318,2.3259,2.323,2.3337,2.321,2.3101,2.3101,2.3101,2.3101,2.3101,2.3101,2.3101,2.3101,2.3101,2.3101,2.3101,2.3101,2.3101,2.3101,2.3101,2.3101,2.3101,2.3101,2.3101,2.3013,2.2723,2.2383,2.2227,2.2197,2.2305,2.2527,2.2879,2.3091,2.3101,2.3101,2.3101,2.3101,2.3101,2.3101,2.3101,2.3101,2.3101,2.3101,2.3101,2.3101,2.3101,2.3101,2.3101,2.3062,2.2869,2.2449,2.1649,2.1553,2.126,2.0742,2.0596,2.0596,2.0596,2.0596,2.0596,2.0596,2.0596,2.0596,2.0596,2.0596,2.0596,2.0596,2.0596,2.0596,2.0596,2.0886,2.184,2.2813,2.3294,2.4253,2.5844,2.6449,2.6424,2.6436,2.6311,2.6168,2.5929,2.5615,2.5339,2.4886,2.4368,2.4067,2.3813,2.3612,2.3333,2.3183,2.312,2.3108,2.3095,2.3095,2.3095,2.3101,2.3101,2.3101,2.3101,2.3101,2.3101,2.3101,2.3101,2.3101,2.3101,2.3101,2.3101,2.3101,2.3101,2.3101,2.3101,2.3101,2.311,2.3279,2.3454,2.3218,2.3288,2.3406,2.3237,2.3101,2.3101,2.3101,2.3101,2.3101,2.3101,2.3101,2.3101,2.3101,2.3101,2.3101,2.3101,2.3101,2.3101,2.3101,2.3101,2.3101,2.3091,2.3071,2.2888,2.2557,2.2363,2.2266,2.2215,2.2293,2.2488,2.283,2.3025,2.3113,2.3101,2.3101,2.3101,2.3101,2.3101,2.3101,2.3101,2.3101,2.3101,2.3101,2.3101,2.3101,2.3101,2.3101,2.3101,2.2974,2.2713,2.2012,2.1847,2.1426,2.084,2.0596,2.0596,2.0596,2.0596,2.0596,2.0596,2.0596,2.0596,2.0596,2.0596,2.0596,2.0596,2.0596,2.0596,2.0596,2.0809,2.1669,2.2553,2.3073,2.4325,2.5913,2.6487,2.6487,2.6474,2.6453,2.6424,2.6399,2.6185,2.5791,2.5285,2.4845,2.4569,2.4255,2.3951,2.3662,2.3321,2.3133,2.3108,2.3095,2.3095,2.3095,2.3101,2.3101,2.3101,2.3101,2.3101,2.3101,2.3101,2.3101,2.3101,2.3101,2.3101,2.3101,2.3101,2.3101,2.3101,2.3101,2.3101,2.311,2.3169,2.3308,2.3149,2.3208,2.3298,2.3188,2.3101,2.3101,2.3101,2.3101,2.3101,2.3101,2.3101,2.3101,2.3101,2.3101,2.3101,2.3101,2.3101,2.3101,2.3101,2.3101,2.3101,2.3081,2.2986,2.2723,2.2342,2.2139,2.1982,2.1708,2.1747,2.2391,2.2568,2.2791,2.3013,2.3101,2.3101,2.3101,2.3101,2.3101,2.3101,2.3101,2.3101,2.3101,2.3101,2.3101,2.3101,2.3101,2.3101,2.3101,2.3064,2.2781,2.2013,2.1925,2.1475,2.0889,2.0615,2.0615,2.0596,2.0596,2.0596,2.0596,2.0596,2.0596,2.0596,2.0596,2.0596,2.0596,2.0596,2.0596,2.0596,2.075,2.1164,2.2065,2.2914,2.4457,2.6117,2.6354,2.6487,2.6487,2.6461,2.6461,2.6461,2.6474,2.6172,2.5703,2.541,2.5209,2.4845,2.4418,2.4026,2.375,2.3434,2.3133,2.3095,2.3095,2.3095,2.3101,2.3101,2.3101,2.3101,2.3101,2.3101,2.3101,2.3101,2.3101,2.3101,2.3101,2.3101,2.3101,2.3101,2.3101,2.3101,2.3101,2.3101,2.324,2.3357,2.3249,2.3247,2.3347,2.323,2.311,2.3101,2.3101,2.3101,2.3101,2.3101,2.3101,2.3101,2.3101,2.3101,2.3101,2.3101,2.3101,2.3101,2.3101,2.3101,2.3101,2.3101,2.2976,2.2771,2.241,2.2236,2.2168,2.204,2.2069,2.2449,2.2713,2.2908,2.3023,2.3081,2.3091,2.3081,2.3091,2.3101,2.3101,2.3101,2.3101,2.3101,2.3101,2.3101,2.3101,2.3101,2.3101,2.3101,2.3081,2.2879,2.2285,2.2031,2.1572,2.1055,2.0732,2.0615,2.0596,2.0596,2.0596,2.0596,2.0596,2.0596,2.0596,2.0596,2.0596,2.0596,2.0596,2.0596,2.0596,2.0731,2.0934,2.1981,2.2988,2.4469,2.5908,2.6302,2.6469,2.6487,2.6487,2.6487,2.6487,2.6487,2.6436,2.6185,2.5954,2.5753,2.5464,2.5046,2.4607,2.4155,2.3825,2.3512,2.3233,2.3095,2.312,2.3101,2.3101,2.3101,2.3101,2.3101,2.3101,2.3101,2.3101,2.3101,2.3101,2.3101,2.3101,2.3101,2.3101,2.3101,2.3101,2.3101,2.3101,2.3288,2.3447,2.3279,2.3318,2.3447,2.3347,2.3101,2.3101,2.3101,2.3101,2.3101,2.3101,2.3101,2.3101,2.3101,2.3101,2.3101,2.3101,2.3101,2.3101,2.3101,2.3101,2.3101,2.3101,2.3101,2.3023,2.2635,2.2383,2.241,2.2264,2.2303,2.2508,2.2742,2.2935,2.2976,2.2986,2.2974,2.2984,2.3033,2.3091,2.3101,2.3101,2.3101,2.3101,2.3101,2.3101,2.3101,2.3101,2.3101,2.3101,2.3091,2.2947,2.2469,2.2129,2.1699,2.124,2.083,2.0596,2.0596,2.0596,2.0596,2.0596,2.0596,2.0596,2.0596,2.0596,2.0596,2.0596,2.0596,2.0596,2.0596,2.0596,2.0972,2.2056,2.3209,2.4552,2.5634,2.625,2.6418,2.6487,2.6487,2.6487,2.6487,2.6487,2.6424,2.6386,2.6373,2.616,2.5904,2.559,2.5046,2.4569,2.4217,2.3775,2.3308,2.3158,2.3195,2.3101,2.3101,2.3101,2.3101,2.3101,2.3101,2.3101,2.3101,2.3101,2.3101,2.3101,2.3101,2.3101,2.3101,2.3101,2.3101,2.3101,2.3101,2.3171,2.3249,2.3149,2.313,2.321,2.3162,2.3101,2.3101,2.3101,2.3101,2.3101,2.3101,2.3101,2.3101,2.3101,2.3101,2.3101,2.3101,2.3101,2.3101,2.3101,2.3101,2.3101,2.3101,2.3101,2.2906,2.2488,2.2207,2.2412,2.2256,2.2148,2.243,2.2518,2.2588,2.2588,2.2557,2.2557,2.2674,2.2869,2.3101,2.3091,2.3042,2.3071,2.3071,2.3101,2.3101,2.3101,2.3101,2.3101,2.3101,2.3101,2.2976,2.2596,2.2178,2.1728,2.1308,2.0937,2.0703,2.0625,2.0596,2.0596,2.0596,2.0596,2.0596,2.0596,2.0596,2.0596,2.0596,2.0596,2.0596,2.0596,2.0596,2.0953,2.2,2.3006,2.4325,2.5441,2.603,2.6388,2.6487,2.6487,2.6487,2.6487,2.6487,2.6487,2.6461,2.6487,2.6487,2.626,2.5866,2.5385,2.4946,2.4544,2.3901,2.3233,2.3221,2.3386,2.3101,2.3101,2.3101,2.3101,2.3101,2.3101,2.3101,2.3101,2.3101,2.3101,2.3101,2.3101,2.3101,2.3101,2.3101,2.3101,2.3101,2.3101,2.3101,2.3101,2.3101,2.3101,2.311,2.3101,2.3101,2.3101,2.3101,2.3101,2.3101,2.3101,2.3101,2.3101,2.3101,2.3101,2.3101,2.3101,2.3101,2.3101,2.3101,2.3101,2.3101,2.3101,2.3101,2.3071,2.2508,2.2383,2.2334,2.2119,2.1963,2.2148,2.2158,2.2158,2.2227,2.2363,2.2498,2.2529,2.2666,2.2869,2.3033,2.2867,2.2908,2.3042,2.3091,2.3101,2.3101,2.3101,2.3101,2.3101,2.3101,2.3006,2.281,2.249,2.207,2.1631,2.1162,2.0879,2.0723,2.0635,2.0596,2.0596,2.0596,2.0625,2.0625,2.0596,2.0596,2.0596,2.0596,2.0596,2.0596,2.0596,2.1116,2.1876,2.2877,2.3952,2.501,2.5856,2.6336,2.6487,2.6487,2.6487,2.6487,2.6487,2.6487,2.6487,2.6487,2.6474,2.6461,2.626,2.5841,2.5364,2.4845,2.4327,2.3847,2.3712,2.3991,2.2935,2.2967,2.3052,2.3101,2.3101,2.3101,2.3101,2.3101,2.3101,2.3101,2.3101,2.3101,2.3101,2.3101,2.3101,2.3101,2.3101,2.3101,2.3101,2.3101,2.3101,2.3101,2.3101,2.3101,2.3101,2.3101,2.3101,2.3101,2.3101,2.3101,2.3101,2.3101,2.3101,2.3101,2.3101,2.3101,2.3101,2.3101,2.3101,2.3101,2.3101,2.3101,2.3101,2.2935,2.2664,2.2342,2.2274,2.1903,2.1719,2.1719,2.1875,2.1964,2.2013,2.2295,2.2371,2.2363,2.2353,2.243,2.2547,2.2539,2.2627,2.284,2.3071,2.3101,2.3101,2.3101,2.3101,2.3101,2.3101,2.3101,2.3006,2.2635,2.2275,2.1854,2.1513,2.1191,2.0967,2.1006,2.0938,2.0859,2.083,2.0703,2.0684,2.0615,2.0596,2.0596,2.0596,2.0596,2.0625,2.0644,2.0972,2.164,2.2869,2.3715,2.4415,2.5341,2.5926,2.6487,2.6487,2.6487,2.6487,2.6487,2.6487,2.6487,2.6487,2.6487,2.6474,2.6411,2.6311,2.569,2.5159,2.4967,2.4666,2.4481,2.4535,2.2527,2.2588,2.2981,2.3127,2.3071,2.3101,2.3081,2.3054,2.3062,2.3071,2.3101,2.3101,2.3101,2.3101,2.3101,2.3101,2.3101,2.3101,2.3101,2.3101,2.3101,2.3101,2.3101,2.3101,2.3101,2.3101,2.3101,2.3101,2.3101,2.3101,2.3101,2.3101,2.3101,2.3101,2.3101,2.3101,2.3101,2.3101,2.3101,2.3101,2.3101,2.3091,2.3081,2.2898,2.2402,2.1954,2.1904,2.1484,2.1259,2.1269,2.1523,2.1768,2.1816,2.2178,2.2256,2.2207,2.2139,2.2207,2.2217,2.2178,2.2227,2.2539,2.2859,2.3101,2.3101,2.3101,2.3101,2.3101,2.3101,2.3101,2.2888,2.2539,2.2363,2.2127,2.1884,2.165,2.1494,2.1593,2.1484,2.1249,2.1064,2.0928,2.0762,2.0693,2.0596,2.0596,2.0596,2.0615,2.0722,2.076,2.0789,2.1394,2.2758,2.3551,2.3854,2.4749,2.6082,2.6487,2.6487,2.6487,2.6487,2.6487,2.6487,2.6487,2.6487,2.6487,2.6487,2.6449,2.6285,2.5841,2.5473,2.5256,2.5243,2.5172,2.5234,2.3908,2.3929,2.4089,2.3597,2.2732,2.2732,2.2732,2.2732,2.2732,2.2898,2.3101,2.3101,2.3101,2.3091,2.3101,2.3101,2.3101,2.3101,2.3081,2.3101,2.3101,2.3101,2.3101,2.3081,2.3101,2.3081,2.3081,2.3101,2.3101,2.3091,2.3091,2.3101,2.3101,2.3101,2.3101,2.3101,2.3101,2.3101,2.3101,2.3101,2.3101,2.3071,2.2974,2.2674,2.2256,2.1758,2.1464,2.1055,2.0889,2.0889,2.1065,2.1279,2.1562,2.1943,2.2129,2.2158,2.2139,2.2148,2.2129,2.206,2.2187,2.2762,2.3035,2.3101,2.3101,2.3101,2.3101,2.3101,2.3101,2.3101,2.3025,2.283,2.2684,2.2479,2.2245,2.2021,2.1992,2.206,2.1974,2.1669,2.1366,2.1113,2.0937,2.0772,2.0674,2.0596,2.0596,2.0625,2.0741,2.103,2.1136,2.168,2.3054,2.3981,2.4319,2.5341,2.6452,2.6487,2.6487,2.6487,2.6487,2.6487,2.6487,2.6487,2.6487,2.6487,2.6487,2.6487,2.6336,2.6084,2.5791,2.5511,2.5586,2.5778,2.5879,2.4614,2.4595,2.4293,2.3636,2.2779,2.2726,2.2657,2.25,2.2498,2.2732,2.3091,2.3101,2.3013,2.2986,2.3052,2.2974,2.2916,2.2877,2.2908,2.2898,2.2898,2.2937,2.2976,2.3025,2.3013,2.2984,2.3052,2.3071,2.2898,2.3045,2.3081,2.3101,2.3101,2.3101,2.3101,2.3101,2.3101,2.3101,2.3101,2.3101,2.3101,2.3081,2.2896,2.2527,2.2109,2.1689,2.1269,2.0889,2.0674,2.0703,2.0811,2.0967,2.1259,2.1591,2.1924,2.208,2.2137,2.2147,2.2079,2.2246,2.2293,2.2742,2.3045,2.3071,2.3101,2.3101,2.3101,2.3101,2.3101,2.3101,2.3081,2.2888,2.284,2.2654,2.2469,2.2295,2.2391,2.2459,2.2305,2.21,2.1805,2.1571,2.1045,2.085,2.0664,2.0596,2.0596,2.0644,2.075,2.1136,2.1726,2.244,2.3551,2.4337,2.5022,2.5821,2.6469,2.6487,2.6487,2.6487,2.6487,2.6487,2.6487,2.6487,2.6487,2.6487,2.6487,2.6487,2.6487,2.6449,2.6155,2.5862,2.5979,2.613,2.626,2.4303,2.4098,2.3292,2.31,2.3278,2.3272,2.292,2.2396,2.243,2.2773,2.3207,2.3148,2.2897,2.272,2.291,2.2742,2.2547,2.2508,2.2537,2.2576,2.2635,2.2578,2.2674,2.281,2.281,2.2674,2.2723,2.2723,2.2518,2.284,2.2984,2.3052,2.3042,2.3101,2.3101,2.3101,2.3101,2.3101,2.3101,2.3101,2.3091,2.3052,2.2781,2.2391,2.1992,2.1553,2.1103,2.0791,2.0615,2.0625,2.085,2.1035,2.121,2.1562,2.1719,2.1562,2.1493,2.1414,2.1375,2.2069,2.2498,2.2693,2.2996,2.3081,2.3101,2.3101,2.3101,2.3101,2.3101,2.3101,2.2986,2.2849,2.2888,2.2838,2.2684,2.2635,2.2742,2.2791,2.2615,2.2469,2.2371,2.2147,2.1435,2.0898,2.0693,2.0596,2.0596,2.0663,2.0731,2.1298,2.1981,2.2925,2.3927,2.4779,2.5441,2.6025,2.6469,2.6487,2.6487,2.6487,2.6487,2.6487,2.6487,2.6487,2.6487,2.6487,2.6487,2.6487,2.6487,2.6487,2.6487,2.6348,2.6424,2.6449,2.6474,2.5495,2.514,2.5189,2.4704,2.3876,2.3155,2.2451,2.1802,2.2036,2.2897,2.372,2.2998,2.2687,2.2784,2.2521,2.2308,2.2139,2.2109,2.2168,2.244,2.242,2.2498,2.2547,2.2527,2.2479,2.2215,2.2266,2.2334,2.2109,2.2537,2.2684,2.2732,2.2994,2.3091,2.3101,2.3101,2.3101,2.3101,2.3101,2.3091,2.3062,2.2859,2.2527,2.2129,2.1719,2.1289,2.0879,2.0664,2.0615,2.0596,2.082,2.0928,2.1113,2.1445,2.162,2.1835,2.202,2.2215,2.237,2.2799,2.2879,2.2947,2.2974,2.3101,2.3101,2.3101,2.3101,2.3101,2.3101,2.3101,2.3033,2.3025,2.3023,2.3033,2.2935,2.2935,2.2994,2.3003,2.2957,2.282,2.2713,2.2166,2.1503,2.1172,2.0947,2.0889,2.0908,2.0693,2.0693,2.147,2.2215,2.3202,2.4181,2.5111,2.5868,2.6367,2.652,2.6487,2.6487,2.6487,2.6487,2.6524,2.6512,2.6524,2.6499,2.6487,2.6487,2.6487,2.6487,2.6487,2.6487,2.6487,2.6474,2.6461,2.6474,2.5674,2.5352,2.5376,2.4828,2.393,2.36,2.3007,2.2413,2.2725,2.3674,2.4329,2.3424,2.2908,2.2947,2.2646,2.1903,2.1741,2.167,2.1719,2.204,2.203,2.1971,2.202,2.2207,2.2021,2.1797,2.1826,2.1925,2.1953,2.2324,2.2617,2.282,2.2955,2.3062,2.3101,2.3101,2.3101,2.3101,2.3101,2.3101,2.2996,2.2732,2.2334,2.1924,2.1494,2.1025,2.0732,2.0596,2.0596,2.0596,2.0635,2.0723,2.0947,2.121,2.1453,2.1913,2.2391,2.2547,2.2752,2.2994,2.3013,2.3062,2.3101,2.3101,2.3101,2.3101,2.3101,2.3101,2.3101,2.3101,2.3101,2.3101,2.3101,2.3101,2.3091,2.3081,2.3081,2.3091,2.3091,2.2996,2.284,2.2214,2.1737,2.1465,2.125,2.1233,2.1253,2.1006,2.0868,2.1703,2.259,2.3567,2.4542,2.5493,2.6179,2.6636,2.67,2.6512,2.6612,2.6751,2.6625,2.6688,2.6612,2.6537,2.6512,2.6487,2.6487,2.6487,2.6487,2.6487,2.6487,2.6487,2.6487,2.6487,2.6487,2.4791,2.4637,2.375,2.3452,2.3527,2.4394,2.4547,2.4145,2.439,2.4584,2.4753,2.4545,2.3845,2.3016,2.3128,2.2531,2.159,2.1381,2.1339,2.1318,2.1454,2.1376,2.1474,2.168,2.1553,2.1484,2.1484,2.1632,2.1865,2.2314,2.2674,2.2976,2.3052,2.3101,2.3101,2.3101,2.3101,2.3101,2.3006,2.2986,2.2879,2.2518,2.2109,2.1709,2.1328,2.0937,2.0693,2.0596,2.0596,2.0596,2.0605,2.0605,2.0742,2.0986,2.1123,2.1473,2.2118,2.243,2.2703,2.2984,2.3062,2.3101,2.3101,2.3101,2.3101,2.3101,2.3101,2.3101,2.3101,2.3101,2.3101,2.3101,2.3101,2.3101,2.3101,2.3091,2.3091,2.3101,2.3101,2.3033,2.2986,2.2625,2.2285,2.1973,2.1583,2.1537,2.157,2.1678,2.1684,2.2173,2.3071,2.4035,2.4999,2.5937,2.6565,2.7115,2.7173,2.711,2.7173,2.7261,2.709,2.6839,2.6763,2.6675,2.6537,2.6487,2.6487,2.6487,2.6487,2.6487,2.6487,2.6487,2.6487,2.6487,2.6487,2.4566,2.4249,2.4326,2.4151,2.3933,2.4546,2.4762,2.4519,2.342,2.3377,2.4741,2.373,2.3622,2.3737,2.3538,2.2759,2.2147,2.1715,2.15,2.1382,2.1292,2.1231,2.1249,2.1288,2.1113,2.0957,2.0977,2.126,2.1562,2.2098,2.2723,2.3045,2.3081,2.3091,2.3042,2.3081,2.3052,2.2996,2.2801,2.2762,2.2508,2.2059,2.1698,2.1386,2.1055,2.0742,2.0635,2.0596,2.0596,2.0596,2.0596,2.0596,2.0625,2.0752,2.0918,2.1689,2.2227,2.2627,2.2879,2.3035,2.3091,2.3081,2.3101,2.3101,2.3101,2.3101,2.3101,2.3101,2.3101,2.3101,2.3101,2.3101,2.3101,2.3101,2.3101,2.3101,2.3101,2.3101,2.3091,2.3062,2.3015,2.2859,2.2559,2.2285,2.1935,2.186,2.1937,2.216,2.2353,2.2787,2.374,2.4701,2.556,2.6541,2.7218,2.7795,2.777,2.7745,2.7783,2.7675,2.7316,2.7077,2.6952,2.6776,2.6549,2.6487,2.6487,2.6487,2.6487,2.6487,2.6487,2.6487,2.6487,2.6487,2.6499,2.3738,2.37,2.3985,2.3938,2.3738,2.3973,2.4123,2.3968,2.3327,2.3896,2.4904,2.4318,2.3989,2.4125,2.4045,2.3484,2.2361,2.2512,2.2292,2.165,2.1488,2.1224,2.1135,2.0967,2.083,2.0644,2.0684,2.1016,2.1474,2.2204,2.2898,2.283,2.2986,2.2869,2.2732,2.2693,2.2713,2.2625,2.2527,2.2488,2.2147,2.1659,2.1327,2.1113,2.0771,2.0635,2.0596,2.0596,2.0596,2.0596,2.0596,2.0596,2.0654,2.0762,2.1104,2.1808,2.2051,2.2432,2.2684,2.2789,2.2925,2.3042,2.3091,2.3101,2.3101,2.3101,2.3101,2.3101,2.3101,2.3101,2.3101,2.3101,2.3101,2.3101,2.3101,2.3101,2.3101,2.3101,2.3081,2.3052,2.2964,2.2859,2.2654,2.243,2.2396,2.2511,2.2759,2.3053,2.3067,2.3086,2.4303,2.5581,2.6358,2.7169,2.7804,2.8317,2.8254,2.8242,2.8304,2.8097,2.7625,2.7361,2.7286,2.6939,2.6512,2.6524,2.66,2.6512,2.6487,2.6487,2.6499,2.6512,2.6499,2.6487,2.6499,2.2533,2.2957,2.2955,2.2957,2.2955,2.297,2.2982,2.3095,2.3873,2.4838,2.5164,2.5365,2.4771,2.4309,2.4467,2.3939,2.3171,2.3039,2.2674,2.1997,2.1876,2.1482,2.0869,2.0633,2.0651,2.0614,2.0674,2.0938,2.1768,2.2323,2.2547,2.2479,2.2732,2.2625,2.2217,2.2344,2.2344,2.2178,2.2187,2.2166,2.204,2.162,2.1132,2.1064,2.081,2.0596,2.0596,2.0596,2.0596,2.0596,2.0596,2.0596,2.0713,2.085,2.1329,2.167,2.1875,2.2129,2.2451,2.2625,2.2801,2.2957,2.3071,2.3091,2.3101,2.3101,2.3101,2.3101,2.3101,2.3101,2.3101,2.3101,2.3101,2.3101,2.3101,2.3101,2.3101,2.3101,2.3091,2.3071,2.3042,2.2935,2.2916,2.2764,2.3047,2.3218,2.3411,2.3764,2.4252,2.4072,2.4942,2.6456,2.741,2.8081,2.8392,2.8787,2.8718,2.8718,2.8806,2.8392,2.7821,2.7675,2.7638,2.7261,2.6901,2.6746,2.6721,2.6725,2.6663,2.6487,2.6499,2.6537,2.6549,2.665,2.6537,2.1769,2.1882,2.1882,2.1882,2.1897,2.1882,2.1907,2.1933,2.2598,2.3236,2.3725,2.4136,2.432,2.4208,2.462,2.4174,2.3467,2.3402,2.277,2.2249,2.2006,2.147,2.0782,2.0671,2.0565,2.0347,2.042,2.0869,2.1445,2.1934,2.2187,2.207,2.2256,2.2101,2.1827,2.1973,2.1924,2.1749,2.1621,2.1601,2.1484,2.1143,2.0732,2.0742,2.0596,2.0596,2.0596,2.0596,2.0596,2.0596,2.0596,2.0596,2.0605,2.0713,2.0957,2.1338,2.166,2.1894,2.2158,2.249,2.2742,2.2781,2.2898,2.3023,2.3101,2.3101,2.3101,2.3101,2.3101,2.3101,2.3101,2.3101,2.3101,2.3101,2.3101,2.3101,2.3101,2.3101,2.3101,2.3101,2.3101,2.3101,2.3101,2.3278,2.3649,2.3823,2.3949,2.4415,2.558,2.5901,2.605,2.7327,2.8584,2.9217,2.9296,2.9227,2.9176,2.9252,2.9365,2.8787,2.8059,2.7821,2.767,2.76,2.7374,2.7248,2.716,2.7123,2.7014,2.6826,2.6675,2.6776,2.7014,2.7148,2.6864,2.1295,2.1468,2.1481,2.1481,2.1481,2.1481,2.1481,2.1543,2.182,2.2106,2.2558,2.3439,2.3979,2.4054,2.4553,2.4315,2.3644,2.3916,2.3427,2.2786,2.2003,2.1374,2.0995,2.0617,2.0039,1.9812,2.0332,2.0811,2.1152,2.1631,2.1915,2.168,2.1689,2.169,2.1485,2.1455,2.1484,2.129,2.1064,2.0986,2.0967,2.0742,2.0596,2.0596,2.0596,2.0596,2.0596,2.0596,2.0596,2.0596,2.0596,2.0596,2.0596,2.0625,2.0713,2.0977,2.1309,2.167,2.1953,2.2264,2.2674,2.2742,2.2684,2.283,2.3091,2.3101,2.3101,2.3101,2.3101,2.3101,2.3101,2.3101,2.3101,2.3101,2.3101,2.3101,2.3101,2.3101,2.3101,2.3101,2.3101,2.3101,2.3101,2.3113,2.3551,2.434,2.4472,2.4991,2.6171,2.7332,2.7585,2.7962,2.9056,2.9657,2.9597,2.9591,2.9616,2.9729,2.9779,2.9227,2.8549,2.8034,2.7708,2.7795,2.7833,2.7795,2.772,2.7613,2.7575,2.7462,2.7236,2.7047,2.7349,2.7657,2.7525,2.0842,2.1268,2.1256,2.1268,2.1281,2.1268,2.1243,2.1268,2.1356,2.1394,2.1608,2.2949,2.359,2.3853,2.4076,2.3941,2.3776,2.3629,2.3437,2.3053,2.2454,2.18,2.1031,2.0322,2.0127,1.9982,2.0211,2.0576,2.0888,2.1289,2.1406,2.1259,2.126,2.1299,2.0908,2.0801,2.0898,2.082,2.0693,2.0644,2.0605,2.0596,2.0596,2.0596,2.0596,2.0596,2.0596,2.0596,2.0596,2.0596,2.0596,2.0596,2.0596,2.0596,2.0596,2.0791,2.1064,2.1415,2.1708,2.2012,2.244,2.2703,2.2617,2.2775,2.31,2.3135,2.3135,2.3101,2.3101,2.3101,2.3101,2.3101,2.3101,2.3101,2.3101,2.3101,2.3101,2.3101,2.3101,2.3101,2.3101,2.3101,2.3101,2.3101,2.3714,2.4521,2.5241,2.5807,2.6562,2.7624,2.8337,2.8509,2.9059,2.9482,2.974,2.9779,2.9779,2.9779,2.9741,2.9415,2.9032,2.8505,2.8204,2.8247,2.8285,2.8411,2.8222,2.8021,2.8009,2.8009,2.7733,2.7562,2.7959,2.8217,2.8298,2.0024,2.0125,2.0125,2.0137,2.015,2.0137,2.0138,2.0226,2.0653,2.0855,2.103,2.1495,2.1972,2.1985,2.2046,2.2133,2.2525,2.2786,2.2784,2.2404,2.242,2.2127,2.1666,2.098,2.1059,2.0744,2.027,2.0133,2.0862,2.0996,2.0909,2.0889,2.0429,2.0497,2.0693,2.0624,2.0622,2.0689,2.0683,2.0644,2.0654,2.0644,2.0605,2.0596,2.0596,2.0596,2.0596,2.0596,2.0596,2.0596,2.0722,2.0799,2.0809,2.0905,2.0992,2.1101,2.1342,2.1421,2.1757,2.2202,2.2698,2.2904,2.2947,2.3246,2.3391,2.3321,2.3266,2.3123,2.3101,2.3101,2.3101,2.3101,2.3101,2.3101,2.3101,2.3101,2.3101,2.3101,2.3101,2.3101,2.3101,2.3101,2.3101,2.3408,2.4102,2.4946,2.5891,2.6534,2.7634,2.8398,2.9035,2.9145,2.9255,2.9495,2.9779,2.9779,2.9779,2.9779,2.9741,2.9515,2.9245,2.895,2.875,2.8812,2.9013,2.9202,2.8938,2.8493,2.8423,2.8386,2.8147,2.8097,2.8505,2.8781,2.8863]},{"header":{"parameterUnit":"m.s-1","parameterCategory":1,"la1":31.0,"la2":29.5877,"lo1":-88.7671,"lo2":-86.6584,"dy":0.0162,"dx":0.0185,"nx":115,"ny":88,"refTime":"2023-05-01T12:00:00:Z","depth":0,"parameterNumber":3,"parameterNumberName":"V-component_of_WINDS"},"data":[0.0,0.0,0.0,0.0,0.0,0.0,0.0,0.0,0.0,0.0,0.0,0.0,0.0,0.0,0.0,0.0,0.0,0.0,0.0,0.0,0.0,0.0,0.0,0.0,0.0,0.0,0.0,0.0,0.0,0.0,0.0,0.0,0.0,0.0,0.0,0.0,0.0,0.0,0.0,0.0,0.0,0.0,0.0,0.0,0.0,0.0,0.0,0.0,0.0,0.0,0.0,0.0,0.0,0.0,0.0,0.0,0.0,0.0,0.0,0.0,0.0,0.0,0.0,0.0,0.0,0.0,0.0,0.0,0.0,0.0,0.0,0.0,0.0,0.0,0.0,0.0,0.0,0.0,0.0,0.0,0.0,0.0,0.0,0.0,0.0,0.0,0.0,0.0,0.0,0.0,0.0,0.0,0.0,0.0,0.0,0.0,0.0,0.0,0.0,0.0,0.0,0.0,0.0,0.0,0.0,0.0,0.0,0.0,0.0,0.0,0.0,0.0,0.0,0.0,0.0,0.0,0.0,0.0,0.0,0.0,0.0,0.0,0.0,0.0,0.0,0.0,0.0,0.0,0.0,0.0,0.0,0.0,0.0,0.0,0.0,0.0,0.0,0.0,0.0,0.0,0.0,0.0,0.0,0.0,0.0,0.0,0.0,0.0,0.0,0.0,0.0,0.0,0.0,0.0,0.0,0.0,0.0,0.0,0.0,0.0,0.0,0.0,0.0,0.0,0.0,0.0,0.0,0.0,0.0,0.0,0.0,0.0,0.0,0.0,0.0,0.0,0.0,0.0,0.0,0.0,0.0,0.0,0.0,0.0,0.0,0.0,0.0,0.0,0.0,0.0,0.0,0.0,0.0,0.0,0.0,0.0,0.0,0.0,0.0,0.0,0.0,0.0,0.0,0.0,0.0,0.0,0.0,0.0,0.0,0.0,0.0,0.0,0.0,0.0,0.0,0.0,0.0,0.0,0.0,0.0,0.0,0.0,0.0,0.0,0.0,0.0,0.0,0.0,0.0,0.0,0.0,0.0,0.0,0.0,0.0,0.0,0.0,0.0,0.0,0.0,0.0,0.0,0.0,0.0,0.0,0.0,0.0,0.0,0.0,0.0,0.0,0.0,0.0,0.0,0.0,0.0,0.0,0.0,0.0,0.0,0.0,0.0,0.0,0.0,0.0,0.0,0.0,0.0,0.0,0.0,0.0,0.0,0.0,0.0,0.0,0.0,0.0,0.0,0.0,0.0,0.0,0.0,0.0,0.0,0.0,0.0,0.0,0.0,0.0,0.0,0.0,0.0,0.0,0.0,0.0,0.0,0.0,0.0,0.0,0.0,0.0,0.0,0.0,0.0,0.0,0.0,0.0,0.0,0.0,0.0,0.0,0.0,0.0,0.0,0.0,0.0,0.0,0.0,0.0,0.0,0.0,0.0,0.0,0.0,0.0,0.0,0.0,0.0,0.0,0.0,0.0,0.0,0.0,0.0,0.0,0.0,0.0,0.0,0.0,0.0,0.0,0.0,0.0,0.0,0.0,0.0,0.0,0.0,0.0,0.0,0.0,0.0,0.0,0.0,0.0,0.0,0.0,0.0,0.0,0.0,0.0,0.0,0.0,0.0,0.0,0.0,0.0,0.0,0.0,0.0,0.0,0.0,0.0,0.0,0.0,0.0,0.0,0.0,0.0,0.0,0.0,0.0,0.0,0.0,0.0,0.0,0.0,0.0,0.0,0.0,0.0,0.0,0.0,0.0,0.0,0.0,0.0,0.0,0.0,0.0,0.0,0.0,0.0,0.0,0.0,0.0,0.0,0.0,0.0,0.0,0.0,0.0,0.0,0.0,0.0,0.0,0.0,0.0,0.0,0.0,0.0,0.0,0.0,0.0,0.0,0.0,0.0,0.0,0.0,0.0,0.0,0.0,0.0,0.0,0.0,0.0,0.0,0.0,0.0,0.0,0.0,0.0,0.0,0.0,0.0,0.0,0.0,0.0,0.0,0.0,0.0,0.0,0.0,0.0,0.0,0.0,0.0,0.0,0.0,0.0,0.0,0.0,0.0,0.0,0.0,0.0,0.0,0.0,0.0,0.0,0.0,0.0,0.0,0.0,0.0,0.0,0.0,0.0,0.0,0.0,0.0,0.0,0.0,0.0,0.0,0.0,0.0,0.0,0.0,0.0,0.0,0.0,0.0,0.0,0.0,0.0,0.0,0.0,0.0,0.0,0.0,0.0,0.0,0.0,0.0,0.0,0.0,0.0,0.0,0.0,0.0,0.0,0.0,0.0,0.0,0.0,0.0,0.0,0.0,0.0,0.0,0.0,0.0,0.0,0.0,0.0,0.0,0.0,0.0,0.0,0.0,0.0,0.0,0.0,0.0,0.0,0.0,0.0,0.0,0.0,0.0,0.0,0.0,0.0,0.0,0.0,0.0,0.0,0.0,0.0,0.0,0.0,0.0,0.0,0.0,0.0,0.0,0.0,0.0,0.0,0.0,0.0,0.0,0.0,0.0,0.0,0.0,0.0,0.0,0.0,0.0,0.0,0.0,0.0,0.0,0.0,0.0,0.0,0.0,0.0,0.0,0.0,0.0,0.0,0.0,0.0,0.0,0.0,0.0,0.0,0.0,0.0,0.0,0.0,0.0,0.0,0.0,0.0,0.0,0.0,0.0,0.0,0.0,0.0,0.0,0.0,0.0,0.0,0.0,0.0,0.0,0.0,0.0,0.0,0.0,0.0,0.0,0.0,0.0,0.0,0.0,0.0,0.0,0.0,0.0,0.0,0.0,0.0,0.0,0.0,0.0,0.0,0.0,0.0,0.0,0.0,0.0,0.0,0.0,0.0,0.0,0.0,0.0,0.0,0.0,0.0,0.0,0.0,0.0,0.0,0.0,0.0,0.0,0.0,0.0,0.0,0.0,0.0,0.0,0.0,0.0,0.0,0.0,0.0,0.0,0.0,0.0,0.0,0.0,0.0,0.0,0.0,0.0,0.0,0.0,0.0,0.0,0.0,0.0,0.0,0.0,0.0,0.0,0.0,0.0,0.0,0.0,0.0,0.0,0.0,0.0,0.0,0.0,0.0,0.0,0.0,0.0,0.0,0.0,0.0,0.0,0.0,0.0,0.0,0.0,0.0,0.0,0.0,0.0,0.0,0.0,0.0,0.0,0.0,0.0,0.0,0.0,0.0,0.0,0.0,0.0,0.0,0.0,0.0,0.0,0.0,0.0,0.0,0.0,0.0,0.0,0.0,0.0,0.0,0.0,0.0,0.0,0.0,0.0,0.0,0.0,0.0,0.0,0.0,0.0,0.0,0.0,0.0,0.0,0.0,0.0,0.0,0.0,0.0,0.0,0.0,0.0,0.0,0.0,0.0,0.0,0.0,0.0,0.0,0.0,0.0,0.0,0.0,0.0,0.0,0.0,0.0,0.0,0.0,0.0,0.0,0.0,0.0,0.0,0.0,0.0,0.0,0.0,0.0,0.0,0.0,0.0,0.0,0.0,0.0,0.0,0.0,0.0,0.0,0.0,0.0,0.0,0.0,0.0,0.0,0.0,0.0,0.0,0.0,0.0,0.0,0.0,0.0,0.0,0.0,0.0,0.0,0.0,0.0,0.0,0.0,0.0,0.0,0.0,0.0,0.0,0.0,0.0,0.0,0.0,0.0,0.0,0.0,0.0,0.0,0.0,0.0,0.0,0.0,0.0,0.0,0.0,0.0,0.0,0.0,0.0,0.0,0.0,0.0,0.0,0.0,0.0,0.0,0.0,0.0,0.0,0.0,0.0,0.0,0.0,0.0,0.0,0.0,0.0,0.0,0.0,0.0,0.0,0.0,0.0,0.0,0.0,0.0,0.0,0.0,0.0,0.0,0.0,0.0,0.0,0.0,0.0,0.0,0.0,0.0,0.0,0.0,0.0,0.0,0.0,0.0,0.0,0.0,0.0,0.0,0.0,0.0,0.0,0.0,0.0,0.0,0.0,0.0,0.0,0.0,0.0,0.0,0.0,0.0,0.0,0.0,0.0,0.0,0.0,0.0,0.0,0.0,0.0,0.0,0.0,0.0,0.0,0.0,0.0,0.0,0.0,0.0,0.0,0.0,0.0,0.0,0.0,0.0,0.0,0.0,0.0,0.0,0.0,0.0,0.0,0.0,0.0,0.0,0.0,0.0,0.0,0.0,0.0,0.0,0.0,0.0,0.0,0.0,0.0,0.0,0.0,0.0,0.0,0.0,0.0,0.0,0.0,0.0,0.0,0.0,0.0,0.0,0.0,0.0,0.0,0.0,1.5719,0.0,0.0,0.0,0.0,0.0,0.0,0.0,0.0,0.0,0.0,0.0,0.0,0.0,0.0,0.0,0.0,0.0,0.0,0.0,0.0,0.0,0.0,0.0,0.0,0.0,0.0,0.0,0.0,0.0,0.0,0.0,0.0,0.0,0.0,0.0,0.0,0.0,0.0,0.0,0.0,0.0,0.0,0.0,0.0,0.0,0.0,0.0,0.0,0.0,0.0,0.0,0.0,0.0,0.0,0.0,0.0,0.0,0.0,0.0,0.0,0.0,0.0,0.0,0.0,0.0,0.0,0.0,0.0,0.0,0.0,0.0,0.0,0.0,0.0,0.0,0.0,0.0,0.0,0.0,0.0,0.0,0.0,0.0,0.0,0.0,0.0,0.0,0.0,0.0,0.0,0.0,0.0,0.0,0.0,0.0,0.0,0.0,0.0,0.0,0.0,0.0,0.0,0.0,0.0,0.0,0.0,0.0,0.0,0.0,0.0,1.5433,1.5426,1.5675,1.5806,1.5821,0.0,0.0,0.0,0.0,0.0,0.0,0.0,0.0,0.0,0.0,0.0,0.0,0.0,0.0,0.0,0.0,0.0,0.0,0.0,0.0,0.0,0.0,0.0,0.0,0.0,0.0,0.0,0.0,0.0,0.0,0.0,0.0,0.0,0.0,0.0,0.0,0.0,0.0,0.0,0.0,0.0,0.0,0.0,0.0,0.0,0.0,0.0,0.0,0.0,0.0,0.0,0.0,0.0,0.0,0.0,0.0,0.0,0.0,0.0,0.0,0.0,0.0,0.0,0.0,0.0,0.0,0.0,0.0,0.0,0.0,0.0,0.0,0.0,0.0,0.0,0.0,0.0,0.0,0.0,0.0,0.0,0.0,0.0,0.0,0.0,0.0,0.0,0.0,0.0,0.0,0.0,0.0,0.0,0.0,0.0,0.0,0.0,0.0,0.0,0.0,0.0,0.0,0.0,0.0,0.0,0.0,0.0,0.0,0.0,0.0,0.0,0.0,1.6024,1.6368,1.669,0.0,0.0,0.0,0.0,0.0,0.0,0.0,0.0,0.0,0.0,0.0,0.0,0.0,0.0,0.0,0.0,0.0,0.0,0.0,0.0,0.0,0.0,0.0,0.0,0.0,0.0,0.0,0.0,0.0,0.0,0.0,0.0,0.0,0.0,0.0,0.0,0.0,0.0,0.0,0.0,0.0,0.0,0.0,0.0,0.0,0.0,0.0,0.0,0.0,0.0,0.0,0.0,0.0,0.0,0.0,0.0,0.0,0.0,0.0,0.0,0.0,0.0,0.0,0.0,0.0,0.0,0.0,0.0,0.0,0.0,0.0,0.0,0.0,0.0,0.0,0.0,0.0,0.0,0.0,0.0,0.0,0.0,0.0,0.0,0.0,0.0,0.0,0.0,0.0,0.0,0.0,0.0,0.0,0.0,0.0,0.0,0.0,0.0,0.0,0.0,0.0,0.0,0.0,0.0,0.0,0.0,0.0,0.0,0.0,0.0,1.6293,1.741,1.748,0.0,1.9214,0.0,0.0,0.0,0.0,0.0,0.0,0.0,0.0,0.0,0.0,0.0,0.0,0.0,0.0,0.0,0.0,0.0,0.0,0.0,0.0,0.0,0.0,0.0,0.0,0.0,0.0,0.0,0.0,0.0,0.0,0.0,0.0,0.0,0.0,0.0,0.0,0.0,0.0,0.0,0.0,0.0,0.0,0.0,0.0,0.0,0.0,0.0,0.0,0.0,0.0,0.0,0.0,0.0,0.0,0.0,0.0,0.0,0.0,0.0,0.0,0.0,0.0,0.0,0.0,0.0,0.0,0.0,0.0,0.0,0.0,0.0,0.0,0.0,0.0,0.0,0.0,0.0,0.0,0.0,0.0,0.0,0.0,0.0,0.0,0.0,0.0,0.0,0.0,0.0,0.0,0.0,0.0,0.0,0.0,0.0,0.0,0.0,0.0,0.0,0.0,0.0,0.0,0.0,0.0,0.0,0.0,0.0,0.0,0.0,0.0,1.6211,1.7093,1.7107,1.7728,0.0,0.0,0.0,0.0,0.0,0.0,0.0,0.0,0.0,0.0,0.0,0.0,0.0,0.0,0.0,0.0,0.0,0.0,0.0,0.0,0.0,0.0,0.0,0.0,0.0,0.0,0.0,0.0,0.0,0.0,0.0,0.0,0.0,0.0,0.0,0.0,0.0,0.0,0.0,0.0,0.0,0.0,0.0,0.0,0.0,0.0,0.0,0.0,0.0,0.0,0.0,0.0,0.0,0.0,0.0,0.0,0.0,0.0,0.0,0.0,0.0,0.0,0.0,0.0,0.0,0.0,0.0,0.0,0.0,0.0,0.0,0.0,0.0,0.0,0.0,0.0,0.0,0.0,0.0,0.0,0.0,0.0,0.0,0.0,0.0,0.0,0.0,0.0,0.0,0.0,0.0,0.0,0.0,0.0,0.0,0.0,0.0,0.0,0.0,0.0,0.0,0.0,0.0,0.0,0.0,0.0,0.0,0.0,0.0,0.0,1.6248,1.6421,1.7197,1.707,1.7601,1.8912,0.0,0.0,0.0,0.0,0.0,0.0,0.0,0.0,0.0,0.0,0.0,0.0,0.0,0.0,0.0,0.0,0.0,0.0,0.0,0.0,0.0,0.0,0.0,0.0,0.0,0.0,0.0,0.0,0.0,0.0,0.0,0.0,0.0,0.0,0.0,0.0,0.0,0.0,0.0,0.0,0.0,0.0,0.0,0.0,0.0,0.0,0.0,0.0,0.0,0.0,0.0,0.0,0.0,0.0,0.0,0.0,0.0,0.0,0.0,0.0,0.0,0.0,0.0,0.0,0.0,0.0,0.0,0.0,0.0,0.0,0.0,0.0,0.0,0.0,0.0,0.0,0.0,0.0,0.0,0.0,0.0,0.0,0.0,0.0,0.0,0.0,0.0,0.0,0.0,0.0,0.0,0.0,0.0,0.0,0.0,0.0,0.0,0.0,0.0,0.0,0.0,0.0,0.0,0.0,0.0,0.0,0.0,0.0,1.8395,1.7302,1.7272,1.8499,1.7991,1.829,0.0,0.0,0.0,0.0,0.0,0.0,0.0,0.0,0.0,0.0,0.0,0.0,0.0,0.0,0.0,0.0,0.0,0.0,0.0,0.0,0.0,0.0,0.0,0.0,0.0,0.0,0.0,0.0,0.0,0.0,0.0,0.0,0.0,0.0,0.0,0.0,0.0,0.0,0.0,0.0,0.0,0.0,0.0,0.0,0.0,0.0,0.0,0.0,0.0,0.0,0.0,0.0,0.0,0.0,0.0,0.0,0.0,0.0,0.0,0.0,0.0,0.0,0.0,0.0,0.0,0.0,0.0,0.0,0.0,0.0,0.0,0.0,0.0,0.0,0.0,0.0,0.0,0.0,0.0,0.0,0.0,0.0,0.0,0.0,0.0,0.0,0.0,0.0,0.0,0.0,0.0,0.0,0.0,0.0,0.0,0.0,0.0,0.0,0.0,0.0,0.0,0.0,0.0,0.0,0.0,0.0,0.0,0.0,0.0,1.6787,1.6742,1.7145,1.7997,1.7405,1.7893,0.0,0.0,0.0,0.0,0.0,0.0,0.0,0.0,0.0,0.0,0.0,0.0,0.0,0.0,0.0,0.0,0.0,0.0,0.0,0.0,0.0,0.0,0.0,0.0,0.0,0.0,0.0,0.0,0.0,0.0,0.0,0.0,0.0,0.0,0.0,0.0,0.0,0.0,0.0,0.0,0.0,0.0,0.0,0.0,0.0,0.0,0.0,0.0,0.0,0.0,0.0,0.0,0.0,0.0,0.0,0.0,0.0,0.0,0.0,0.0,0.0,0.0,0.0,0.0,0.0,0.0,0.0,0.0,0.0,0.0,0.0,0.0,0.0,0.0,0.0,0.0,0.0,0.0,0.0,0.0,0.0,0.0,0.0,0.0,0.0,0.0,0.0,0.0,0.0,0.0,0.0,0.0,0.0,0.0,0.0,0.0,0.0,0.0,0.0,0.0,0.0,0.0,0.0,0.0,0.0,0.0,0.0,0.0,0.0,1.6406,0.0,1.7473,1.7661,1.7249,1.7669,0.0,0.0,0.0,0.0,0.0,0.0,0.0,0.0,0.0,0.0,0.0,0.0,0.0,0.0,0.0,0.0,0.0,0.0,0.0,0.0,0.0,0.0,0.0,0.0,0.0,0.0,0.0,0.0,0.0,0.0,0.0,0.0,0.0,0.0,0.0,0.0,0.0,0.0,0.0,0.0,0.0,0.0,0.0,0.0,0.0,0.0,0.0,0.0,0.0,0.0,0.0,0.0,0.0,0.0,0.0,0.0,0.0,0.0,0.0,0.0,0.0,0.0,0.0,0.0,0.0,0.0,0.0,0.0,0.0,0.0,0.0,0.0,0.0,0.0,0.0,0.0,0.0,0.0,0.0,0.0,0.0,0.0,0.0,0.0,0.0,0.0,0.0,0.0,0.0,0.0,0.0,0.0,0.0,0.0,0.0,0.0,0.0,0.0,0.0,0.0,0.0,0.0,0.0,0.0,0.0,0.0,0.0,0.0,1.6421,1.7609,1.829,1.832,1.775,1.7705,1.772,0.0,0.0,0.0,0.0,0.0,0.0,0.0,0.0,0.0,0.0,0.0,0.0,0.0,0.0,0.0,0.0,0.0,0.0,0.0,0.0,0.0,0.0,0.0,0.0,0.0,0.0,0.0,0.0,0.0,0.0,0.0,0.0,0.0,0.0,0.0,0.0,0.0,0.0,0.0,0.0,0.0,0.0,0.0,0.0,0.0,0.0,0.0,0.0,0.0,0.0,0.0,0.0,0.0,0.0,0.0,0.0,0.0,0.0,0.0,0.0,0.0,0.0,0.0,0.0,0.0,0.0,0.0,0.0,0.0,0.0,0.0,0.0,0.0,0.0,0.0,0.0,0.0,0.0,0.0,0.0,0.0,0.0,0.0,0.0,0.0,0.0,0.0,0.0,0.0,0.0,0.0,0.0,0.0,0.0,0.0,0.0,0.0,0.0,0.0,0.0,0.0,0.0,0.0,0.0,0.0,0.0,0.0,0.0,0.0,1.6428,1.7444,1.8341,1.9016,1.8177,1.8572,0.0,0.0,0.0,0.0,0.0,0.0,0.0,0.0,0.0,0.0,0.0,0.0,0.0,0.0,0.0,0.0,0.0,0.0,0.0,0.0,0.0,0.0,0.0,0.0,0.0,0.0,0.0,0.0,0.0,0.0,0.0,0.0,0.0,0.0,0.0,0.0,0.0,0.0,0.0,0.0,0.0,0.0,0.0,0.0,0.0,0.0,0.0,0.0,0.0,0.0,0.0,0.0,0.0,0.0,0.0,0.0,0.0,0.0,0.0,0.0,0.0,0.0,0.0,0.0,0.0,0.0,0.0,0.0,0.0,0.0,0.0,0.0,0.0,0.0,0.0,0.0,0.0,0.0,0.0,0.0,0.0,0.0,0.0,0.0,0.0,0.0,0.0,0.0,0.0,0.0,0.0,0.0,0.0,0.0,0.0,0.0,0.0,0.0,0.0,0.0,0.0,0.0,0.0,0.0,0.0,0.0,0.0,0.0,0.0,1.7686,1.8418,1.9082,1.9675,1.8882,1.9121,2.0483,0.0,0.0,0.0,0.0,0.0,0.0,0.0,0.0,0.0,0.0,0.0,0.0,0.0,0.0,0.0,0.0,0.0,0.0,0.0,0.0,0.0,0.0,0.0,0.0,0.0,0.0,0.0,0.0,0.0,0.0,0.0,0.0,0.0,0.0,0.0,0.0,0.0,0.0,0.0,0.0,0.0,0.0,0.0,0.0,0.0,0.0,0.0,0.0,0.0,0.0,0.0,0.0,0.0,0.0,0.0,0.0,0.0,0.0,0.0,0.0,0.0,0.0,0.0,0.0,0.0,0.0,0.0,0.0,0.0,0.0,0.0,0.0,0.0,0.0,0.0,0.0,0.0,0.0,0.0,0.0,0.0,0.0,0.0,0.0,0.0,0.0,0.0,0.0,0.0,0.0,0.0,0.0,0.0,0.0,0.0,0.0,0.0,0.0,0.0,0.0,0.0,0.0,0.0,0.0,0.0,0.0,0.0,0.0,2.0802,2.0922,2.0653,1.9977,1.9872,1.9504,0.0,0.0,0.0,0.0,0.0,0.0,0.0,0.0,0.0,0.0,0.0,0.0,0.0,0.0,0.0,0.0,0.0,0.0,0.0,0.0,0.0,0.0,0.0,0.0,0.0,0.0,0.0,0.0,0.0,0.0,0.0,0.0,0.0,0.0,0.0,0.0,0.0,0.0,0.0,0.0,0.0,0.0,0.0,0.0,0.0,0.0,0.0,0.0,0.0,0.0,0.0,0.0,0.0,0.0,0.0,0.0,0.0,0.0,0.0,0.0,0.0,0.0,0.0,0.0,0.0,0.0,0.0,0.0,0.0,0.0,0.0,0.0,0.0,0.0,0.0,0.0,0.0,0.0,0.0,0.0,0.0,0.0,0.0,0.0,0.0,0.0,0.0,0.0,0.0,0.0,0.0,0.0,0.0,0.0,0.0,0.0,0.0,0.0,0.0,0.0,0.0,0.0,0.0,0.0,0.0,0.0,0.0,0.0,0.0,2.2169,2.358,2.3748,2.2607,2.1665,2.1096,0.0,0.0,0.0,0.0,0.0,0.0,0.0,0.0,0.0,0.0,0.0,0.0,0.0,0.0,0.0,0.0,0.0,0.0,0.0,0.0,0.0,0.0,0.0,0.0,0.0,0.0,0.0,0.0,0.0,0.0,0.0,0.0,0.0,0.0,0.0,0.0,0.0,0.0,0.0,0.0,0.0,0.0,0.0,0.0,0.0,0.0,0.0,0.0,0.0,0.0,0.0,0.0,0.0,0.0,0.0,0.0,0.0,0.0,0.0,0.0,0.0,0.0,0.0,0.0,0.0,0.0,0.0,0.0,0.0,0.0,0.0,0.0,0.0,0.0,0.0,0.0,0.0,0.0,0.0,0.0,0.0,0.0,0.0,0.0,0.0,0.0,0.0,0.0,0.0,0.0,0.0,0.0,0.0,0.0,0.0,0.0,0.0,0.0,0.0,0.0,0.0,0.0,0.0,0.0,0.0,0.0,0.0,0.0,2.2308,2.389,2.5581,2.6075,2.5297,2.4283,2.2966,0.0,0.0,0.0,0.0,0.0,0.0,0.0,0.0,0.0,0.0,0.0,0.0,0.0,0.0,0.0,0.0,0.0,0.0,0.0,0.0,0.0,0.0,0.0,0.0,0.0,0.0,0.0,0.0,0.0,0.0,0.0,0.0,0.0,0.0,0.0,0.0,0.0,0.0,0.0,0.0,0.0,0.0,0.0,0.0,0.0,0.0,0.0,0.0,0.0,0.0,0.0,0.0,0.0,0.0,0.0,0.0,0.0,0.0,0.0,0.0,0.0,0.0,0.0,0.0,0.0,0.0,0.0,0.0,0.0,0.0,0.0,0.0,0.0,0.0,0.0,0.0,0.0,0.0,0.0,0.0,0.0,0.0,0.0,0.0,0.0,0.0,0.0,0.0,0.0,0.0,0.0,0.0,0.0,0.0,0.0,0.0,0.0,0.0,0.0,0.0,0.0,0.0,0.0,0.0,0.0,0.0,0.0,0.0,2.371,2.5558,2.6988,2.766,2.757,2.6809,2.4642,0.0,0.0,0.0,0.0,0.0,0.0,0.0,0.0,0.0,0.0,0.0,0.0,0.0,0.0,0.0,0.0,0.0,0.0,0.0,0.0,0.0,0.0,0.0,0.0,0.0,0.0,0.0,0.0,0.0,0.0,0.0,0.0,0.0,0.0,0.0,0.0,0.0,0.0,0.0,0.0,0.0,0.0,0.0,0.0,0.0,0.0,0.0,0.0,0.0,0.0,0.0,0.0,0.0,0.0,0.0,0.0,0.0,0.0,0.0,0.0,0.0,0.0,0.0,0.0,0.0,0.0,0.0,0.0,0.0,0.0,0.0,0.0,0.0,0.0,0.0,0.0,0.0,0.0,0.0,0.0,0.0,0.0,0.0,0.0,0.0,0.0,0.0,0.0,0.0,0.0,0.0,0.0,0.0,0.0,0.0,0.0,0.0,0.0,0.0,0.0,0.0,0.0,0.0,0.0,0.0,0.0,0.0,0.0,2.4118,2.5573,2.7425,2.8126,2.7615,2.5917,2.3913,0.0,0.0,0.0,0.0,0.0,0.0,0.0,0.0,0.0,0.0,0.0,0.0,0.0,0.0,0.0,0.0,0.0,0.0,0.0,0.0,0.0,0.0,0.0,0.0,0.0,0.0,0.0,0.0,0.0,0.0,0.0,0.0,0.0,0.0,0.0,0.0,0.0,0.0,0.0,0.0,0.0,0.0,0.0,0.0,0.0,0.0,0.0,0.0,1.5864,0.0,0.0,0.0,0.0,0.0,0.0,0.0,0.0,0.0,0.0,0.0,0.0,0.0,0.0,0.0,0.0,0.0,0.0,0.0,0.0,0.0,0.0,0.0,0.0,0.0,0.0,0.0,0.0,0.0,0.0,0.0,0.0,0.0,0.0,0.0,0.0,0.0,0.0,0.0,0.0,0.0,0.0,0.0,0.0,0.0,0.0,0.0,0.0,0.0,0.0,0.0,0.0,0.0,0.0,0.0,0.0,0.0,0.0,0.0,2.4242,2.56,2.756,2.8427,2.8006,2.5812,2.3838,0.0,0.0,0.0,0.0,0.0,0.0,0.0,0.0,0.0,0.0,0.0,0.0,0.0,0.0,0.0,0.0,0.0,0.0,0.0,0.0,0.0,0.0,0.0,0.0,0.0,0.0,0.0,0.0,0.0,0.0,0.0,0.0,0.0,0.0,0.0,0.0,0.0,0.0,0.0,0.0,0.0,0.0,0.0,0.0,0.0,0.0,0.0,0.0,0.0,0.0,0.0,0.0,0.0,0.0,0.0,0.0,0.0,0.0,0.0,0.0,0.0,0.0,0.0,0.0,0.0,0.0,0.0,0.0,0.0,0.0,0.0,0.0,0.0,0.0,0.0,0.0,0.0,0.0,0.0,0.0,0.0,0.0,0.0,0.0,0.0,0.0,0.0,0.0,0.0,0.0,0.0,0.0,0.0,0.0,0.0,0.0,0.0,0.0,0.0,0.0,0.0,0.0,0.0,0.0,0.0,0.0,0.0,2.2682,2.4253,2.5603,2.7455,2.8397,2.8263,2.5797,2.3898,2.2763,0.0,0.0,0.0,0.0,0.0,0.0,0.0,0.0,0.0,0.0,0.0,0.0,0.0,0.0,0.0,0.0,0.0,0.0,0.0,0.0,0.0,0.0,0.0,0.0,0.0,0.0,0.0,0.0,0.0,0.0,0.0,0.0,0.0,0.0,0.0,0.0,0.0,0.0,1.5892,1.5781,0.0,0.0,0.0,0.0,0.0,0.0,0.0,0.0,1.6513,0.0,0.0,0.0,0.0,0.0,0.0,0.0,0.0,0.0,0.0,0.0,0.0,0.0,0.0,0.0,0.0,0.0,0.0,0.0,0.0,0.0,0.0,0.0,0.0,0.0,0.0,0.0,0.0,0.0,0.0,0.0,0.0,0.0,0.0,0.0,0.0,0.0,0.0,0.0,0.0,0.0,0.0,0.0,0.0,0.0,0.0,0.0,0.0,0.0,0.0,0.0,0.0,0.0,0.0,0.0,0.0,2.152,2.2892,2.4253,2.5573,2.7018,2.7495,2.6899,2.4866,2.3441,2.2688,0.0,0.0,0.0,0.0,0.0,0.0,0.0,0.0,0.0,0.0,0.0,0.0,0.0,0.0,0.0,0.0,0.0,0.0,0.0,0.0,0.0,0.0,0.0,0.0,0.0,0.0,0.0,0.0,0.0,0.0,0.0,0.0,0.0,0.0,0.0,0.0,0.0,0.0,0.0,1.6362,1.6358,0.0,0.0,0.0,0.0,0.0,0.0,0.0,0.0,1.6466,0.0,0.0,0.0,0.0,0.0,0.0,0.0,0.0,0.0,0.0,0.0,0.0,0.0,0.0,0.0,0.0,0.0,0.0,0.0,0.0,0.0,0.0,0.0,0.0,0.0,0.0,0.0,0.0,0.0,0.0,0.0,0.0,0.0,0.0,0.0,0.0,0.0,0.0,0.0,0.0,0.0,0.0,0.0,0.0,0.0,0.0,0.0,0.0,0.0,0.0,0.0,0.0,0.0,0.0,0.0,2.2179,2.3127,2.4418,2.6063,2.6749,2.6926,2.6569,2.4354,2.2977,0.0,0.0,0.0,0.0,0.0,0.0,0.0,0.0,0.0,0.0,0.0,0.0,0.0,0.0,0.0,0.0,0.0,0.0,0.0,0.0,0.0,0.0,0.0,0.0,0.0,0.0,0.0,0.0,0.0,0.0,0.0,0.0,0.0,0.0,0.0,0.0,0.0,0.0,0.0,0.0,1.6513,1.6513,1.6513,0.0,0.0,0.0,0.0,0.0,0.0,1.6762,1.6961,0.0,0.0,0.0,0.0,0.0,0.0,0.0,0.0,0.0,0.0,0.0,0.0,0.0,0.0,0.0,0.0,0.0,0.0,0.0,0.0,0.0,0.0,0.0,0.0,0.0,0.0,0.0,0.0,0.0,0.0,0.0,0.0,0.0,0.0,0.0,0.0,0.0,0.0,0.0,0.0,0.0,0.0,0.0,0.0,0.0,0.0,0.0,0.0,0.0,0.0,0.0,0.0,0.0,0.0,0.0,2.2638,2.3281,2.4578,2.6494,2.6614,2.6588,2.6528,2.4117,2.2767,0.0,0.0,0.0,0.0,0.0,0.0,0.0,0.0,0.0,0.0,0.0,0.0,0.0,0.0,0.0,0.0,0.0,0.0,0.0,0.0,0.0,0.0,0.0,0.0,0.0,0.0,0.0,0.0,0.0,0.0,0.0,0.0,0.0,0.0,0.0,0.0,0.0,0.0,0.0,0.0,0.0,1.6513,1.6513,1.6599,0.0,0.0,0.0,0.0,1.671,1.7262,0.0,0.0,0.0,0.0,0.0,0.0,0.0,0.0,0.0,0.0,0.0,0.0,0.0,0.0,0.0,0.0,0.0,0.0,0.0,0.0,0.0,0.0,0.0,0.0,0.0,0.0,0.0,0.0,0.0,0.0,0.0,0.0,0.0,0.0,0.0,0.0,0.0,0.0,0.0,0.0,0.0,0.0,0.0,0.0,0.0,0.0,0.0,0.0,0.0,0.0,0.0,0.0,0.0,0.0,0.0,0.0,2.2628,2.3295,2.4578,2.6494,2.6614,2.6554,2.6411,2.4353,2.2998,0.0,0.0,0.0,0.0,0.0,0.0,0.0,0.0,0.0,0.0,0.0,0.0,0.0,0.0,0.0,0.0,0.0,0.0,0.0,0.0,0.0,0.0,0.0,0.0,0.0,0.0,0.0,0.0,0.0,0.0,0.0,0.0,0.0,0.0,0.0,0.0,0.0,0.0,0.0,0.0,0.0,1.6513,1.6513,1.6937,1.7299,0.0,0.0,1.784,1.7374,1.8142,0.0,0.0,0.0,0.0,0.0,0.0,0.0,0.0,0.0,0.0,0.0,0.0,0.0,0.0,0.0,0.0,0.0,0.0,0.0,0.0,0.0,0.0,0.0,0.0,0.0,0.0,0.0,0.0,0.0,0.0,0.0,0.0,0.0,0.0,0.0,0.0,0.0,0.0,0.0,0.0,0.0,0.0,0.0,0.0,0.0,0.0,0.0,0.0,0.0,0.0,0.0,0.0,0.0,0.0,0.0,2.1085,2.3143,2.4045,2.554,2.7563,2.6948,2.6655,2.6892,2.4205,2.2966,0.0,0.0,0.0,0.0,0.0,0.0,0.0,0.0,0.0,0.0,0.0,0.0,0.0,0.0,0.0,0.0,0.0,0.0,0.0,0.0,0.0,0.0,0.0,0.0,0.0,0.0,0.0,0.0,0.0,0.0,0.0,0.0,0.0,0.0,0.0,0.0,0.0,0.0,0.0,0.0,0.0,0.0,1.6999,1.7488,0.0,0.0,0.0,1.8468,1.7928,0.0,0.0,0.0,0.0,0.0,0.0,0.0,0.0,0.0,0.0,0.0,0.0,0.0,0.0,0.0,0.0,0.0,0.0,0.0,0.0,0.0,0.0,0.0,0.0,0.0,0.0,0.0,0.0,0.0,0.0,0.0,0.0,0.0,0.0,0.0,0.0,0.0,0.0,0.0,0.0,0.0,0.0,0.0,0.0,0.0,0.0,0.0,0.0,0.0,0.0,0.0,0.0,0.0,0.0,0.0,0.0,0.0,2.3513,2.4367,2.5994,2.8319,2.716,2.6806,2.7428,2.435,0.0,0.0,0.0,0.0,0.0,0.0,0.0,0.0,0.0,0.0,0.0,0.0,0.0,0.0,0.0,0.0,0.0,0.0,0.0,0.0,0.0,0.0,0.0,0.0,0.0,0.0,0.0,1.7493,0.0,0.0,0.0,0.0,0.0,0.0,0.0,0.0,0.0,0.0,0.0,0.0,0.0,0.0,1.7751,1.7625,1.8191,1.8594,0.0,0.0,1.9246,1.8694,1.9522,1.9936,0.0,0.0,0.0,0.0,0.0,0.0,0.0,0.0,0.0,0.0,0.0,0.0,0.0,0.0,0.0,0.0,0.0,0.0,0.0,0.0,0.0,0.0,0.0,0.0,0.0,0.0,0.0,0.0,0.0,0.0,0.0,0.0,0.0,0.0,0.0,0.0,0.0,0.0,0.0,0.0,0.0,0.0,0.0,0.0,0.0,0.0,0.0,0.0,0.0,0.0,0.0,0.0,0.0,0.0,0.0,2.3314,2.3613,2.5246,2.8139,2.7072,2.6914,2.7958,2.5161,2.4023,0.0,0.0,0.0,0.0,0.0,0.0,0.0,0.0,0.0,0.0,0.0,0.0,0.0,0.0,0.0,0.0,0.0,0.0,0.0,0.0,0.0,0.0,0.0,0.0,0.0,0.0,0.0,0.0,0.0,0.0,0.0,0.0,0.0,0.0,0.0,0.0,0.0,0.0,0.0,0.0,0.0,1.8707,1.8229,1.9032,1.9698,0.0,0.0,2.0377,1.9786,2.0627,2.0827,1.9259,0.0,0.0,0.0,0.0,0.0,0.0,0.0,0.0,0.0,0.0,0.0,0.0,0.0,0.0,0.0,0.0,0.0,0.0,0.0,0.0,0.0,0.0,0.0,0.0,0.0,0.0,0.0,0.0,0.0,0.0,0.0,0.0,0.0,0.0,0.0,0.0,0.0,0.0,0.0,0.0,0.0,0.0,0.0,0.0,0.0,0.0,0.0,0.0,0.0,0.0,0.0,0.0,0.0,2.1688,2.4035,2.5016,2.6815,2.9338,2.8212,2.7882,2.8619,2.588,2.4911,0.0,0.0,0.0,0.0,0.0,0.0,0.0,0.0,0.0,0.0,0.0,0.0,0.0,0.0,0.0,0.0,0.0,0.0,0.0,0.0,0.0,0.0,0.0,0.0,0.0,0.0,0.0,0.0,1.8298,1.8023,1.7827,0.0,0.0,0.0,0.0,0.0,0.0,0.0,0.0,0.0,0.0,1.9916,1.9395,1.9914,0.0,0.0,2.0577,2.049,1.9899,2.0477,2.0665,1.9647,1.9861,0.0,0.0,0.0,0.0,0.0,0.0,0.0,0.0,0.0,0.0,0.0,0.0,0.0,0.0,0.0,0.0,0.0,0.0,0.0,0.0,0.0,0.0,0.0,0.0,0.0,0.0,0.0,0.0,0.0,0.0,0.0,0.0,0.0,0.0,0.0,0.0,0.0,0.0,0.0,0.0,0.0,0.0,0.0,0.0,0.0,0.0,0.0,0.0,0.0,0.0,0.0,0.0,2.2597,2.4953,2.6049,2.7766,3.0184,2.9095,2.8664,2.8932,2.6634,2.5798,0.0,0.0,0.0,0.0,0.0,0.0,0.0,0.0,0.0,0.0,0.0,0.0,0.0,0.0,0.0,0.0,0.0,0.0,0.0,0.0,0.0,0.0,0.0,0.0,0.0,0.0,0.0,0.0,1.8968,1.8631,1.8631,0.0,0.0,0.0,0.0,0.0,0.0,0.0,0.0,0.0,0.0,2.1131,2.0578,2.0782,2.1003,2.1025,2.0835,2.0541,2.0125,2.0427,2.049,1.9899,0.0,0.0,0.0,0.0,0.0,0.0,0.0,0.0,0.0,0.0,0.0,0.0,0.0,0.0,0.0,0.0,0.0,0.0,0.0,0.0,0.0,0.0,0.0,0.0,0.0,0.0,0.0,0.0,0.0,0.0,2.1749,0.0,0.0,0.0,0.0,0.0,0.0,0.0,0.0,0.0,0.0,0.0,0.0,0.0,0.0,0.0,0.0,0.0,0.0,0.0,0.0,0.0,0.0,2.3581,2.6022,2.625,2.7565,3.0015,2.9493,2.9118,2.8949,2.7477,2.6666,2.6708,0.0,0.0,0.0,0.0,0.0,0.0,0.0,0.0,0.0,0.0,0.0,0.0,0.0,0.0,0.0,0.0,0.0,0.0,0.0,0.0,0.0,0.0,0.0,0.0,0.0,0.0,2.0654,2.0192,1.9867,0.0,0.0,0.0,0.0,0.0,0.0,0.0,0.0,0.0,0.0,2.2161,2.2326,2.1756,2.1634,2.1615,2.1588,2.1119,2.0706,2.0708,2.0693,2.0503,0.0,0.0,0.0,0.0,0.0,0.0,0.0,0.0,0.0,0.0,0.0,0.0,0.0,0.0,0.0,0.0,0.0,0.0,0.0,0.0,0.0,0.0,0.0,0.0,0.0,0.0,0.0,2.2977,2.2977,0.0,0.0,0.0,0.0,0.0,0.0,0.0,0.0,0.0,0.0,0.0,2.4021,2.5037,0.0,0.0,0.0,0.0,0.0,0.0,0.0,0.0,0.0,0.0,0.0,0.0,2.4186,2.6704,2.7146,2.8449,3.0741,3.0138,2.9549,2.9027,2.7977,2.719,2.6725,0.0,0.0,0.0,0.0,0.0,0.0,0.0,0.0,0.0,0.0,0.0,0.0,0.0,0.0,0.0,0.0,0.0,0.0,0.0,0.0,0.0,0.0,0.0,0.0,0.0,2.1839,0.0,0.0,0.0,0.0,0.0,0.0,0.0,0.0,0.0,0.0,0.0,2.1785,2.1706,2.2562,2.301,2.2457,2.2683,2.2781,0.0,0.0,0.0,0.0,0.0,0.0,0.0,0.0,0.0,0.0,0.0,0.0,0.0,0.0,2.1103,1.9999,1.9592,1.9436,1.9436,0.0,0.0,0.0,0.0,0.0,0.0,0.0,0.0,0.0,0.0,0.0,0.0,0.0,0.0,2.4418,0.0,2.4163,0.0,0.0,0.0,0.0,0.0,0.0,0.0,0.0,2.5046,2.5443,2.533,2.6389,2.6436,0.0,2.5404,2.5051,0.0,0.0,0.0,0.0,0.0,0.0,0.0,0.0,2.5157,2.7707,2.8079,2.9178,3.1072,3.0734,3.0006,2.9027,2.796,2.719,2.6708,2.6708,2.6708,0.0,0.0,0.0,0.0,0.0,0.0,0.0,0.0,0.0,0.0,0.0,0.0,0.0,0.0,0.0,0.0,0.0,0.0,0.0,0.0,0.0,0.0,0.0,2.2423,0.0,0.0,0.0,0.0,0.0,0.0,0.0,0.0,0.0,2.2363,2.254,2.2712,2.2699,2.3181,2.358,2.3681,0.0,0.0,0.0,0.0,0.0,0.0,0.0,2.2184,2.3225,2.3081,2.3318,2.4797,2.4929,2.4746,2.4394,0.0,0.0,2.0773,2.0388,2.0388,2.0388,2.0539,2.0803,2.1181,2.1091,2.1153,0.0,0.0,0.0,0.0,0.0,0.0,0.0,0.0,2.5393,2.5989,0.0,2.5229,0.0,0.0,0.0,0.0,0.0,2.3769,0.0,0.0,2.5571,2.6129,2.6756,2.7479,2.7713,2.7585,2.7038,2.6634,2.6334,2.5172,0.0,0.0,0.0,0.0,0.0,0.0,2.6498,2.8889,2.901,2.9745,3.114,3.1173,3.0473,2.9053,2.7512,2.6716,2.6708,2.6708,2.6708,2.6708,2.6725,0.0,0.0,0.0,0.0,0.0,0.0,0.0,0.0,0.0,0.0,0.0,0.0,0.0,0.0,0.0,0.0,0.0,0.0,0.0,0.0,2.3097,0.0,0.0,0.0,0.0,0.0,0.0,0.0,0.0,0.0,0.0,2.3671,2.316,2.3233,2.4454,0.0,0.0,0.0,0.0,2.4028,2.4667,2.4237,2.3847,2.3846,2.3807,2.4029,2.4735,0.0,0.0,2.5754,2.5866,2.5909,2.5839,2.5799,2.4915,2.2271,2.1708,2.1629,2.1627,2.2015,2.2334,2.237,2.2684,2.3032,2.6779,0.0,0.0,0.0,0.0,2.5959,2.6288,2.6749,2.6956,2.6854,2.6584,2.6198,0.0,0.0,0.0,0.0,0.0,0.0,2.7081,2.8208,2.9298,2.9687,2.9477,3.0577,3.0615,2.9731,2.9515,2.9113,2.8449,2.8076,2.6998,2.5227,0.0,0.0,0.0,0.0,2.7353,2.8939,2.9516,3.0243,3.1173,3.119,3.049,2.9036,2.7512,2.6708,2.6708,2.6708,2.6708,2.6716,2.7207,0.0,0.0,0.0,0.0,0.0,0.0,0.0,0.0,0.0,0.0,0.0,0.0,0.0,0.0,0.0,0.0,0.0,0.0,0.0,2.4261,2.4167,2.4167,0.0,0.0,0.0,0.0,0.0,0.0,0.0,0.0,0.0,2.502,2.4454,2.4352,0.0,0.0,2.5154,2.5558,2.5694,2.5823,2.6028,2.6307,0.0,2.6501,2.6089,2.6176,2.729,2.8249,2.891,2.9101,2.9044,2.8856,2.8412,2.785,2.7055,2.5906,2.4494,2.3648,2.3576,2.3549,2.3517,2.3512,2.3653,2.3863,2.9639,2.7891,2.7397,2.7423,2.7797,2.8038,2.838,2.877,2.9039,2.9254,2.9357,2.8523,2.8094,2.7942,2.6735,0.0,0.0,0.0,2.9568,3.0944,3.1945,3.2359,3.2341,3.3307,3.3249,3.2217,3.1933,3.1363,3.0493,3.0245,2.9117,2.718,0.0,0.0,2.6728,2.7261,2.8168,2.9396,3.0159,3.076,3.119,3.092,3.0337,2.9441,2.7943,2.7139,2.7131,2.7148,2.7148,2.7139,2.7858,2.8139,0.0,0.0,0.0,0.0,0.0,0.0,0.0,0.0,0.0,0.0,0.0,2.4391,2.4388,0.0,0.0,0.0,2.4391,2.4552,2.4963,2.5005,0.0,0.0,0.0,0.0,0.0,0.0,0.0,2.56,2.56,2.5719,2.5959,2.5648,2.5543,2.5944,2.5767,2.5794,2.6318,0.0,2.6794,2.7305,2.7737,2.8109,2.8349,2.805,2.8138,2.9182,3.0194,3.0867,3.0898,3.0822,3.0558,2.9987,2.9652,2.9299,2.867,2.7551,2.6307,2.5325,2.5107,2.5055,2.4715,2.4808,2.51,3.2377,3.172,3.0552,2.9967,2.9877,3.0417,3.0673,3.0791,3.1376,3.2378,3.3427,3.1618,3.1133,3.168,2.9866,0.0,3.0157,3.082,3.1909,3.3312,3.3879,3.4448,3.5062,3.5666,3.5584,3.4841,3.4299,3.354,3.257,3.2029,3.1235,3.0265,2.9175,2.8405,2.8016,2.8355,2.9098,3.0258,3.1004,3.1352,3.1268,3.0514,3.0098,3.0081,2.8669,2.7891,2.79,2.7891,2.7891,2.7925,2.8653,2.9103,2.9085,0.0,0.0,0.0,0.0,0.0,0.0,0.0,0.0,0.0,0.0,0.0,0.0,0.0,0.0,0.0,2.56,0.0,2.5689,2.5689,0.0,0.0,0.0,2.5764,2.5764,2.5752,2.5737,2.5779,0.0,0.0,2.6614,2.6674,2.6689,2.6689,2.6153,2.621,2.7448,2.7048,2.7153,2.8338,2.8577,2.8831,2.9353,2.9446,2.9642,3.0254,3.0972,3.1241,3.1301,3.1242,3.1062,3.0465,3.0943,3.1183,3.0583,3.0236,2.9549,2.6867,2.6664,2.669,2.5972,2.6089,2.6336,3.4695,3.4516,3.4233,3.323,3.1824,3.1959,3.2332,3.2796,3.2961,3.2931,3.2792,3.2902,3.2833,3.262,3.2583,3.2951,3.3694,3.4362,3.5423,3.6676,3.6848,3.7003,3.7192,3.7335,3.7308,3.7122,3.6968,3.6184,3.4856,3.4678,3.3644,3.1867,3.2036,3.1301,2.9666,3.0721,3.1463,3.1769,3.251,3.2605,3.2022,3.0768,3.0098,3.0081,2.9194,2.8713,2.8713,2.873,2.8713,2.873,2.9431,2.9854,2.9828,2.9329,0.0,0.0,0.0,0.0,0.0,0.0,0.0,0.0,0.0,2.56,2.56,0.0,2.56,0.0,2.56,2.5797,2.6303,2.6375,0.0,0.0,2.7121,2.7121,2.7121,2.7136,2.7123,2.7123,2.7136,2.7195,2.7345,2.736,2.736,2.736,2.721,2.7255,2.7555,2.748,2.7632,2.8425,2.8592,2.8831,2.9458,2.9608,2.9788,3.0402,3.0268,3.0208,3.0672,3.0357,2.9983,2.9877,3.0328,3.0627,3.0522,3.0889,3.0529,2.8934,2.8023,2.7443,2.7255,2.6836,2.6504,3.6211,3.6508,3.6538,3.5859,3.484,3.4469,3.4547,3.4897,3.5261,3.5386,3.5356,3.5548,3.5244,3.4655,3.4996,3.5555,3.629,3.6947,3.7828,3.8857,3.8882,3.887,3.8886,3.8882,3.87,3.8396,3.8396,3.7775,3.6676,3.6614,3.5645,3.3812,3.4539,3.3947,3.2144,3.2554,3.2791,3.2797,3.3186,3.3372,3.3231,3.1843,3.1072,3.1055,3.005,2.9482,2.9491,2.9491,2.9491,2.9516,3.0192,3.0581,3.0589,3.0304,3.0022,0.0,0.0,0.0,0.0,0.0,0.0,0.0,0.0,0.0,0.0,0.0,2.6507,2.6497,2.6509,2.6644,2.7003,2.7318,2.7647,2.8006,2.8051,2.8036,2.8064,2.7779,2.7585,2.7585,2.7585,2.7585,2.7585,2.7585,2.7585,2.7585,2.7585,2.7585,2.7585,2.7585,2.7839,2.8485,2.8592,2.8831,2.9488,2.9608,2.9698,2.9983,2.9832,2.9713,3.0028,2.9832,2.9532,2.9264,2.9683,3.0088,3.0118,3.0372,3.0399,2.9914,2.8829,2.8034,2.7853,2.7745,2.762,3.7175,3.7807,3.7822,3.7822,3.7748,3.7159,3.6843,3.6813,3.75,3.822,3.8861,3.8352,3.7789,3.7208,3.7208,3.7595,3.8295,3.8821,3.9437,4.0083,4.0113,4.0113,4.0113,4.0113,3.9774,3.9153,3.9153,3.8751,3.8046,3.8046,3.7319,3.5971,3.6513,3.6175,3.4945,3.4201,3.3795,3.3683,3.3582,3.3863,3.4466,3.3061,3.2293,3.2242,3.0954,3.0234,3.0234,3.0234,3.0234,3.0251,3.0862,3.119,3.119,3.119,3.0948,0.0,3.0398,0.0,0.0,0.0,0.0,0.0,0.0,0.0,0.0,2.765,2.763,2.7705,2.7735,2.7764,2.7852,2.8395,2.8727,2.874,2.8652,2.8592,2.8562,2.8006,2.7585,2.7585,2.7585,2.7585,2.7585,2.7585,2.7585,2.7585,2.7585,2.7585,2.7585,2.7585,2.7809,2.841,2.8457,2.859,2.9084,2.9277,2.9309,2.9413,2.9337,2.9368,2.9443,2.9353,2.9144,2.8695,2.9009,2.9443,2.9473,2.9533,2.9773,3.0034,2.9196,2.8454,2.8296,2.8398,2.8876,3.7661,3.7807,3.7822,3.7822,3.7836,3.8288,3.8117,3.7604,3.7733,3.8203,3.8878,3.879,3.901,3.9461,3.9474,3.9555,3.9699,3.9821,3.9969,4.0113,4.0113,4.0113,4.0113,4.0113,4.0028,3.991,3.991,3.9508,3.8802,3.8802,3.8345,3.7471,3.7038,3.6953,3.7195,0.0,0.0,0.0,3.459,3.4353,3.4449,3.3044,3.2293,3.2276,3.1454,0.0,3.0987,3.0997,3.0997,3.1004,3.1123,0.0,0.0,0.0,0.0,0.0,0.0,0.0,0.0,0.0,0.0,0.0,2.9404,2.8861,2.8355,2.7882,2.7839,2.8351,2.8397,2.8635,2.9172,2.9324,2.9413,2.9398,2.8949,2.8592,2.8577,2.8006,2.7585,2.7585,2.7585,2.7585,2.7585,2.7585,2.7585,2.7585,2.7585,2.7585,2.7585,2.7585,2.7632,2.7779,2.7827,2.7839,2.7944,2.8019,2.8304,2.856,2.8291,2.8231,2.865,2.8349,2.8004,2.7812,2.8351,2.88,2.8816,2.9204,2.94,2.9041,2.9159,2.9289,2.9072,2.857,2.8331,3.9687,3.9979,3.9619,3.9471,0.0,3.9481,3.9292,3.8927,3.8941,3.9143,3.9489,3.9503,3.9718,4.0113,4.0113,4.0113,4.0113,4.0113,4.0113,4.0113,4.0113,4.0113,4.0113,4.0113,4.0113,4.0113,4.0113,3.9914,3.9559,3.9559,3.9169,3.843,3.8058,3.7889,3.7889,3.7533,3.6958,3.6197,3.5436,3.5047,3.4996,3.3964,3.3224,3.2858,3.2131,0.0,0.0,0.0,0.0,0.0,0.0,0.0,0.0,3.119,0.0,3.119,3.119,3.1369,3.1698,3.1439,3.1452,3.1792,3.1276,3.0394,2.9086,2.9032,2.908,2.9081,2.9086,2.9234,2.9577,2.9862,3.0057,3.0027,2.9473,2.9099,2.9009,2.8214,2.76,2.7585,2.7585,2.7585,2.7585,2.7585,2.7585,2.7585,2.7585,2.7585,2.7585,2.7585,2.7585,2.7585,2.7585,2.76,2.7585,2.7585,2.7675,2.7976,2.7824,2.7764,2.8036,2.7839,2.7585,2.7615,2.7899,2.8171,2.8517,2.8635,2.8603,2.8592,2.8605,2.8737,2.8912,2.9087,2.9446,4.1752,4.2249,4.1644,4.1377,4.1339,4.0743,4.0434,4.0299,0.0,0.0,0.0,4.0451,4.0417,4.0303,4.0286,4.0231,4.0113,4.0113,4.0113,4.0113,4.0113,4.0113,4.0113,4.0113,4.0113,4.0113,4.0113,4.0113,4.0113,4.0113,3.9795,3.9237,3.9085,3.87,3.813,3.8079,3.7736,3.7004,3.6214,3.5746,3.5583,3.4878,3.4201,3.3609,3.2892,3.2148,3.1427,3.1512,3.1512,3.142,3.1512,3.1596,3.1589,3.1606,3.1579,3.1589,3.1589,3.1843,3.2462,3.2513,3.2757,3.3362,3.3083,3.2012,3.0035,3.0426,3.0613,3.0154,3.0131,3.0177,3.0298,3.0633,3.0867,3.0881,3.0214,2.9758,2.9683,2.8708,2.8006,2.7944,2.8019,2.7944,2.8004,2.7884,2.7767,2.7764,2.7705,2.7585,2.7585,2.7585,2.7585,2.7585,2.7585,2.7585,2.7585,2.7585,2.7585,2.763,2.7615,2.7585,2.7585,2.7585,2.7585,2.7585,2.7585,2.7839,2.8248,2.8021,2.7809,2.8321,2.7991,2.7809,2.85,2.9415,3.0213,4.2206,4.2283,4.2198,4.2147,4.2147,4.2046,4.164,4.1068,4.1052,4.1039,4.1085,4.1711,4.1627,4.1035,4.1035,4.0709,4.0113,4.0113,4.0113,4.0113,4.0113,4.0113,4.0113,4.0113,4.0113,4.0113,4.0113,4.0113,4.0113,4.0113,4.0015,3.9876,3.9322,3.8966,3.8836,3.8853,3.8481,3.7753,3.7021,3.6282,3.56,3.4895,3.4455,3.432,3.3626,3.2899,3.2175,3.2757,3.2797,3.2192,3.2747,3.3102,3.3085,3.3051,3.3102,3.3091,3.3074,3.3125,3.3227,3.3237,3.3294,3.3413,3.39,3.3395,3.1534,3.1402,3.1657,3.2091,3.2111,3.2412,3.2904,3.2538,3.2264,3.2192,3.1151,3.0401,3.0396,2.9779,2.9312,2.927,2.9337,2.9275,2.9097,2.8725,2.8382,2.8351,2.7899,2.7585,2.7585,2.7585,2.7585,2.7585,2.7585,2.7585,2.7585,2.7585,2.7585,2.7585,2.7585,2.7585,2.7585,2.7585,2.7585,2.7585,2.7585,2.7645,2.7779,2.769,2.766,2.7824,2.766,2.7824,2.8397,2.8771,2.9116,4.3552,4.3484,4.3081,4.2882,4.2848,4.2455,4.2113,4.1847,4.2222,4.1935,4.1255,4.1559,4.1745,4.1796,4.1796,4.1606,4.1284,4.0878,4.0696,4.0663,4.0299,4.0113,4.0113,4.0113,4.0113,4.0113,4.0113,4.0113,4.0113,4.0113,4.0113,4.0079,3.9745,3.9592,3.9592,3.9592,3.9051,3.7922,3.7173,3.6411,3.5616,3.5273,3.4928,3.4506,3.4161,3.3643,3.2943,3.322,3.3254,3.2899,3.322,3.3389,3.3389,3.3389,3.3389,3.3389,3.3389,3.3592,3.3964,3.4359,3.4596,3.4613,3.4901,3.4762,3.3839,3.3439,3.3194,3.3174,3.3143,3.3255,3.3563,3.3329,3.3145,3.3159,3.224,3.1651,3.1586,3.107,3.0541,3.0221,3.0129,2.9879,2.9139,2.8786,2.8412,2.8141,2.775,2.7585,2.7585,2.7585,2.7585,2.7585,2.7585,2.7585,2.7585,2.7585,2.7585,2.7585,2.7585,2.7585,2.7585,2.7585,2.7585,2.7585,2.7585,2.7585,2.7585,2.7585,2.7585,2.7585,2.7585,2.7767,2.7991,2.8051,2.8425,4.4584,4.4516,4.3927,4.366,4.3609,4.2861,4.254,4.2591,4.2966,4.2594,4.1783,4.1867,4.2185,4.2523,4.254,4.2455,4.2219,4.1711,4.1356,4.1153,4.0608,4.0265,4.0113,4.0113,4.0113,4.0113,4.0113,4.0113,4.0113,4.0113,4.0113,4.0113,4.0113,4.0113,4.0113,4.0113,3.9457,3.8193,3.7427,3.6569,3.565,3.5628,3.534,3.4793,3.4742,3.4393,3.3711,3.3812,3.3818,3.366,3.3812,3.3914,3.3903,3.3903,3.3886,3.3903,3.3903,3.414,3.4709,3.5273,3.5628,3.5628,3.5628,3.56,3.5566,3.5138,3.4616,3.4137,3.4083,3.4071,3.4103,3.3912,3.3824,3.3775,3.3231,3.2805,3.2755,3.236,3.188,3.1357,3.1268,3.0907,2.998,2.9433,2.8936,2.8112,2.7685,2.7585,2.7585,2.7585,2.7585,2.7585,2.7585,2.7585,2.7585,2.7585,2.7585,2.7585,2.7585,2.7585,2.7585,2.7585,2.7585,2.7585,2.7585,2.7585,2.7585,2.7585,2.7585,2.7585,2.7585,2.76,2.7645,2.7645,2.7884,4.4584,4.4584,4.4482,4.4482,4.4364,4.3609,4.3304,4.322,4.2709,4.2743,4.322,4.3961,4.3859,4.3355,4.3288,4.2966,4.2384,4.2249,4.183,4.1271,4.1136,4.073,4.0134,4.0113,4.0113,4.0113,4.0113,4.0113,4.0113,4.0113,4.0113,4.0113,4.0113,4.0113,4.0113,4.0113,3.9706,3.8903,3.8176,3.7082,3.5712,3.5628,3.5577,3.5515,3.5492,3.5154,3.4449,3.5036,3.507,3.4523,3.5002,3.5363,3.5363,3.5391,3.5391,3.5357,3.5363,3.5442,3.5492,3.5549,3.5628,3.5628,3.5628,3.5628,3.5628,3.5554,3.5481,3.5339,3.5373,3.5316,3.5379,3.4859,3.4503,3.4496,3.3969,3.3499,3.3536,3.3451,3.339,3.3339,3.3179,3.324,3.2644,3.169,3.0396,2.8642,2.809,2.7748,2.7585,2.7585,2.7585,2.7585,2.7585,2.7585,2.7585,2.7585,2.7585,2.7585,2.7585,2.7585,2.7585,2.7585,2.7585,2.7585,2.7585,2.7585,2.7585,2.7585,2.7585,2.7585,2.7585,2.7585,2.7585,2.7585,2.775,4.4584,4.4584,4.4584,4.4584,4.4533,4.4228,4.4127,4.4062,4.3805,4.3839,4.4113,4.4465,4.4415,4.411,4.4113,4.3941,4.3619,4.2723,4.2151,4.1762,4.098,4.0388,4.013,4.0113,4.0113,4.0113,4.0113,4.0113,4.0113,4.0113,4.0113,4.0113,4.0113,4.0113,4.0113,4.0113,3.974,3.9005,3.8278,3.7381,3.6383,3.5831,3.5628,3.5628,3.5628,3.5481,3.5222,3.5447,3.5447,3.5188,3.543,3.5628,3.5628,3.5628,3.5628,3.5628,3.5628,3.5628,3.5628,3.5628,3.5628,3.5628,3.5628,3.5628,3.5628,3.5628,3.5628,3.5628,3.5628,3.5628,3.5577,3.535,3.5179,3.5161,3.4946,3.4764,3.4776,3.4781,3.4669,3.4284,3.4198,3.3859,3.308,3.2171,3.0915,2.9493,2.8876,2.8506,2.7803,2.7585,2.7585,2.7585,2.7585,2.7585,2.7585,2.7585,2.7585,2.7585,2.7585,2.7585,2.7585,2.7585,2.7585,2.7585,2.7585,2.7585,2.7585,2.7585,2.7585,2.7585,2.7585,2.7585,2.7585,2.7585,2.7585,4.4584,4.4584,4.4584,4.4584,4.4567,4.4347,4.4384,4.455,4.4381,4.4398,4.4584,4.4584,4.4584,4.4584,4.4584,4.4584,4.4432,4.3433,4.2689,4.2249,4.1183,4.0519,4.0146,4.0113,4.0113,4.0113,4.0113,4.0113,4.0113,4.0113,4.0113,4.0113,4.0113,4.0113,4.0113,4.0113,3.9846,3.9305,3.8565,3.7922,3.7376,3.6625,3.6039,3.565,3.5628,3.5628,3.5628,3.5628,3.5628,3.56,3.5628,3.5628,3.5628,3.5628,3.5628,3.5628,3.5628,3.5712,3.5898,3.5718,3.5701,3.5881,3.5746,3.5628,3.5628,3.5628,3.5628,3.5628,3.5628,3.5628,3.5628,3.5628,3.5628,3.5628,3.5628,3.5628,3.5577,3.5628,3.5373,3.4953,3.4882,3.4447,3.3349,3.2577,3.1714,3.0463,2.9789,2.9231,2.8147,2.775,2.7585,2.7585,2.7585,2.7585,2.7585,2.7585,2.7585,2.7585,2.7585,2.7585,2.7585,2.7585,2.7585,2.7585,2.7585,2.7585,2.7585,2.7585,2.7585,2.7585,2.7585,2.7585,2.7585,2.7585,2.7585,4.4584,4.4584,4.4584,4.4567,4.4516,4.3809,4.391,4.4482,4.3826,4.3893,4.4533,4.4584,4.4584,4.4584,4.4584,4.4584,4.4584,4.4398,4.3569,4.2354,4.2117,4.1403,4.0163,4.0113,4.0113,4.0113,4.0113,4.0113,4.0113,4.0113,4.0113,4.0113,4.0113,4.0113,4.0113,4.0113,4.0096,3.991,3.9254,3.8882,3.8763,3.8125,3.7014,3.5881,3.5633,3.5678,3.5645,3.5628,3.5628,3.5628,3.5628,3.5628,3.5628,3.5628,3.5628,3.5628,3.5628,3.5932,3.6462,3.5994,3.5881,3.6445,3.5949,3.5628,3.5628,3.5628,3.5628,3.5628,3.5628,3.5628,3.5628,3.5628,3.5628,3.5628,3.5628,3.5628,3.5628,3.5628,3.5628,3.5532,3.547,3.5144,3.4459,3.39,3.288,3.1578,3.0396,2.9357,2.8601,2.798,2.7645,2.7585,2.7585,2.7585,2.7585,2.7585,2.7585,2.7585,2.7585,2.7585,2.7585,2.7585,2.7585,2.7585,2.7585,2.7585,2.7585,2.7585,2.7585,2.7585,2.7585,2.7585,2.7585,2.7585,2.7585,4.4584,4.4584,4.4584,4.4313,4.3826,4.3507,4.3575,4.3792,4.3524,4.3842,4.4499,4.4584,4.4584,4.4584,4.4584,4.4584,4.4564,4.4062,4.3267,4.2317,4.1813,4.1064,4.0197,4.0113,4.0113,4.0113,4.0113,4.0113,4.0113,4.0113,4.0113,4.0113,4.0113,4.0113,4.0113,4.0113,4.0113,4.0028,3.9372,3.9,3.8966,3.8266,3.7606,3.7099,3.6603,3.6378,3.6366,3.5881,3.5628,3.5628,3.5628,3.5628,3.5628,3.5628,3.5628,3.5628,3.5628,3.5729,3.5949,3.578,3.5701,3.5949,3.578,3.5628,3.5628,3.5628,3.5628,3.5628,3.5628,3.5628,3.5628,3.5628,3.5628,3.5628,3.5628,3.5628,3.5628,3.5628,3.5628,3.5628,3.5611,3.5475,3.5239,3.5004,3.4162,3.2443,3.1405,3.0284,2.8867,2.8009,2.7698,2.76,2.7585,2.7585,2.7585,2.7585,2.7585,2.7585,2.7585,2.7585,2.7585,2.7585,2.7585,2.7585,2.7585,2.7585,2.7585,2.7585,2.7585,2.7585,2.7585,2.7585,2.7585,2.7585,2.7585,4.3856,4.387,4.387,4.3555,4.3068,4.3051,4.3051,4.3085,4.3288,4.3724,4.4195,4.4465,4.4584,4.4533,4.4347,4.4212,4.4161,4.3639,4.2983,4.2269,4.1542,4.0815,4.0202,4.0113,4.0113,4.0113,4.0113,4.0113,4.0113,4.0113,4.0113,4.0113,4.0113,4.0113,4.0113,4.0113,4.0113,3.9994,3.9592,3.9356,3.9288,3.8882,3.8599,3.8459,3.7669,3.7021,3.6829,3.6017,3.5628,3.5628,3.5628,3.5628,3.5616,3.5847,3.5994,3.6011,3.6236,3.6456,3.6591,3.6265,3.6101,3.6287,3.5864,3.5628,3.5628,3.5628,3.5628,3.5628,3.5628,3.5628,3.5628,3.5628,3.5628,3.5628,3.5628,3.5628,3.5628,3.5628,3.5628,3.5628,3.5628,3.5611,3.5628,3.56,3.4693,3.3074,3.2472,3.143,2.9604,2.8852,2.8324,2.8025,2.7974,2.7842,2.769,2.7585,2.7585,2.7585,2.7585,2.7585,2.7585,2.7585,2.7585,2.7585,2.7585,2.7585,2.7585,2.7585,2.7585,2.7585,2.7585,2.7585,2.7585,2.7585,2.7585,4.235,4.2435,4.232,4.2388,4.2317,4.2303,4.2317,4.2388,4.2966,4.3254,4.3457,4.4178,4.4415,4.4347,4.3775,4.3457,4.3372,4.322,4.2797,4.2134,4.1525,4.0828,4.0117,4.0113,4.0113,4.0113,4.0113,4.0113,4.0113,4.0113,4.0113,4.0113,4.0113,4.0113,4.0113,4.0113,4.0113,4.0079,4.0011,4.0028,4.0096,3.9931,3.9846,3.974,3.8531,3.7483,3.6818,3.6017,3.5633,3.5684,3.5628,3.5628,3.5712,3.6265,3.675,3.6818,3.7398,3.8125,3.8543,3.7511,3.7094,3.7381,3.6507,3.5853,3.5921,3.5881,3.5831,3.5763,3.5729,3.5661,3.5645,3.5628,3.5628,3.5628,3.5628,3.5628,3.5628,3.5628,3.5628,3.5628,3.5628,3.5628,3.5628,3.5628,3.4989,3.3956,3.3399,3.2631,3.0737,3.0102,2.9789,2.8904,2.8278,2.7961,2.7764,2.7585,2.7585,2.7585,2.7585,2.7585,2.7585,2.7585,2.7585,2.7585,2.7585,2.7585,2.7585,2.7585,2.7585,2.7585,2.7585,2.7585,2.7585,2.7585,2.7585,4.2303,4.2303,4.2303,4.1982,4.1576,4.1542,4.1542,4.1546,4.18,4.2155,4.2709,4.3453,4.3504,4.3213,4.325,4.3118,4.2625,4.2138,4.1762,4.1525,4.1288,4.0811,4.0218,4.0113,4.0113,4.0113,4.0113,4.0113,4.0113,4.0113,4.0113,4.0113,4.0113,4.0113,4.0113,4.0113,4.0113,4.0113,4.0113,4.0113,4.0113,4.0113,3.9893,3.9305,3.8396,3.755,3.6818,3.6017,3.5881,3.6361,3.5898,3.5628,3.5763,3.6366,3.6784,3.6868,3.7499,3.7973,3.813,3.7872,3.7652,3.7787,3.742,3.7234,3.7183,3.7133,3.6924,3.6518,3.6428,3.6248,3.5763,3.5628,3.5633,3.5628,3.5628,3.5628,3.5628,3.5628,3.5628,3.5628,3.5628,3.5628,3.5628,3.5628,3.5217,3.4364,3.3889,3.3022,3.1607,3.0663,2.9643,2.8761,2.8366,2.8184,2.8049,2.7929,2.7869,2.7824,2.7764,2.7615,2.7585,2.7585,2.7585,2.7585,2.7585,2.7585,2.7585,2.7585,2.7585,2.7585,2.7585,2.7585,2.7585,2.7585,2.7585,4.1471,4.1487,4.1487,4.1234,4.0798,4.0794,4.0811,4.0832,4.1102,4.1457,4.1999,4.2675,4.276,4.2405,4.2523,4.2337,4.183,4.1119,4.0794,4.0798,4.0794,4.0523,4.013,4.0113,4.0113,4.0113,4.0113,4.0113,4.0113,4.0113,4.0113,4.0113,4.0113,4.0113,4.0113,4.0113,4.0113,4.0113,4.0113,4.0113,4.0113,4.0113,3.9745,3.9022,3.8294,3.7838,3.7545,3.662,3.6265,3.6631,3.6299,3.6062,3.6113,3.6772,3.7325,3.7714,3.8273,3.8746,3.8684,3.8497,3.8311,3.8294,3.8058,3.7893,3.7893,3.791,3.7635,3.7313,3.7207,3.6891,3.6236,3.6062,3.5932,3.5628,3.5628,3.5628,3.5628,3.5628,3.5628,3.5628,3.5628,3.5628,3.5628,3.5583,3.5301,3.4673,3.442,3.3846,3.2607,3.1686,3.0746,2.9879,2.942,2.9085,2.8511,2.8304,2.8169,2.8079,2.8004,2.7764,2.7585,2.7585,2.7585,2.7585,2.7585,2.7585,2.7585,2.7585,2.7585,2.7585,2.7585,2.7585,2.7585,2.7585,2.7585,4.013,4.0113,4.013,4.0197,4.0163,4.0163,4.0185,4.0248,4.0781,4.1072,4.1305,4.1914,4.2164,4.1995,4.1593,4.1356,4.1035,4.054,4.0231,4.0214,4.0197,4.0146,4.0113,4.0113,4.0113,4.0113,4.0113,4.0113,4.0113,4.0113,4.0113,4.0113,4.0113,4.0113,4.0113,4.0113,4.0113,4.0113,4.0113,4.0113,4.0113,4.0113,3.9745,3.9034,3.8413,3.8227,3.8345,3.7579,3.6953,3.6902,3.6885,3.6851,3.6987,3.755,3.8261,3.8797,3.9643,3.9893,3.9876,3.9372,3.9056,3.9005,3.8565,3.8041,3.8244,3.8316,3.8198,3.799,3.786,3.7516,3.6902,3.6564,3.6248,3.5763,3.5628,3.5628,3.5628,3.5628,3.5628,3.5628,3.5628,3.5628,3.5628,3.5628,3.5305,3.5008,3.5102,3.4648,3.3881,3.3033,3.2742,3.1779,3.0434,2.9733,2.9094,2.8858,2.874,2.8723,2.8573,2.8259,2.7794,2.769,2.76,2.7585,2.7585,2.7585,2.7585,2.7585,2.7585,2.7585,2.7585,2.7585,2.7585,2.7585,2.7585,4.0113,4.0113,4.0113,4.0113,4.0113,4.0113,4.0113,4.013,4.0286,4.0438,4.0557,4.1153,4.1217,4.0743,4.1068,4.0916,4.0472,4.0202,4.0113,4.0113,4.0113,4.0113,4.0113,4.0113,4.0113,4.0113,4.0113,4.0113,4.0113,4.0113,4.0113,4.0113,4.0113,4.0113,4.0113,4.0113,4.0113,4.0113,4.0113,4.0113,4.0113,4.0113,3.9728,3.9068,3.8797,3.8514,3.8328,3.8374,3.8137,3.7652,3.7618,3.7589,3.7669,3.8278,3.8768,3.9102,3.966,4.0113,4.0062,3.991,3.9808,3.9808,3.9508,3.9525,3.9525,3.9508,3.9242,3.8802,3.8278,3.7652,3.6919,3.6315,3.5881,3.5678,3.5628,3.5628,3.5628,3.5628,3.5628,3.5628,3.5628,3.5628,3.5628,3.5588,3.5504,3.5373,3.5362,3.5362,3.4538,3.3856,3.3323,3.2059,3.0872,3.0255,2.9744,2.9494,2.9353,2.9383,2.9247,2.9007,2.841,2.7902,2.7722,2.7585,2.7585,2.7585,2.7585,2.7585,2.7585,2.7585,2.7585,2.7585,2.7585,2.7585,2.7585,4.0113,4.0113,4.0113,4.0113,4.0113,4.0113,4.0113,4.0113,4.0113,4.0113,4.0214,4.0523,4.0506,4.018,4.054,4.0523,4.0146,4.0113,4.0113,4.0113,4.0113,4.0113,4.0113,4.0113,4.0113,4.0113,4.0113,4.0113,4.0113,4.0113,4.0113,4.0113,4.0113,4.0113,4.0113,4.0113,4.0113,4.0113,4.0113,4.0113,4.0113,4.0113,3.9694,3.9153,3.9,3.8751,3.8497,3.9056,3.9119,3.8548,3.8362,3.8362,3.8396,3.8751,3.9136,3.9406,3.9893,4.0113,4.0113,4.0113,4.0113,4.0096,4.0113,4.0113,4.0062,4.0096,3.9829,3.9491,3.9034,3.8493,3.7731,3.6755,3.6017,3.5695,3.5628,3.5628,3.5628,3.5628,3.5628,3.5628,3.5628,3.5628,3.5628,3.5628,3.5628,3.5588,3.5554,3.5396,3.5036,3.4399,3.3658,3.2539,3.1736,3.1215,3.0585,3.0218,3.0193,3.0193,2.9832,2.9608,2.8964,2.8248,2.7857,2.769,2.763,2.7585,2.7585,2.7585,2.7585,2.7585,2.7585,2.7585,2.7585,2.7585,2.7585,4.0113,4.0113,4.0113,4.0113,4.0113,4.0113,4.0113,4.0113,4.0113,4.0113,4.013,4.0113,4.018,4.0113,4.0185,4.013,4.0113,4.0113,4.0113,4.0113,4.0113,4.0113,4.0113,4.0113,4.0113,4.0113,4.0113,4.0113,4.0113,4.0113,4.0113,4.0113,4.0113,4.0113,4.0113,4.0113,4.0113,4.0113,4.0113,4.0113,4.0113,4.0079,3.9791,3.9372,3.9034,3.8886,3.8886,3.9305,3.944,3.9,3.9051,3.9119,3.9119,3.9136,3.9406,3.9863,4.0062,4.0113,4.0113,4.0113,4.0113,4.0113,4.0113,4.0113,4.0113,4.0096,4.0062,3.9977,4.0045,3.9254,3.8374,3.7393,3.6451,3.5814,3.5628,3.5628,3.5628,3.5628,3.5628,3.5628,3.5628,3.5628,3.5628,3.5628,3.5628,3.5628,3.5628,3.5532,3.535,3.4994,3.4273,3.3393,3.2767,3.2314,3.1616,3.0956,3.1017,3.1017,3.0492,3.0072,2.9413,2.8755,2.8141,2.7857,2.7976,2.7842,2.7585,2.7585,2.7615,2.7585,2.7585,2.7585,2.7585,2.7585,2.7585,4.0113,4.0113,4.0113,4.0113,4.0113,4.0113,4.0113,4.0113,4.0113,4.0113,4.0113,4.0113,4.0113,4.0113,4.0113,4.0113,4.0113,4.0113,4.0113,4.0113,4.0113,4.0113,4.0113,4.0117,4.0113,4.0113,4.0113,4.0113,4.0113,4.0113,4.0113,4.0113,4.0113,4.0113,4.0113,4.0113,4.0113,4.0113,4.0113,4.0113,4.0113,4.0113,4.0011,3.9757,3.9288,3.87,3.8244,3.8278,3.8565,3.9017,3.9508,3.9774,3.9779,3.9795,3.988,3.9999,4.0113,4.0113,4.0113,4.0113,4.0113,4.0113,4.0113,4.0113,4.0113,4.0113,4.0113,3.9994,3.9559,3.8848,3.7697,3.7088,3.6445,3.5881,3.5628,3.5628,3.5628,3.5628,3.5628,3.5628,3.5628,3.5628,3.5628,3.5628,3.5628,3.5628,3.5628,3.5628,3.5532,3.5413,3.4669,3.3799,3.3404,3.2772,3.179,3.1241,3.1301,3.1376,3.0987,3.0687,3.0028,2.9549,2.9071,2.8682,2.8412,2.8188,2.7916,2.7705,2.775,2.7675,2.76,2.7585,2.7585,2.7585,2.7585,4.0113,4.0113,4.0113,4.0113,4.0113,4.0113,4.0113,4.0113,4.0113,4.0113,4.0113,4.0113,4.0113,4.0113,4.0113,4.0113,4.0113,4.0113,4.0303,4.0438,4.0337,4.0286,4.0472,4.0252,4.0113,4.0113,4.0113,4.0113,4.0113,4.0113,4.0113,4.0113,4.0113,4.0113,4.0113,4.0113,4.0113,4.0113,4.0113,4.0113,4.0113,4.0113,4.0113,3.996,3.9406,3.8768,3.8497,3.8447,3.8633,3.9068,3.9677,4.0096,4.0113,4.0113,4.0113,4.0113,4.0113,4.0113,4.0113,4.0113,4.0113,4.0113,4.0113,4.0113,4.0113,4.0113,4.0113,4.0045,3.966,3.8933,3.7545,3.733,3.6823,3.5881,3.5628,3.5628,3.5628,3.5628,3.5628,3.5628,3.5628,3.5628,3.5628,3.5628,3.5628,3.5628,3.5628,3.5628,3.5628,3.5413,3.474,3.4062,3.3735,3.3077,3.195,3.1451,3.1421,3.1436,3.1286,3.1151,3.0867,3.0493,3.0164,2.9626,2.9041,2.8682,2.841,2.8171,2.7869,2.769,2.7615,2.76,2.7585,2.7585,2.7585,4.0113,4.0113,4.0113,4.0113,4.0113,4.0113,4.0113,4.0113,4.0113,4.0113,4.0113,4.0113,4.0113,4.0113,4.0113,4.0113,4.0113,4.013,4.0371,4.0675,4.0316,4.0388,4.0591,4.035,4.0113,4.0113,4.0113,4.0113,4.0113,4.0113,4.0113,4.0113,4.0113,4.0113,4.0113,4.0113,4.0113,4.0113,4.0113,4.0113,4.0113,4.0096,4.0062,3.9694,3.9119,3.8734,3.8565,3.8526,3.8662,3.9,3.9592,3.9931,4.0083,4.0113,4.0113,4.0113,4.0113,4.0113,4.0113,4.0113,4.0113,4.0113,4.0113,4.0113,4.0113,4.0113,4.0113,4.0113,3.9893,3.9389,3.8125,3.7792,3.7065,3.605,3.5628,3.5628,3.5628,3.5628,3.5628,3.5628,3.5628,3.5628,3.5628,3.5628,3.5628,3.5628,3.5628,3.5628,3.5628,3.5458,3.4847,3.4235,3.3887,3.3024,3.1893,3.1496,3.1496,3.1481,3.1421,3.1421,3.1391,3.1137,3.0702,3.0133,2.9609,2.928,2.8906,2.8575,2.8231,2.7854,2.763,2.76,2.7585,2.7585,2.7585,4.0113,4.0113,4.0113,4.0113,4.0113,4.0113,4.0113,4.0113,4.0113,4.0113,4.0113,4.0113,4.0113,4.0113,4.0113,4.0113,4.0113,4.013,4.0231,4.0422,4.0197,4.0299,4.0405,4.0265,4.0113,4.0113,4.0113,4.0113,4.0113,4.0113,4.0113,4.0113,4.0113,4.0113,4.0113,4.0113,4.0113,4.0113,4.0113,4.0113,4.0113,4.0079,3.9863,3.9406,3.8746,3.8345,3.8075,3.7647,3.7714,3.8831,3.9089,3.9525,3.996,4.0113,4.0113,4.0113,4.0113,4.0113,4.0113,4.0113,4.0113,4.0113,4.0113,4.0113,4.0113,4.0113,4.0113,4.0113,3.9999,3.9508,3.8079,3.7927,3.7149,3.6135,3.5616,3.5616,3.5628,3.5628,3.5628,3.5628,3.5628,3.5628,3.5628,3.5628,3.5628,3.5628,3.5628,3.5628,3.5628,3.5492,3.5179,3.4552,3.3971,3.2902,3.1752,3.1581,3.1496,3.1496,3.1466,3.1466,3.1466,3.1481,3.1122,3.0598,3.0283,3.0043,2.9609,2.9101,2.8665,2.8336,2.7989,2.763,2.7585,2.7585,2.7585,4.0113,4.0113,4.0113,4.0113,4.0113,4.0113,4.0113,4.0113,4.0113,4.0113,4.0113,4.0113,4.0113,4.0113,4.0113,4.0113,4.0113,4.0113,4.0303,4.0506,4.032,4.0367,4.0489,4.0286,4.013,4.0113,4.0113,4.0113,4.0113,4.0113,4.0113,4.0113,4.0113,4.0113,4.0113,4.0113,4.0113,4.0113,4.0113,4.0113,4.0113,4.0113,3.9846,3.9491,3.8865,3.8514,3.8396,3.8222,3.8273,3.8933,3.9389,3.9728,3.9977,4.0079,4.0096,4.0079,4.0096,4.0113,4.0113,4.0113,4.0113,4.0113,4.0113,4.0113,4.0113,4.0113,4.0113,4.0113,4.0079,3.9677,3.8599,3.8159,3.7364,3.6468,3.5864,3.5616,3.5628,3.5628,3.5628,3.5628,3.5628,3.5628,3.5628,3.5628,3.5628,3.5628,3.5628,3.5628,3.5628,3.5504,3.5362,3.4628,3.3921,3.2917,3.1923,3.1625,3.151,3.1496,3.1496,3.1496,3.1496,3.1496,3.1436,3.1137,3.0897,3.0658,3.0314,2.9849,2.9325,2.8786,2.8425,2.8051,2.775,2.7585,2.7615,4.0113,4.0113,4.0113,4.0113,4.0113,4.0113,4.0113,4.0113,4.0113,4.0113,4.0113,4.0113,4.0113,4.0113,4.0113,4.0113,4.0113,4.0113,4.0388,4.0612,4.0371,4.0438,4.0612,4.0489,4.0113,4.0113,4.0113,4.0113,4.0113,4.0113,4.0113,4.0113,4.0113,4.0113,4.0113,4.0113,4.0113,4.0113,4.0113,4.0113,4.0113,4.0113,4.0113,3.9977,3.9254,3.8768,3.8865,3.8611,3.8679,3.9034,3.944,3.9825,3.9846,3.9863,3.9893,3.991,3.9994,4.0096,4.0113,4.0113,4.0113,4.0113,4.0113,4.0113,4.0113,4.0113,4.0113,4.0113,4.0096,3.9795,3.8966,3.8328,3.7584,3.6834,3.6079,3.5628,3.5628,3.5628,3.5628,3.5628,3.5628,3.5628,3.5628,3.5628,3.5628,3.5628,3.5628,3.5628,3.5628,3.5628,3.5339,3.458,3.377,3.2879,3.2118,3.1668,3.1553,3.1496,3.1496,3.1496,3.1496,3.1496,3.1421,3.1376,3.1361,3.1107,3.0837,3.0463,2.9849,2.928,2.8861,2.8366,2.7839,2.766,2.7705,4.0113,4.0113,4.0113,4.0113,4.0113,4.0113,4.0113,4.0113,4.0113,4.0113,4.0113,4.0113,4.0113,4.0113,4.0113,4.0113,4.0113,4.0113,4.0185,4.032,4.0197,4.0163,4.0252,4.0168,4.0113,4.0113,4.0113,4.0113,4.0113,4.0113,4.0113,4.0113,4.0113,4.0113,4.0113,4.0113,4.0113,4.0113,4.0113,4.0113,4.0113,4.0113,4.0113,3.9774,3.9,3.8464,3.8819,3.8548,3.8362,3.8899,3.9051,3.9123,3.9123,3.9119,3.9119,3.9322,3.966,4.0113,4.0096,4.0011,4.0062,4.0062,4.0113,4.0113,4.0113,4.0113,4.0113,4.0113,4.0113,3.9846,3.9186,3.8413,3.7635,3.6953,3.6265,3.5814,3.5633,3.5628,3.5628,3.5628,3.5628,3.5628,3.5628,3.5628,3.5628,3.5628,3.5628,3.5628,3.5628,3.5628,3.535,3.4616,3.3908,3.3024,3.2272,3.1824,3.1553,3.1496,3.1496,3.1496,3.1496,3.1496,3.1496,3.1466,3.1496,3.1496,3.1227,3.0792,3.0253,2.9729,2.925,2.8515,2.775,2.7735,2.7902,4.0113,4.0113,4.0113,4.0113,4.0113,4.0113,4.0113,4.0113,4.0113,4.0113,4.0113,4.0113,4.0113,4.0113,4.0113,4.0113,4.0113,4.0113,4.0113,4.0113,4.0113,4.0113,4.013,4.0113,4.0113,4.0113,4.0113,4.0113,4.0113,4.0113,4.0113,4.0113,4.0113,4.0113,4.0113,4.0113,4.0113,4.0113,4.0113,4.0113,4.0113,4.0113,4.0113,4.0062,3.9034,3.8768,3.8684,3.8311,3.8041,3.8362,3.8379,3.8379,3.8497,3.8734,3.9017,3.9022,3.9259,3.966,3.9994,3.9706,3.9728,4.0011,4.0096,4.0113,4.0113,4.0113,4.0113,4.0113,4.0113,3.9897,3.9559,3.8954,3.8227,3.7466,3.6654,3.6163,3.5847,3.565,3.5628,3.5628,3.5628,3.5678,3.5678,3.5628,3.5628,3.5628,3.5628,3.5628,3.5628,3.5628,3.523,3.4671,3.3996,3.3271,3.2557,3.1965,3.1596,3.1496,3.1496,3.1496,3.1496,3.1496,3.1496,3.1496,3.1496,3.1481,3.1466,3.1227,3.0762,3.0194,2.9609,2.9024,2.8483,2.8291,2.8592,3.9825,3.9829,4.0028,4.0113,4.0113,4.0113,4.0113,4.0113,4.0113,4.0113,4.0113,4.0113,4.0113,4.0113,4.0113,4.0113,4.0113,4.0113,4.0113,4.0113,4.0113,4.0113,4.0113,4.0113,4.0113,4.0113,4.0113,4.0113,4.0113,4.0113,4.0113,4.0113,4.0113,4.0113,4.0113,4.0113,4.0113,4.0113,4.0113,4.0113,4.0113,4.0113,4.0113,3.9825,3.9305,3.8746,3.8628,3.7985,3.7618,3.7618,3.7889,3.7995,3.8079,3.8616,3.8797,3.8734,3.8717,3.8899,3.9102,3.9039,3.9191,3.9609,4.0062,4.0113,4.0113,4.0113,4.0113,4.0113,4.0113,4.0113,3.9897,3.9254,3.8582,3.79,3.7308,3.675,3.6315,3.6338,3.6219,3.6129,3.6079,3.5814,3.578,3.5661,3.5628,3.5628,3.5628,3.5628,3.5588,3.5577,3.5339,3.4842,3.4025,3.344,3.2957,3.2325,3.1909,3.1496,3.1496,3.1496,3.1496,3.1496,3.1496,3.1496,3.1496,3.1496,3.1481,3.1406,3.1286,3.0583,2.9983,2.9788,2.9428,2.9175,2.9207,3.9068,3.9123,3.9754,4.0007,4.0062,4.0113,4.0079,3.9982,4.0045,4.0062,4.0113,4.0113,4.0113,4.0113,4.0113,4.0113,4.0113,4.0113,4.0113,4.0113,4.0113,4.0113,4.0113,4.0113,4.0113,4.0113,4.0113,4.0113,4.0113,4.0113,4.0113,4.0113,4.0113,4.0113,4.0113,4.0113,4.0113,4.0113,4.0113,4.0113,4.0113,4.0096,4.0079,3.9711,3.8802,3.7978,3.7939,3.7257,3.6868,3.6885,3.728,3.7702,3.7787,3.8413,3.8548,3.8464,3.8345,3.8464,3.8481,3.8413,3.8497,3.9039,3.9643,4.0113,4.0113,4.0113,4.0113,4.0113,4.0113,4.0113,3.9694,3.9039,3.8734,3.8374,3.7951,3.7499,3.7229,3.7352,3.7212,3.6851,3.653,3.6248,3.5915,3.5797,3.5628,3.5628,3.5628,3.5616,3.5532,3.5509,3.547,3.504,3.4099,3.3556,3.3365,3.2732,3.1781,3.1496,3.1496,3.1496,3.1496,3.1496,3.1496,3.1496,3.1496,3.1496,3.1496,3.1451,3.1256,3.0762,3.0357,3.0132,3.0117,2.9998,3.0073,3.7036,3.7068,3.736,3.8225,3.9423,3.9423,3.9423,3.9423,3.9423,3.9711,4.0113,4.0113,4.0113,4.0096,4.0113,4.0113,4.0113,4.0113,4.0079,4.0113,4.0113,4.0113,4.0113,4.0079,4.0113,4.0079,4.0079,4.0113,4.0113,4.0096,4.0096,4.0113,4.0113,4.0113,4.0113,4.0113,4.0113,4.0113,4.0113,4.0113,4.0113,4.0062,3.9893,3.9322,3.8548,3.7686,3.7224,3.6468,3.618,3.618,3.6439,3.6857,3.7347,3.8007,3.8328,3.8379,3.8345,3.8362,3.8328,3.821,3.843,3.9474,3.9948,4.0113,4.0113,4.0113,4.0113,4.0113,4.0113,4.0113,3.9931,3.9592,3.9339,3.8983,3.8577,3.8142,3.8091,3.821,3.8012,3.7579,3.7054,3.6615,3.6265,3.5932,3.5763,3.5628,3.5628,3.5588,3.5521,3.5305,3.5219,3.4864,3.3899,3.3274,3.3053,3.2325,3.1524,3.1496,3.1496,3.1496,3.1496,3.1496,3.1496,3.1496,3.1496,3.1496,3.1496,3.1496,3.1316,3.1017,3.0702,3.0402,3.0492,3.0687,3.0807,3.5482,3.5495,3.5679,3.6746,3.8241,3.8341,3.8608,3.8971,3.9017,3.9423,4.0096,4.0113,3.996,3.9863,4.0028,3.9893,3.9791,3.9723,3.9728,3.9711,3.9711,3.9779,3.9846,3.9931,3.996,3.991,4.0028,4.0062,3.9711,3.9965,4.0079,4.0113,4.0113,4.0113,4.0113,4.0113,4.0113,4.0113,4.0113,4.0113,4.0113,4.0079,3.9757,3.9068,3.8294,3.7567,3.6885,3.618,3.5763,3.5814,3.6,3.6315,3.6868,3.7444,3.7973,3.8244,3.8391,3.8408,3.829,3.8531,3.8662,3.944,3.9965,4.0062,4.0113,4.0113,4.0113,4.0113,4.0113,4.0113,4.0079,3.9694,3.9609,3.9288,3.8966,3.8616,3.8831,3.8949,3.8633,3.8278,3.7816,3.741,3.6451,3.6067,3.5746,3.5628,3.5628,3.5577,3.5492,3.5219,3.4812,3.4309,3.3556,3.3039,3.2573,3.1993,3.151,3.1496,3.1496,3.1496,3.1496,3.1496,3.1496,3.1496,3.1496,3.1496,3.1496,3.1496,3.1496,3.1451,3.1136,3.0821,3.0927,3.1106,3.1227,3.4627,3.4818,3.5315,3.5999,3.6627,3.6839,3.7632,3.8693,3.8899,3.9197,3.9644,3.9792,3.9509,3.9205,3.9433,3.944,3.9102,3.9034,3.9085,3.9153,3.9254,3.9106,3.9322,3.9559,3.9559,3.9322,3.9406,3.9406,3.9051,3.9609,3.991,4.0028,4.0011,4.0113,4.0113,4.0113,4.0113,4.0113,4.0113,4.0113,4.0096,4.0028,3.9508,3.8831,3.8091,3.733,3.6552,3.5966,3.5616,3.5678,3.6113,3.6479,3.6829,3.7393,3.7618,3.7393,3.7274,3.7185,3.7117,3.8273,3.9017,3.9356,3.988,4.0079,4.0113,4.0113,4.0113,4.0113,4.0113,4.0113,3.9863,3.9626,3.9694,3.9656,3.9339,3.9254,3.944,3.9525,3.922,3.8966,3.8797,3.8408,3.7127,3.6197,3.5797,3.5628,3.5628,3.5566,3.5504,3.5098,3.4628,3.3987,3.3313,3.2734,3.2272,3.1853,3.151,3.1496,3.1496,3.1496,3.1496,3.1496,3.1496,3.1496,3.1496,3.1496,3.1496,3.1496,3.1496,3.1496,3.1496,3.1331,3.1421,3.1451,3.1481,3.2304,3.1962,3.2642,3.3083,3.3589,3.5359,3.6637,3.7525,3.7976,3.792,3.7549,3.8133,3.8228,3.7965,3.8281,3.8541,3.8345,3.8294,3.8396,3.8916,3.8882,3.9017,3.9102,3.9068,3.8983,3.8526,3.8565,3.8684,3.8294,3.9085,3.9339,3.9423,3.9926,4.0096,4.0113,4.0113,4.0113,4.0113,4.0113,4.0096,4.0045,3.9643,3.9068,3.8328,3.7618,3.6874,3.6163,3.5701,3.5616,3.5628,3.6062,3.6248,3.6615,3.7144,3.7494,3.7867,3.8188,3.8526,3.8843,3.9588,3.9677,3.9795,3.9893,4.0113,4.0113,4.0113,4.0113,4.0113,4.0113,4.0113,3.9994,3.9931,3.9977,3.9994,3.9825,3.9825,3.9926,3.9943,3.9812,3.9576,3.9389,3.8442,3.7291,3.6671,3.6236,3.5819,3.5807,3.5661,3.5571,3.4993,3.4455,3.3799,3.313,3.2504,3.198,3.1773,3.157,3.1496,3.1496,3.1496,3.1496,3.154,3.1525,3.154,3.1511,3.1496,3.1496,3.1496,3.1496,3.1496,3.1496,3.1496,3.1481,3.1466,3.1481,3.0597,3.028,3.092,3.1213,3.1612,3.3665,3.5175,3.6087,3.6812,3.6629,3.6197,3.6812,3.6929,3.6767,3.7136,3.7511,3.7515,3.7533,3.7618,3.8222,3.8205,3.8103,3.8188,3.8464,3.8142,3.7753,3.7804,3.7927,3.8024,3.8667,3.9174,3.9576,3.9859,4.0045,4.0113,4.0113,4.0113,4.0113,4.0113,4.0113,3.988,3.9423,3.8684,3.7973,3.7229,3.6462,3.5864,3.5628,3.5628,3.5628,3.5695,3.5847,3.6282,3.6784,3.7252,3.8002,3.8831,3.9102,3.9457,3.9926,3.996,4.0045,4.0113,4.0113,4.0113,4.0113,4.0113,4.0113,4.0113,4.0113,4.0113,4.0113,4.0113,4.0113,4.0096,4.0079,4.0079,4.0096,4.0096,3.988,3.9609,3.8572,3.7697,3.7178,3.6761,3.6364,3.599,3.584,3.5605,3.4987,3.4374,3.3736,3.3204,3.2702,3.2256,3.1956,3.175,3.1525,3.1645,3.1809,3.166,3.1735,3.1645,3.1555,3.1525,3.1496,3.1496,3.1496,3.1496,3.1496,3.1496,3.1496,3.1496,3.1496,3.1496,2.9578,2.9656,3.0296,3.0528,3.0765,3.1971,3.3249,3.4523,3.5281,3.5479,3.5433,3.534,3.5393,3.5612,3.626,3.6588,3.6607,3.6617,3.6867,3.697,3.7207,3.7071,3.7241,3.755,3.733,3.7212,3.7212,3.742,3.7872,3.865,3.9322,3.9846,4.0028,4.0113,4.0113,4.0113,4.0113,4.0113,3.9897,3.9863,3.9677,3.9051,3.8294,3.7601,3.6941,3.6265,3.5797,3.5628,3.5628,3.5628,3.5645,3.5645,3.5881,3.6349,3.6631,3.7286,3.8357,3.8899,3.9372,3.991,4.0045,4.0113,4.0113,4.0113,4.0113,4.0113,4.0113,4.0113,4.0113,4.0113,4.0113,4.0113,4.0113,4.0113,4.0113,4.0096,4.0096,4.0113,4.0113,3.9994,3.9863,3.9237,3.8599,3.8058,3.7335,3.7023,3.6619,3.6123,3.5778,3.5015,3.4406,3.3812,3.3326,3.2975,3.2622,3.2422,3.2347,3.2273,3.2347,3.2452,3.2213,3.1914,3.1824,3.172,3.1555,3.1496,3.1496,3.1496,3.1496,3.1496,3.1496,3.1496,3.1496,3.1496,3.1496,2.9309,2.8963,2.9609,2.9626,2.9325,3.011,3.0715,3.1207,3.2234,3.2361,3.1455,3.2925,3.3386,3.2897,3.397,3.4754,3.5101,3.5393,3.6048,3.6345,3.6556,3.6727,3.6851,3.6919,3.6615,3.6299,3.6287,3.6777,3.7393,3.8323,3.9406,3.9965,4.0079,4.0096,4.0011,4.0079,4.0028,3.988,3.9542,3.9474,3.9034,3.8256,3.763,3.7088,3.6468,3.5881,3.5695,3.5628,3.5628,3.5628,3.5628,3.5628,3.5678,3.5898,3.6186,3.7567,3.8497,3.9191,3.9677,3.9948,4.0096,4.0079,4.0113,4.0113,4.0113,4.0113,4.0113,4.0113,4.0113,4.0113,4.0113,4.0113,4.0113,4.0113,4.0113,4.0113,4.0113,4.0113,4.0096,4.0045,3.9914,3.9643,3.9073,3.8599,3.7944,3.7672,3.7287,3.6745,3.6078,3.5341,3.4542,3.3959,3.3881,3.3667,3.335,3.3125,3.3095,3.3066,3.311,3.2946,3.2482,3.2198,3.2049,3.1839,3.157,3.1496,3.1496,3.1496,3.1496,3.1496,3.1496,3.1496,3.1496,3.1496,3.1511,2.8321,2.8276,2.8648,2.856,2.8321,2.8633,2.8813,2.9043,3.023,3.038,3.0145,3.1266,3.169,3.1906,3.2793,3.346,3.3824,3.4215,3.4824,3.5547,3.5896,3.6075,3.6195,3.627,3.6079,3.5712,3.578,3.6355,3.7241,3.8556,3.9711,3.9592,3.9863,3.966,3.9423,3.9356,3.9389,3.9237,3.9068,3.9,3.8408,3.7562,3.7032,3.6615,3.5977,3.5695,3.5628,3.5628,3.5628,3.5628,3.5628,3.5628,3.5729,3.5915,3.6507,3.7724,3.8193,3.8853,3.9339,3.9571,3.9808,4.0011,4.0096,4.0113,4.0113,4.0113,4.0113,4.0113,4.0113,4.0113,4.0113,4.0113,4.0113,4.0113,4.0113,4.0113,4.0113,4.0113,4.0079,4.0028,3.9876,3.9643,3.9288,3.8899,3.8693,3.8649,3.8208,3.7482,3.6737,3.5892,3.5032,3.4257,3.4428,3.4541,3.4182,3.3784,3.3709,3.3694,3.3769,3.3484,3.2886,3.2572,3.2482,3.2034,3.1525,3.154,3.163,3.1525,3.1496,3.1496,3.1511,3.1525,3.1511,3.1496,3.1511,2.6884,2.742,2.7448,2.742,2.7448,2.7435,2.745,2.7585,2.8767,2.9666,3.0056,3.0295,3.0657,3.0975,3.1743,3.2168,3.2485,3.2865,3.3379,3.4363,3.4255,3.4504,3.4991,3.538,3.5279,3.5436,3.5763,3.6219,3.7702,3.8713,3.9102,3.8983,3.9423,3.9237,3.8481,3.87,3.87,3.8413,3.843,3.8442,3.8222,3.7494,3.6694,3.653,3.6045,3.5628,3.5628,3.5628,3.5628,3.5628,3.5628,3.5628,3.5831,3.6113,3.6896,3.7533,3.7889,3.8328,3.8886,3.9237,3.9542,3.9812,4.0062,4.0096,4.0113,4.0113,4.0113,4.0113,4.0113,4.0113,4.0113,4.0113,4.0113,4.0113,4.0113,4.0113,4.0113,4.0113,4.0096,4.0062,4.0011,3.9825,3.9791,3.9428,3.9127,3.9366,3.8819,3.7937,3.7255,3.6368,3.5539,3.4673,3.4848,3.4988,3.4635,3.4307,3.4263,3.4263,3.4368,3.3874,3.3155,3.2946,3.2901,3.2452,3.1989,3.1839,3.1809,3.178,3.1705,3.1496,3.1511,3.1555,3.157,3.169,3.1555,2.5944,2.6078,2.6078,2.6078,2.6066,2.6078,2.6108,2.6138,2.6931,2.7722,2.8306,2.8828,2.9209,2.963,3.0302,3.0733,3.1106,3.1447,3.1739,3.2297,3.251,3.31,3.3421,3.4107,3.4354,3.4846,3.5368,3.6101,3.719,3.799,3.843,3.8227,3.8548,3.8232,3.7758,3.8058,3.7973,3.7623,3.7449,3.7461,3.7257,3.662,3.5864,3.5881,3.5628,3.5628,3.5628,3.5628,3.5628,3.5628,3.5628,3.5628,3.5645,3.5831,3.6299,3.6958,3.7516,3.7922,3.8379,3.8954,3.944,3.9508,3.9711,3.9977,4.0113,4.0113,4.0113,4.0113,4.0113,4.0113,4.0113,4.0113,4.0113,4.0113,4.0113,4.0113,4.0113,4.0113,4.0113,4.0113,4.0113,4.0113,4.0113,3.9965,3.9701,3.9163,3.842,3.7731,3.7307,3.6607,3.602,3.5333,3.5259,3.5246,3.4952,3.4831,3.4771,3.4861,3.4996,3.4307,3.344,3.3155,3.2976,3.2856,3.2587,3.2437,3.2333,3.2288,3.2123,3.1899,3.172,3.1839,3.2123,3.2318,3.1944,2.5322,2.5585,2.56,2.56,2.56,2.56,2.56,2.5674,2.6004,2.6375,2.6914,2.7934,2.8577,2.8667,2.9294,2.9365,2.9758,3.0066,3.067,3.1076,3.135,3.2064,3.2523,3.2994,3.3599,3.4186,3.5171,3.6,3.6682,3.7466,3.791,3.755,3.7567,3.7521,3.7166,3.7161,3.7212,3.6828,3.6485,3.6349,3.6315,3.5881,3.5628,3.5628,3.5628,3.5628,3.5628,3.5628,3.5628,3.5628,3.5628,3.5628,3.5628,3.5678,3.5831,3.6332,3.6907,3.7533,3.8024,3.8611,3.9322,3.944,3.9339,3.9592,4.0096,4.0113,4.0113,4.0113,4.0113,4.0113,4.0113,4.0113,4.0113,4.0113,4.0113,4.0113,4.0113,4.0113,4.0113,4.0113,4.0113,4.0113,4.0113,4.0083,3.9782,3.9189,3.8367,3.7891,3.742,3.6727,3.6194,3.583,3.5682,3.554,3.5311,3.5265,3.5295,3.5429,3.5489,3.4831,3.4023,3.341,3.3021,3.3125,3.317,3.3125,3.3036,3.2871,3.2826,3.2691,3.2422,3.2198,3.2557,3.2961,3.2766,2.4784,2.5319,2.5304,2.5319,2.5334,2.5319,2.5289,2.5319,2.5423,2.5468,2.5722,2.735,2.8113,2.8427,2.8725,2.8532,2.8492,2.8665,2.9399,2.9874,3.0448,3.0704,3.1401,3.2326,3.2724,3.3587,3.4699,3.5504,3.6225,3.6874,3.7077,3.6868,3.6823,3.6845,3.6169,3.6028,3.6197,3.6017,3.5797,3.5712,3.5645,3.5628,3.5628,3.5628,3.5628,3.5628,3.5628,3.5628,3.5628,3.5628,3.5628,3.5628,3.5628,3.5628,3.5628,3.5966,3.653,3.7139,3.7647,3.8125,3.8916,3.9372,3.9174,3.9398,3.991,4.007,4.007,4.0113,4.0113,4.0113,4.0113,4.0113,4.0113,4.0113,4.0113,4.0113,4.0113,4.0113,4.0113,4.0113,4.0113,4.0113,4.0113,4.0113,3.9662,3.9099,3.8591,3.8215,3.7671,3.6826,3.6107,3.5921,3.5805,3.5686,3.5522,3.5489,3.5489,3.5489,3.5444,3.5055,3.4637,3.4009,3.3649,3.3664,3.3709,3.3858,3.3634,3.3395,3.338,3.338,3.3051,3.2811,3.332,3.3664,3.3724,2.3864,2.3984,2.3984,2.3999,2.4014,2.3999,2.3973,2.4077,2.4586,2.4799,2.5035,2.5588,2.6156,2.6171,2.6273,2.6378,2.6814,2.7156,2.7183,2.7421,2.8535,2.8935,2.9549,3.0704,3.1405,3.2522,3.3734,3.4609,3.5109,3.5688,3.6033,3.5909,3.525,3.5369,3.5661,3.5498,3.5228,3.5166,3.5509,3.5577,3.5549,3.5577,3.56,3.5628,3.5628,3.5628,3.5628,3.5628,3.5628,3.5628,3.5532,3.5487,3.5458,3.5402,3.5328,3.5512,3.6096,3.6639,3.7121,3.7834,3.863,3.903,3.9005,3.9463,3.9808,3.994,3.9995,4.01,4.0113,4.0113,4.0113,4.0113,4.0113,4.0113,4.0113,4.0113,4.0113,4.0113,4.0113,4.0113,4.0113,4.0113,4.0113,3.9889,3.9428,3.8829,3.8206,3.7762,3.6965,3.643,3.5975,3.5911,3.5847,3.5701,3.5489,3.5489,3.5489,3.5489,3.5444,3.5175,3.4892,3.4578,3.4339,3.4337,3.4577,3.4801,3.4487,3.3994,3.3873,3.3829,3.3544,3.3484,3.4009,3.4338,3.4397]}]]